[[{"header":{"parameterUnit":"m.s-1","parameterCategory":1,"la1":31.0,"la2":29.5877,"lo1":-88.7671,"lo2":-86.6584,"dy":0.0162,"dx":0.0185,"nx":115,"ny":88,"refTime":"2024-09-02T06:00:00:Z","depth":0,"parameterNumber":2,"parameterNumberName":"U-component_of_WINDS"},"data":[0.0,0.0,0.0,0.0,0.0,0.0,0.0,0.0,0.0,0.0,0.0,0.0,0.0,0.0,0.0,0.0,0.0,0.0,0.0,0.0,0.0,0.0,0.0,0.0,0.0,0.0,0.0,0.0,0.0,0.0,0.0,0.0,0.0,0.0,0.0,0.0,0.0,0.0,0.0,0.0,0.0,0.0,0.0,0.0,0.0,0.0,0.0,0.0,0.0,0.0,0.0,0.0,0.0,0.0,0.0,0.0,0.0,0.0,0.0,0.0,0.0,0.0,0.0,0.0,0.0,0.0,0.0,0.0,0.0,0.0,0.0,0.0,0.0,0.0,0.0,0.0,0.0,0.0,0.0,0.0,0.0,0.0,0.0,0.0,0.0,0.0,0.0,0.0,0.0,0.0,0.0,0.0,0.0,0.0,0.0,0.0,0.0,0.0,0.0,0.0,0.0,0.0,0.0,0.0,0.0,0.0,0.0,0.0,0.0,0.0,0.0,0.0,0.0,0.0,0.0,0.0,0.0,0.0,0.0,0.0,0.0,0.0,0.0,0.0,0.0,0.0,0.0,0.0,0.0,0.0,0.0,0.0,0.0,0.0,0.0,0.0,0.0,0.0,0.0,0.0,0.0,0.0,0.0,0.0,0.0,0.0,0.0,0.0,0.0,0.0,0.0,0.0,0.0,0.0,0.0,0.0,0.0,0.0,0.0,0.0,0.0,0.0,0.0,0.0,0.0,0.0,0.0,0.0,0.0,0.0,0.0,0.0,0.0,0.0,0.0,0.0,0.0,0.0,0.0,0.0,0.0,0.0,0.0,0.0,0.0,0.0,0.0,0.0,0.0,0.0,0.0,0.0,0.0,0.0,0.0,0.0,0.0,0.0,0.0,0.0,0.0,0.0,0.0,0.0,0.0,0.0,0.0,0.0,0.0,0.0,0.0,0.0,0.0,0.0,0.0,0.0,0.0,0.0,0.0,0.0,0.0,0.0,0.0,0.0,0.0,0.0,0.0,0.0,0.0,0.0,0.0,0.0,0.0,0.0,0.0,0.0,0.0,0.0,0.0,0.0,0.0,0.0,0.0,0.0,0.0,0.0,0.0,0.0,0.0,0.0,0.0,0.0,0.0,0.0,0.0,0.0,0.0,0.0,0.0,0.0,0.0,0.0,0.0,0.0,0.0,0.0,0.0,0.0,0.0,0.0,0.0,0.0,0.0,0.0,0.0,0.0,0.0,0.0,0.0,0.0,0.0,0.0,0.0,0.0,0.0,0.0,0.0,0.0,0.0,0.0,0.0,0.0,0.0,0.0,0.0,0.0,0.0,0.0,0.0,0.0,0.0,0.0,0.0,0.0,0.0,0.0,0.0,0.0,0.0,0.0,0.0,0.0,0.0,0.0,0.0,0.0,0.0,0.0,0.0,0.0,0.0,0.0,0.0,0.0,0.0,0.0,0.0,0.0,0.0,0.0,0.0,0.0,0.0,0.0,0.0,0.0,0.0,0.0,0.0,0.0,0.0,0.0,0.0,0.0,0.0,0.0,0.0,0.0,0.0,0.0,0.0,0.0,0.0,0.0,0.0,0.0,0.0,0.0,0.0,0.0,0.0,0.0,0.0,0.0,0.0,0.0,0.0,0.0,0.0,0.0,0.0,0.0,0.0,0.0,0.0,0.0,0.0,0.0,0.0,0.0,0.0,0.0,0.0,0.0,0.0,0.0,0.0,0.0,0.0,0.0,0.0,0.0,0.0,0.0,0.0,0.0,0.0,0.0,0.0,0.0,0.0,0.0,0.0,0.0,0.0,0.0,0.0,0.0,0.0,0.0,0.0,0.0,0.0,0.0,0.0,0.0,0.0,0.0,0.0,0.0,0.0,0.0,0.0,0.0,0.0,0.0,0.0,0.0,0.0,0.0,0.0,0.0,0.0,0.0,0.0,0.0,0.0,0.0,0.0,0.0,0.0,0.0,0.0,0.0,0.0,0.0,0.0,0.0,0.0,0.0,0.0,0.0,0.0,0.0,0.0,0.0,0.0,0.0,0.0,0.0,0.0,0.0,0.0,0.0,0.0,0.0,0.0,0.0,0.0,0.0,0.0,0.0,0.0,0.0,0.0,0.0,0.0,0.0,0.0,0.0,0.0,0.0,0.0,0.0,0.0,0.0,0.0,0.0,0.0,0.0,0.0,0.0,0.0,0.0,0.0,0.0,0.0,0.0,0.0,0.0,0.0,0.0,0.0,0.0,0.0,0.0,0.0,0.0,0.0,0.0,0.0,0.0,0.0,0.0,0.0,0.0,0.0,0.0,0.0,0.0,0.0,0.0,0.0,0.0,0.0,0.0,0.0,0.0,0.0,0.0,0.0,0.0,0.0,0.0,0.0,0.0,0.0,0.0,0.0,0.0,0.0,0.0,0.0,0.0,0.0,0.0,0.0,0.0,0.0,0.0,0.0,0.0,0.0,0.0,0.0,0.0,0.0,0.0,0.0,0.0,0.0,0.0,0.0,0.0,0.0,0.0,0.0,0.0,0.0,0.0,0.0,0.0,0.0,0.0,0.0,0.0,0.0,0.0,0.0,0.0,0.0,0.0,0.0,0.0,0.0,0.0,0.0,0.0,0.0,0.0,0.0,0.0,0.0,0.0,0.0,0.0,0.0,0.0,0.0,0.0,0.0,0.0,0.0,0.0,0.0,0.0,0.0,0.0,0.0,0.0,0.0,0.0,0.0,0.0,0.0,0.0,0.0,0.0,0.0,0.0,0.0,0.0,0.0,0.0,0.0,0.0,0.0,0.0,0.0,0.0,0.0,0.0,0.0,0.0,0.0,0.0,0.0,0.0,0.0,0.0,0.0,0.0,0.0,0.0,0.0,0.0,0.0,0.0,0.0,0.0,0.0,0.0,0.0,0.0,0.0,0.0,0.0,0.0,0.0,0.0,0.0,0.0,0.0,0.0,0.0,0.0,0.0,0.0,0.0,0.0,0.0,0.0,0.0,0.0,0.0,0.0,0.0,0.0,0.0,0.0,0.0,0.0,0.0,0.0,0.0,0.0,0.0,0.0,0.0,0.0,0.0,0.0,0.0,0.0,0.0,0.0,0.0,0.0,0.0,0.0,0.0,0.0,0.0,0.0,0.0,0.0,0.0,0.0,0.0,0.0,0.0,0.0,0.0,0.0,0.0,0.0,0.0,0.0,0.0,0.0,0.0,0.0,0.0,0.0,0.0,0.0,0.0,0.0,0.0,0.0,0.0,0.0,0.0,0.0,0.0,0.0,0.0,0.0,0.0,0.0,0.0,0.0,0.0,0.0,0.0,0.0,0.0,0.0,0.0,0.0,0.0,0.0,0.0,0.0,0.0,0.0,0.0,0.0,0.0,0.0,0.0,0.0,0.0,0.0,0.0,0.0,0.0,0.0,0.0,0.0,0.0,0.0,0.0,0.0,0.0,0.0,0.0,0.0,0.0,0.0,0.0,0.0,0.0,0.0,0.0,0.0,0.0,0.0,0.0,0.0,0.0,0.0,0.0,0.0,0.0,0.0,0.0,0.0,0.0,0.0,0.0,0.0,0.0,0.0,0.0,0.0,0.0,0.0,0.0,0.0,0.0,0.0,0.0,0.0,0.0,0.0,0.0,0.0,0.0,0.0,0.0,0.0,0.0,0.0,0.0,0.0,0.0,0.0,0.0,0.0,0.0,0.0,0.0,0.0,0.0,0.0,0.0,0.0,0.0,0.0,0.0,0.0,0.0,0.0,0.0,0.0,0.0,0.0,0.0,0.0,0.0,0.0,0.0,0.0,0.0,0.0,0.0,0.0,0.0,0.0,0.0,0.0,0.0,0.0,0.0,0.0,0.0,0.0,0.0,0.0,0.0,0.0,0.0,0.0,0.0,0.0,0.0,0.0,0.0,0.0,0.0,0.0,0.0,0.0,0.0,0.0,0.0,0.0,0.0,0.0,0.0,0.0,0.0,0.0,0.0,0.0,0.0,0.0,0.0,0.0,0.0,0.0,0.0,0.0,0.0,0.0,0.0,0.0,0.0,0.0,0.0,0.0,0.0,0.0,0.0,0.0,0.0,0.0,0.0,0.0,0.0,0.0,0.0,0.0,0.0,0.0,0.0,0.0,0.0,0.0,0.0,0.0,0.0,0.0,0.0,0.0,0.0,0.0,0.0,0.0,0.0,0.0,0.0,0.0,0.0,0.0,0.0,0.0,0.0,0.0,0.0,0.0,0.0,0.0,0.0,0.0,0.0,0.0,0.0,0.0,0.0,0.0,0.0,0.0,0.0,0.0,0.8867,0.0,0.0,0.0,0.0,0.0,0.0,0.0,0.0,0.0,0.0,0.0,0.0,0.0,0.0,0.0,0.0,0.0,0.0,0.0,0.0,0.0,0.0,0.0,0.0,0.0,0.0,0.0,0.0,0.0,0.0,0.0,0.0,0.0,0.0,0.0,0.0,0.0,0.0,0.0,0.0,0.0,0.0,0.0,0.0,0.0,0.0,0.0,0.0,0.0,0.0,0.0,0.0,0.0,0.0,0.0,0.0,0.0,0.0,0.0,0.0,0.0,0.0,0.0,0.0,0.0,0.0,0.0,0.0,0.0,0.0,0.0,0.0,0.0,0.0,0.0,0.0,0.0,0.0,0.0,0.0,0.0,0.0,0.0,0.0,0.0,0.0,0.0,0.0,0.0,0.0,0.0,0.0,0.0,0.0,0.0,0.0,0.0,0.0,0.0,0.0,0.0,0.0,0.0,0.0,0.0,0.0,0.0,0.0,0.0,0.0,1.0311,1.0336,0.9812,0.9506,0.9405,0.0,0.0,0.0,0.0,0.0,0.0,0.0,0.0,0.0,0.0,0.0,0.0,0.0,0.0,0.0,0.0,0.0,0.0,0.0,0.0,0.0,0.0,0.0,0.0,0.0,0.0,0.0,0.0,0.0,0.0,0.0,0.0,0.0,0.0,0.0,0.0,0.0,0.0,0.0,0.0,0.0,0.0,0.0,0.0,0.0,0.0,0.0,0.0,0.0,0.0,0.0,0.0,0.0,0.0,0.0,0.0,0.0,0.0,0.0,0.0,0.0,0.0,0.0,0.0,0.0,0.0,0.0,0.0,0.0,0.0,0.0,0.0,0.0,0.0,0.0,0.0,0.0,0.0,0.0,0.0,0.0,0.0,0.0,0.0,0.0,0.0,0.0,0.0,0.0,0.0,0.0,0.0,0.0,0.0,0.0,0.0,0.0,0.0,0.0,0.0,0.0,0.0,0.0,0.0,0.0,0.0,0.0,0.0,0.0,0.0,0.0,0.0,1.0434,1.0044,0.9652,0.0,0.0,0.0,0.0,0.0,0.0,0.0,0.0,0.0,0.0,0.0,0.0,0.0,0.0,0.0,0.0,0.0,0.0,0.0,0.0,0.0,0.0,0.0,0.0,0.0,0.0,0.0,0.0,0.0,0.0,0.0,0.0,0.0,0.0,0.0,0.0,0.0,0.0,0.0,0.0,0.0,0.0,0.0,0.0,0.0,0.0,0.0,0.0,0.0,0.0,0.0,0.0,0.0,0.0,0.0,0.0,0.0,0.0,0.0,0.0,0.0,0.0,0.0,0.0,0.0,0.0,0.0,0.0,0.0,0.0,0.0,0.0,0.0,0.0,0.0,0.0,0.0,0.0,0.0,0.0,0.0,0.0,0.0,0.0,0.0,0.0,0.0,0.0,0.0,0.0,0.0,0.0,0.0,0.0,0.0,0.0,0.0,0.0,0.0,0.0,0.0,0.0,0.0,0.0,0.0,0.0,0.0,0.0,0.0,0.0,1.1569,1.1522,1.0894,0.0,0.9286,0.0,0.0,0.0,0.0,0.0,0.0,0.0,0.0,0.0,0.0,0.0,0.0,0.0,0.0,0.0,0.0,0.0,0.0,0.0,0.0,0.0,0.0,0.0,0.0,0.0,0.0,0.0,0.0,0.0,0.0,0.0,0.0,0.0,0.0,0.0,0.0,0.0,0.0,0.0,0.0,0.0,0.0,0.0,0.0,0.0,0.0,0.0,0.0,0.0,0.0,0.0,0.0,0.0,0.0,0.0,0.0,0.0,0.0,0.0,0.0,0.0,0.0,0.0,0.0,0.0,0.0,0.0,0.0,0.0,0.0,0.0,0.0,0.0,0.0,0.0,0.0,0.0,0.0,0.0,0.0,0.0,0.0,0.0,0.0,0.0,0.0,0.0,0.0,0.0,0.0,0.0,0.0,0.0,0.0,0.0,0.0,0.0,0.0,0.0,0.0,0.0,0.0,0.0,0.0,0.0,0.0,0.0,0.0,0.0,0.0,1.2082,1.2482,1.1683,1.0789,0.0,0.0,0.0,0.0,0.0,0.0,0.0,0.0,0.0,0.0,0.0,0.0,0.0,0.0,0.0,0.0,0.0,0.0,0.0,0.0,0.0,0.0,0.0,0.0,0.0,0.0,0.0,0.0,0.0,0.0,0.0,0.0,0.0,0.0,0.0,0.0,0.0,0.0,0.0,0.0,0.0,0.0,0.0,0.0,0.0,0.0,0.0,0.0,0.0,0.0,0.0,0.0,0.0,0.0,0.0,0.0,0.0,0.0,0.0,0.0,0.0,0.0,0.0,0.0,0.0,0.0,0.0,0.0,0.0,0.0,0.0,0.0,0.0,0.0,0.0,0.0,0.0,0.0,0.0,0.0,0.0,0.0,0.0,0.0,0.0,0.0,0.0,0.0,0.0,0.0,0.0,0.0,0.0,0.0,0.0,0.0,0.0,0.0,0.0,0.0,0.0,0.0,0.0,0.0,0.0,0.0,0.0,0.0,0.0,0.0,1.2257,0.0,1.3028,1.2177,1.1238,1.0253,0.0,0.0,0.0,0.0,0.0,0.0,0.0,0.0,0.0,0.0,0.0,0.0,0.0,0.0,0.0,0.0,0.0,0.0,0.0,0.0,0.0,0.0,0.0,0.0,0.0,0.0,0.0,0.0,0.0,0.0,0.0,0.0,0.0,0.0,0.0,0.0,0.0,0.0,0.0,0.0,0.0,0.0,0.0,0.0,0.0,0.0,0.0,0.0,0.0,0.0,0.0,0.0,0.0,0.0,0.0,0.0,0.0,0.0,0.0,0.0,0.0,0.0,0.0,0.0,0.0,0.0,0.0,0.0,0.0,0.0,0.0,0.0,0.0,0.0,0.0,0.0,0.0,0.0,0.0,0.0,0.0,0.0,0.0,0.0,0.0,0.0,0.0,0.0,0.0,0.0,0.0,0.0,0.0,0.0,0.0,0.0,0.0,0.0,0.0,0.0,0.0,0.0,0.0,0.0,0.0,0.0,0.0,0.0,0.0,1.2522,1.2886,1.31,1.2141,1.1281,0.0,0.0,0.0,0.0,0.0,0.0,0.0,0.0,0.0,0.0,0.0,0.0,0.0,0.0,0.0,0.0,0.0,0.0,0.0,0.0,0.0,0.0,0.0,0.0,0.0,0.0,0.0,0.0,0.0,0.0,0.0,0.0,0.0,0.0,0.0,0.0,0.0,0.0,0.0,0.0,0.0,0.0,0.0,0.0,0.0,0.0,0.0,0.0,0.0,0.0,0.0,0.0,0.0,0.0,0.0,0.0,0.0,0.0,0.0,0.0,0.0,0.0,0.0,0.0,0.0,0.0,0.0,0.0,0.0,0.0,0.0,0.0,0.0,0.0,0.0,0.0,0.0,0.0,0.0,0.0,0.0,0.0,0.0,0.0,0.0,0.0,0.0,0.0,0.0,0.0,0.0,0.0,0.0,0.0,0.0,0.0,0.0,0.0,0.0,0.0,0.0,0.0,0.0,0.0,0.0,0.0,0.0,0.0,0.0,1.2537,1.3326,1.3581,1.3268,1.2483,1.1594,0.0,0.0,0.0,0.0,0.0,0.0,0.0,0.0,0.0,0.0,0.0,0.0,0.0,0.0,0.0,0.0,0.0,0.0,0.0,0.0,0.0,0.0,0.0,0.0,0.0,0.0,0.0,0.0,0.0,0.0,0.0,0.0,0.0,0.0,0.0,0.0,0.0,0.0,0.0,0.0,0.0,0.0,0.0,0.0,0.0,0.0,0.0,0.0,0.0,0.0,0.0,0.0,0.0,0.0,0.0,0.0,0.0,0.0,0.0,0.0,0.0,0.0,0.0,0.0,0.0,0.0,0.0,0.0,0.0,0.0,0.0,0.0,0.0,0.0,0.0,0.0,0.0,0.0,0.0,0.0,0.0,0.0,0.0,0.0,0.0,0.0,0.0,0.0,0.0,0.0,0.0,0.0,0.0,0.0,0.0,0.0,0.0,0.0,0.0,0.0,0.0,0.0,0.0,0.0,0.0,0.0,0.0,0.0,0.0,1.2845,0.0,1.3923,0.0,1.2761,1.1825,0.0,0.0,0.0,0.0,0.0,0.0,0.0,0.0,0.0,0.0,0.0,0.0,0.0,0.0,0.0,0.0,0.0,0.0,0.0,0.0,0.0,0.0,0.0,0.0,0.0,0.0,0.0,0.0,0.0,0.0,0.0,0.0,0.0,0.0,0.0,0.0,0.0,0.0,0.0,0.0,0.0,0.0,0.0,0.0,0.0,0.0,0.0,0.0,0.0,0.0,0.0,0.0,0.0,0.0,0.0,0.0,0.0,0.0,0.0,0.0,0.0,0.0,0.0,0.0,0.0,0.0,0.0,0.0,0.0,0.0,0.0,0.0,0.0,0.0,0.0,0.0,0.0,0.0,0.0,0.0,0.0,0.0,0.0,0.0,0.0,0.0,0.0,0.0,0.0,0.0,0.0,0.0,0.0,0.0,0.0,0.0,0.0,0.0,0.0,0.0,0.0,0.0,0.0,0.0,0.0,0.0,0.0,0.0,1.1917,1.3082,1.3558,1.3997,1.4169,1.2862,1.1972,0.0,0.0,0.0,0.0,0.0,0.0,0.0,0.0,0.0,0.0,0.0,0.0,0.0,0.0,0.0,0.0,0.0,0.0,0.0,0.0,0.0,0.0,0.0,0.0,0.0,0.0,0.0,0.0,0.0,0.0,0.0,0.0,0.0,0.0,0.0,0.0,0.0,0.0,0.0,0.0,0.0,0.0,0.0,0.0,0.0,0.0,0.0,0.0,0.0,0.0,0.0,0.0,0.0,0.0,0.0,0.0,0.0,0.0,0.0,0.0,0.0,0.0,0.0,0.0,0.0,0.0,0.0,0.0,0.0,0.0,0.0,0.0,0.0,0.0,0.0,0.0,0.0,0.0,0.0,0.0,0.0,0.0,0.0,0.0,0.0,0.0,0.0,0.0,0.0,0.0,0.0,0.0,0.0,0.0,0.0,0.0,0.0,0.0,0.0,0.0,0.0,0.0,0.0,0.0,0.0,0.0,0.0,0.0,0.0,1.3846,1.4427,1.4762,1.4654,1.359,1.2515,0.0,0.0,0.0,0.0,0.0,0.0,0.0,0.0,0.0,0.0,0.0,0.0,0.0,0.0,0.0,0.0,0.0,0.0,0.0,0.0,0.0,0.0,0.0,0.0,0.0,0.0,0.0,0.0,0.0,0.0,0.0,0.0,0.0,0.0,0.0,0.0,0.0,0.0,0.0,0.0,0.0,0.0,0.0,0.0,0.0,0.0,0.0,0.0,0.0,0.0,0.0,0.0,0.0,0.0,0.0,0.0,0.0,0.0,0.0,0.0,0.0,0.0,0.0,0.0,0.0,0.0,0.0,0.0,0.0,0.0,0.0,0.0,0.0,0.0,0.0,0.0,0.0,0.0,0.0,0.0,0.0,0.0,0.0,0.0,0.0,0.0,0.0,0.0,0.0,0.0,0.0,0.0,0.0,0.0,0.0,0.0,0.0,0.0,0.0,0.0,0.0,0.0,0.0,0.0,0.0,0.0,0.0,0.0,0.0,1.47,1.5133,1.5315,1.5133,1.4116,1.298,1.1843,0.0,0.0,0.0,0.0,0.0,0.0,0.0,0.0,0.0,0.0,0.0,0.0,0.0,0.0,0.0,0.0,0.0,0.0,0.0,0.0,0.0,0.0,0.0,0.0,0.0,0.0,0.0,0.0,0.0,0.0,0.0,0.0,0.0,0.0,0.0,0.0,0.0,0.0,0.0,0.0,0.0,0.0,0.0,0.0,0.0,0.0,0.0,0.0,0.0,0.0,0.0,0.0,0.0,0.0,0.0,0.0,0.0,0.0,0.0,0.0,0.0,0.0,0.0,0.0,0.0,0.0,0.0,0.0,0.0,0.0,0.0,0.0,0.0,0.0,0.0,0.0,0.0,0.0,0.0,0.0,0.0,0.0,0.0,0.0,0.0,0.0,0.0,0.0,0.0,0.0,0.0,0.0,0.0,0.0,0.0,0.0,0.0,0.0,0.0,0.0,0.0,0.0,0.0,0.0,0.0,0.0,0.0,0.0,1.5491,1.5673,1.5717,1.5549,1.4467,1.3394,0.0,0.0,0.0,0.0,0.0,0.0,0.0,0.0,0.0,0.0,0.0,0.0,0.0,0.0,0.0,0.0,0.0,0.0,0.0,0.0,0.0,0.0,0.0,0.0,0.0,0.0,0.0,0.0,0.0,0.0,0.0,0.0,0.0,0.0,0.0,0.0,0.0,0.0,0.0,0.0,0.0,0.0,0.0,0.0,0.0,0.0,0.0,0.0,0.0,0.0,0.0,0.0,0.0,0.0,0.0,0.0,0.0,0.0,0.0,0.0,0.0,0.0,0.0,0.0,0.0,0.0,0.0,0.0,0.0,0.0,0.0,0.0,0.0,0.0,0.0,0.0,0.0,0.0,0.0,0.0,0.0,0.0,0.0,0.0,0.0,0.0,0.0,0.0,0.0,0.0,0.0,0.0,0.0,0.0,0.0,0.0,0.0,0.0,0.0,0.0,0.0,0.0,0.0,0.0,0.0,0.0,0.0,0.0,0.0,1.5943,1.6227,1.6262,1.5999,1.4987,1.3731,0.0,0.0,0.0,0.0,0.0,0.0,0.0,0.0,0.0,0.0,0.0,0.0,0.0,0.0,0.0,0.0,0.0,0.0,0.0,0.0,0.0,0.0,0.0,0.0,0.0,0.0,0.0,0.0,0.0,0.0,0.0,0.0,0.0,0.0,0.0,0.0,0.0,0.0,0.0,0.0,0.0,0.0,0.0,0.0,0.0,0.0,0.0,0.0,0.0,0.0,0.0,0.0,0.0,0.0,0.0,0.0,0.0,0.0,0.0,0.0,0.0,0.0,0.0,0.0,0.0,0.0,0.0,0.0,0.0,0.0,0.0,0.0,0.0,0.0,0.0,0.0,0.0,0.0,0.0,0.0,0.0,0.0,0.0,0.0,0.0,0.0,0.0,0.0,0.0,0.0,0.0,0.0,0.0,0.0,0.0,0.0,0.0,0.0,0.0,0.0,0.0,0.0,0.0,0.0,0.0,0.0,0.0,0.0,1.4939,1.5881,1.6256,1.6398,1.6223,1.5381,1.4157,0.0,0.0,0.0,0.0,0.0,0.0,0.0,0.0,0.0,0.0,0.0,0.0,0.0,0.0,0.0,0.0,0.0,0.0,0.0,0.0,0.0,0.0,0.0,0.0,0.0,0.0,0.0,0.0,0.0,0.0,0.0,0.0,0.0,0.0,0.0,0.0,0.0,0.0,0.0,0.0,0.0,0.0,0.0,0.0,0.0,0.0,0.0,0.0,0.0,0.0,0.0,0.0,0.0,0.0,0.0,0.0,0.0,0.0,0.0,0.0,0.0,0.0,0.0,0.0,0.0,0.0,0.0,0.0,0.0,0.0,0.0,0.0,0.0,0.0,0.0,0.0,0.0,0.0,0.0,0.0,0.0,0.0,0.0,0.0,0.0,0.0,0.0,0.0,0.0,0.0,0.0,0.0,0.0,0.0,0.0,0.0,0.0,0.0,0.0,0.0,0.0,0.0,0.0,0.0,0.0,0.0,0.0,0.0,1.4909,1.5564,1.6023,1.6295,1.6251,1.5659,1.4492,0.0,0.0,0.0,0.0,0.0,0.0,0.0,0.0,0.0,0.0,0.0,0.0,0.0,0.0,0.0,0.0,0.0,0.0,0.0,0.0,0.0,0.0,0.0,0.0,0.0,0.0,0.0,0.0,0.0,0.0,0.0,0.0,0.0,0.0,0.0,0.0,0.0,0.0,0.0,0.0,0.0,0.0,0.0,0.0,0.0,0.0,0.0,0.0,0.0,0.0,0.0,0.0,0.0,0.0,0.0,0.0,0.0,0.0,0.0,0.0,0.0,0.0,0.0,0.0,0.0,0.0,0.0,0.0,0.0,0.0,0.0,0.0,0.0,0.0,0.0,0.0,0.0,0.0,0.0,0.0,0.0,0.0,0.0,0.0,0.0,0.0,0.0,0.0,0.0,0.0,0.0,0.0,0.0,0.0,0.0,0.0,0.0,0.0,0.0,0.0,0.0,0.0,0.0,0.0,0.0,0.0,0.0,0.0,1.4665,1.6031,1.6097,1.6171,1.6292,1.5483,1.4357,0.0,0.0,0.0,0.0,0.0,0.0,0.0,0.0,0.0,0.0,0.0,0.0,0.0,0.0,0.0,0.0,0.0,0.0,0.0,0.0,0.0,0.0,0.0,0.0,0.0,0.0,0.0,0.0,0.0,0.0,0.0,0.0,0.0,0.0,0.0,0.0,0.0,0.0,0.0,0.0,0.0,0.0,0.0,0.0,0.0,0.0,0.0,0.0,1.495,0.0,0.0,0.0,0.0,0.0,0.0,0.0,0.0,0.0,0.0,0.0,0.0,0.0,0.0,0.0,0.0,0.0,0.0,0.0,0.0,0.0,0.0,0.0,0.0,0.0,0.0,0.0,0.0,0.0,0.0,0.0,0.0,0.0,0.0,0.0,0.0,0.0,0.0,0.0,0.0,0.0,0.0,0.0,0.0,0.0,0.0,0.0,0.0,0.0,0.0,0.0,0.0,0.0,0.0,0.0,0.0,0.0,0.0,0.0,1.4809,1.585,1.6073,1.6211,1.6267,1.552,1.4464,0.0,0.0,0.0,0.0,0.0,0.0,0.0,0.0,0.0,0.0,0.0,0.0,0.0,0.0,0.0,0.0,0.0,0.0,0.0,0.0,0.0,0.0,0.0,0.0,0.0,0.0,0.0,0.0,0.0,0.0,0.0,0.0,0.0,0.0,0.0,0.0,0.0,0.0,0.0,0.0,0.0,0.0,0.0,0.0,0.0,0.0,0.0,0.0,0.0,0.0,0.0,0.0,0.0,0.0,0.0,0.0,0.0,0.0,0.0,0.0,0.0,0.0,0.0,0.0,0.0,0.0,0.0,0.0,0.0,0.0,0.0,0.0,0.0,0.0,0.0,0.0,0.0,0.0,0.0,0.0,0.0,0.0,0.0,0.0,0.0,0.0,0.0,0.0,0.0,0.0,0.0,0.0,0.0,0.0,0.0,0.0,0.0,0.0,0.0,0.0,0.0,0.0,0.0,0.0,0.0,0.0,0.0,1.3997,1.4952,1.5528,1.6016,1.6259,1.6251,1.5545,1.4586,1.336,0.0,0.0,0.0,0.0,0.0,0.0,0.0,0.0,0.0,0.0,0.0,0.0,0.0,0.0,0.0,0.0,0.0,0.0,0.0,0.0,0.0,0.0,0.0,0.0,0.0,0.0,0.0,0.0,0.0,0.0,0.0,0.0,0.0,0.0,0.0,0.0,0.0,0.0,1.5383,1.5769,0.0,0.0,0.0,0.0,0.0,0.0,0.0,0.0,1.5903,0.0,0.0,0.0,0.0,0.0,0.0,0.0,0.0,0.0,0.0,0.0,0.0,0.0,0.0,0.0,0.0,0.0,0.0,0.0,0.0,0.0,0.0,0.0,0.0,0.0,0.0,0.0,0.0,0.0,0.0,0.0,0.0,0.0,0.0,0.0,0.0,0.0,0.0,0.0,0.0,0.0,0.0,0.0,0.0,0.0,0.0,0.0,0.0,0.0,0.0,0.0,0.0,0.0,0.0,0.0,0.0,1.2956,1.3891,1.4898,1.5707,1.5959,1.6006,1.5982,1.5244,1.4278,1.3165,0.0,0.0,0.0,0.0,0.0,0.0,0.0,0.0,0.0,0.0,0.0,0.0,0.0,0.0,0.0,0.0,0.0,0.0,0.0,0.0,0.0,0.0,0.0,0.0,0.0,0.0,0.0,0.0,0.0,0.0,0.0,0.0,0.0,0.0,0.0,0.0,0.0,0.0,0.0,1.596,1.5909,0.0,0.0,0.0,0.0,0.0,0.0,0.0,0.0,1.5607,0.0,0.0,0.0,0.0,0.0,0.0,0.0,0.0,0.0,0.0,0.0,0.0,0.0,0.0,0.0,0.0,0.0,0.0,0.0,0.0,0.0,0.0,0.0,0.0,0.0,0.0,0.0,0.0,0.0,0.0,0.0,0.0,0.0,0.0,0.0,0.0,0.0,0.0,0.0,0.0,0.0,0.0,0.0,0.0,0.0,0.0,0.0,0.0,0.0,0.0,0.0,0.0,0.0,0.0,0.0,1.2564,1.3435,1.4345,1.5101,1.5298,1.5435,1.5494,1.4829,1.4122,0.0,0.0,0.0,0.0,0.0,0.0,0.0,0.0,0.0,0.0,0.0,0.0,0.0,0.0,0.0,0.0,0.0,0.0,0.0,0.0,0.0,0.0,0.0,0.0,0.0,0.0,0.0,0.0,0.0,0.0,0.0,0.0,0.0,0.0,0.0,0.0,0.0,0.0,0.0,0.0,1.6003,1.6165,1.607,0.0,0.0,0.0,0.0,0.0,0.0,1.5526,1.5544,0.0,0.0,0.0,0.0,0.0,0.0,0.0,0.0,0.0,0.0,0.0,0.0,0.0,0.0,0.0,0.0,0.0,0.0,0.0,0.0,0.0,0.0,0.0,0.0,0.0,0.0,0.0,0.0,0.0,0.0,0.0,0.0,0.0,0.0,0.0,0.0,0.0,0.0,0.0,0.0,0.0,0.0,0.0,0.0,0.0,0.0,0.0,0.0,0.0,0.0,0.0,0.0,0.0,0.0,0.0,1.2153,1.3034,1.3849,1.446,1.4795,1.4863,1.4877,1.4368,1.3707,0.0,0.0,0.0,0.0,0.0,0.0,0.0,0.0,0.0,0.0,0.0,0.0,0.0,0.0,0.0,0.0,0.0,0.0,0.0,0.0,0.0,0.0,0.0,0.0,0.0,0.0,0.0,0.0,0.0,0.0,0.0,0.0,0.0,0.0,0.0,0.0,0.0,0.0,0.0,0.0,0.0,1.6233,1.6511,1.6175,0.0,0.0,0.0,0.0,1.5441,1.5584,0.0,0.0,0.0,0.0,0.0,0.0,0.0,0.0,0.0,0.0,0.0,0.0,0.0,0.0,0.0,0.0,0.0,0.0,0.0,0.0,0.0,0.0,0.0,0.0,0.0,0.0,0.0,0.0,0.0,0.0,0.0,0.0,0.0,0.0,0.0,0.0,0.0,0.0,0.0,0.0,0.0,0.0,0.0,0.0,0.0,0.0,0.0,0.0,0.0,0.0,0.0,0.0,0.0,0.0,0.0,0.0,1.1993,1.3133,1.396,1.4467,1.4803,1.4668,1.4129,1.3641,1.2645,0.0,0.0,0.0,0.0,0.0,0.0,0.0,0.0,0.0,0.0,0.0,0.0,0.0,0.0,0.0,0.0,0.0,0.0,0.0,0.0,0.0,0.0,0.0,0.0,0.0,0.0,0.0,0.0,0.0,0.0,0.0,0.0,0.0,0.0,0.0,0.0,0.0,0.0,0.0,0.0,0.0,1.5934,1.6462,1.5965,1.5609,0.0,0.0,1.5544,1.5711,1.5547,0.0,0.0,0.0,0.0,0.0,0.0,0.0,0.0,0.0,0.0,0.0,0.0,0.0,0.0,0.0,0.0,0.0,0.0,0.0,0.0,0.0,0.0,0.0,0.0,0.0,0.0,0.0,0.0,0.0,0.0,0.0,0.0,0.0,0.0,0.0,0.0,0.0,0.0,0.0,0.0,0.0,0.0,0.0,0.0,0.0,0.0,0.0,0.0,0.0,0.0,0.0,0.0,0.0,0.0,0.0,1.0762,1.1999,1.2707,1.3311,1.3863,1.4182,1.4123,1.3735,1.3264,1.2466,0.0,0.0,0.0,0.0,0.0,0.0,0.0,0.0,0.0,0.0,0.0,0.0,0.0,0.0,0.0,0.0,0.0,0.0,0.0,0.0,0.0,0.0,0.0,0.0,0.0,0.0,0.0,0.0,0.0,0.0,0.0,0.0,0.0,0.0,0.0,0.0,0.0,0.0,0.0,0.0,0.0,0.0,1.6353,1.6198,0.0,0.0,0.0,1.6,1.6085,0.0,0.0,0.0,0.0,0.0,0.0,0.0,0.0,0.0,0.0,0.0,0.0,0.0,0.0,0.0,0.0,0.0,0.0,0.0,0.0,0.0,0.0,0.0,0.0,0.0,0.0,0.0,0.0,0.0,0.0,0.0,0.0,0.0,0.0,0.0,0.0,0.0,0.0,0.0,0.0,0.0,0.0,0.0,0.0,0.0,0.0,0.0,0.0,0.0,0.0,0.0,0.0,0.0,0.0,0.0,0.0,0.0,1.1944,1.2354,1.2793,1.3383,1.3654,1.3582,1.3387,1.2888,0.0,0.0,0.0,0.0,0.0,0.0,0.0,0.0,0.0,0.0,0.0,0.0,0.0,0.0,0.0,0.0,0.0,0.0,0.0,0.0,0.0,0.0,0.0,0.0,0.0,0.0,0.0,0.8723,0.0,0.0,0.0,0.0,0.0,0.0,0.0,0.0,0.0,0.0,0.0,0.0,0.0,0.0,1.5843,1.6424,1.6461,1.655,0.0,0.0,1.646,1.646,1.6176,1.5864,0.0,0.0,0.0,0.0,0.0,0.0,0.0,0.0,0.0,0.0,0.0,0.0,0.0,0.0,0.0,0.0,0.0,0.0,0.0,0.0,0.0,0.0,0.0,0.0,0.0,0.0,0.0,0.0,0.0,0.0,0.0,0.0,0.0,0.0,0.0,0.0,0.0,0.0,0.0,0.0,0.0,0.0,0.0,0.0,0.0,0.0,0.0,0.0,0.0,0.0,0.0,0.0,0.0,0.0,0.0,1.1579,1.2203,1.2793,1.3383,1.3559,1.3356,1.2766,1.2454,1.1678,0.0,0.0,0.0,0.0,0.0,0.0,0.0,0.0,0.0,0.0,0.0,0.0,0.0,0.0,0.0,0.0,0.0,0.0,0.0,0.0,0.0,0.0,0.0,0.0,0.0,0.0,0.0,0.0,0.0,0.0,0.0,0.0,0.0,0.0,0.0,0.0,0.0,0.0,0.0,0.0,0.0,1.5861,1.6774,1.6806,1.6836,0.0,0.0,1.6779,1.6779,1.6202,1.5649,1.511,0.0,0.0,0.0,0.0,0.0,0.0,0.0,0.0,0.0,0.0,0.0,0.0,0.0,0.0,0.0,0.0,0.0,0.0,0.0,0.0,0.0,0.0,0.0,0.0,0.0,0.0,0.0,0.0,0.0,0.0,0.0,0.0,0.0,0.0,0.0,0.0,0.0,0.0,0.0,0.0,0.0,0.0,0.0,0.0,0.0,0.0,0.0,0.0,0.0,0.0,0.0,0.0,0.0,1.032,1.1728,1.2338,1.2888,1.3383,1.3634,1.3478,1.2888,1.2671,1.1986,0.0,0.0,0.0,0.0,0.0,0.0,0.0,0.0,0.0,0.0,0.0,0.0,0.0,0.0,0.0,0.0,0.0,0.0,0.0,0.0,0.0,0.0,0.0,0.0,0.0,0.0,0.0,0.0,1.0217,1.0379,1.0517,0.0,0.0,0.0,0.0,0.0,0.0,0.0,0.0,0.0,0.0,1.6375,1.6806,1.7135,0.0,0.0,1.7291,1.7145,1.7031,1.6592,1.6089,1.5553,1.453,0.0,0.0,0.0,0.0,0.0,0.0,0.0,0.0,0.0,0.0,0.0,0.0,0.0,0.0,0.0,0.0,0.0,0.0,0.0,0.0,0.0,0.0,0.0,0.0,0.0,0.0,0.0,0.0,0.0,0.0,0.0,0.0,0.0,0.0,0.0,0.0,0.0,0.0,0.0,0.0,0.0,0.0,0.0,0.0,0.0,0.0,0.0,0.0,0.0,0.0,0.0,0.0,1.0432,1.1743,1.2427,1.2949,1.3397,1.3648,1.3532,1.3044,1.2874,1.2325,0.0,0.0,0.0,0.0,0.0,0.0,0.0,0.0,0.0,0.0,0.0,0.0,0.0,0.0,0.0,0.0,0.0,0.0,0.0,0.0,0.0,0.0,0.0,0.0,0.0,0.0,0.0,0.0,1.0431,1.0599,1.0599,0.0,0.0,0.0,0.0,0.0,0.0,0.0,0.0,0.0,0.0,1.674,1.684,1.7232,1.7528,1.7345,1.7203,1.7029,1.6855,1.6451,1.6008,1.5589,0.0,0.0,0.0,0.0,0.0,0.0,0.0,0.0,0.0,0.0,0.0,0.0,0.0,0.0,0.0,0.0,0.0,0.0,0.0,0.0,0.0,0.0,0.0,0.0,0.0,0.0,0.0,1.0532,0.0,0.0,0.877,0.0,0.0,0.0,0.0,0.0,0.0,0.0,0.0,0.0,0.0,0.0,0.0,0.0,0.0,0.0,0.0,0.0,0.0,0.0,0.0,0.0,0.0,1.0636,1.1816,1.2427,1.2949,1.339,1.3553,1.3492,1.3173,1.303,1.2535,1.1633,0.0,0.0,0.0,0.0,0.0,0.0,0.0,0.0,0.0,0.0,0.0,0.0,0.0,0.0,0.0,0.0,0.0,0.0,0.0,0.0,0.0,0.0,0.0,0.0,0.0,0.0,1.0202,1.0683,1.0956,0.0,0.0,0.0,0.0,0.0,0.0,0.0,0.0,0.0,0.0,1.6267,1.6856,1.692,1.7203,1.7219,1.6845,1.6617,1.646,1.628,1.5725,1.516,0.0,0.0,0.0,0.0,0.0,0.0,0.0,0.0,0.0,0.0,0.0,0.0,0.0,0.0,0.0,0.0,0.0,0.0,0.0,0.0,0.0,0.0,0.0,0.0,0.0,0.0,0.0,1.0877,1.0321,0.0,0.0,0.0,0.0,0.0,0.0,0.0,0.0,0.0,0.0,0.0,1.142,1.109,0.0,0.0,0.0,0.0,0.0,0.0,0.0,0.0,0.0,0.0,0.0,0.0,1.0887,1.1952,1.2576,1.3051,1.339,1.3641,1.358,1.3186,1.3322,1.2888,1.1789,0.0,0.0,0.0,0.0,0.0,0.0,0.0,0.0,0.0,0.0,0.0,0.0,0.0,0.0,0.0,0.0,0.0,0.0,0.0,0.0,0.0,0.0,0.0,0.0,0.0,0.9742,0.0,0.0,0.0,0.0,0.0,0.0,0.0,0.0,0.0,0.0,0.0,1.482,1.5279,1.6011,1.6537,1.6521,1.6825,1.6868,0.0,0.0,0.0,0.0,0.0,0.0,0.0,0.0,0.0,0.0,0.0,0.0,0.0,0.0,1.4034,1.3734,1.3745,1.3745,1.3667,0.0,0.0,0.0,0.0,0.0,0.0,0.0,0.0,0.0,0.0,0.0,0.0,0.0,0.0,1.1663,0.0,1.0488,0.0,0.0,0.0,0.0,0.0,0.0,0.0,0.0,1.1902,1.2194,1.2433,1.2305,1.2081,0.0,1.1735,1.1023,0.0,0.0,0.0,0.0,0.0,0.0,0.0,0.0,1.1165,1.2121,1.2705,1.3152,1.3397,1.3641,1.36,1.3268,1.3342,1.2976,1.2094,1.1301,1.0588,0.0,0.0,0.0,0.0,0.0,0.0,0.0,0.0,0.0,0.0,0.0,0.0,0.0,0.0,0.0,0.0,0.0,0.0,0.0,0.0,0.0,0.0,0.0,0.9931,0.0,0.0,0.0,0.0,0.0,0.0,0.0,0.0,0.0,1.3665,1.4567,1.5315,1.5705,1.6165,1.6454,1.6319,0.0,0.0,0.0,0.0,0.0,0.0,0.0,1.5427,1.5427,1.5194,1.5084,1.5195,1.5059,1.5011,1.5113,0.0,0.0,1.4743,1.4643,1.4557,1.4557,1.4643,1.4743,1.4842,1.4985,1.5127,0.0,0.0,0.0,0.0,0.0,0.0,0.0,0.0,1.3494,1.3111,0.0,1.1681,0.0,0.0,0.0,0.0,0.0,1.1077,0.0,0.0,1.2569,1.2929,1.3227,1.3356,1.3275,1.3003,1.284,1.2528,1.202,1.0493,0.0,0.0,0.0,0.0,0.0,0.0,1.1555,1.2094,1.2807,1.3247,1.3403,1.3559,1.3566,1.3417,1.3132,1.284,1.2522,1.1952,1.1436,1.0921,0.9998,0.0,0.0,0.0,0.0,0.0,0.0,0.0,0.0,0.0,0.0,0.0,0.0,0.0,0.0,0.0,0.0,0.0,0.0,0.0,0.0,0.9523,0.0,0.0,0.0,0.0,0.0,0.0,0.0,0.0,0.0,0.0,1.4355,1.5101,1.5898,1.6435,0.0,0.0,0.0,0.0,1.5765,1.5302,1.5194,1.5187,1.5194,1.5079,1.5179,1.5364,0.0,0.0,1.5615,1.5784,1.5872,1.5978,1.5995,1.5927,1.5343,1.5281,1.5268,1.5187,1.5275,1.5208,1.5228,1.5411,1.552,1.3805,0.0,0.0,0.0,0.0,1.3528,1.3641,1.3683,1.3807,1.3576,1.2965,1.2539,0.0,0.0,0.0,0.0,0.0,0.0,1.2858,1.3492,1.3627,1.3899,1.4278,1.4122,1.3994,1.3912,1.3763,1.3512,1.3152,1.2386,1.1504,1.0541,0.0,0.0,0.0,0.0,1.2047,1.2528,1.2956,1.3295,1.3559,1.3709,1.3671,1.3715,1.3322,1.3071,1.2983,1.2508,1.2094,1.1748,1.105,0.0,0.0,0.0,0.0,0.0,0.0,0.0,0.0,0.0,0.0,0.0,0.0,0.0,0.0,0.0,0.0,0.0,0.0,0.0,0.9924,1.0395,1.0702,0.0,0.0,0.0,0.0,0.0,0.0,0.0,0.0,0.0,1.5403,1.583,1.6102,0.0,0.0,1.6147,1.5787,1.5725,1.5602,1.5506,1.5418,0.0,1.5493,1.5472,1.5513,1.5696,1.5866,1.6049,1.6232,1.6395,1.649,1.649,1.6619,1.6659,1.649,1.611,1.5886,1.5954,1.5988,1.6022,1.6117,1.6178,1.6198,1.4744,1.421,1.3903,1.3736,1.3891,1.4146,1.4259,1.4242,1.4388,1.4253,1.3777,1.3485,1.3186,1.2888,1.2651,0.0,0.0,0.0,1.3763,1.4251,1.4373,1.457,1.4814,1.4706,1.4618,1.4563,1.4475,1.4272,1.3973,1.3648,1.3098,1.2305,0.0,0.0,1.1667,1.2101,1.2515,1.2901,1.3254,1.3498,1.3627,1.3654,1.3695,1.3749,1.3437,1.3234,1.3173,1.2861,1.2549,1.2244,1.1667,1.0907,0.0,0.0,0.0,0.0,0.0,0.0,0.0,0.0,0.0,0.0,0.0,0.8499,0.9266,0.0,0.0,0.0,1.0026,1.0344,1.0962,1.1246,0.0,0.0,0.0,0.0,0.0,0.0,0.0,1.4523,1.5025,1.552,1.6042,1.6289,1.6381,1.6117,1.6151,1.611,1.5927,0.0,1.5811,1.5811,1.5791,1.5798,1.5886,1.5954,1.6035,1.6185,1.6408,1.6598,1.6686,1.6781,1.6836,1.6849,1.6917,1.6978,1.6978,1.668,1.6463,1.6558,1.6578,1.6605,1.6686,1.6707,1.67,1.5499,1.5438,1.4746,1.4502,1.4597,1.4746,1.4889,1.5031,1.516,1.5065,1.4794,1.4509,1.4224,1.3939,1.381,0.0,1.396,1.4238,1.4441,1.4577,1.4862,1.4984,1.4991,1.512,1.5113,1.4984,1.4991,1.4841,1.4563,1.4407,1.4265,1.4089,1.2712,1.206,1.2182,1.2576,1.2915,1.3193,1.3607,1.3763,1.3648,1.3505,1.3498,1.3627,1.3471,1.3233,1.318,1.2956,1.2748,1.2444,1.1912,1.1339,1.0658,0.0,0.0,0.0,0.0,0.0,0.0,0.0,0.0,0.0,0.0,0.0,0.0,0.0,0.0,0.0,1.1124,0.0,1.1932,1.2121,0.0,0.0,0.0,1.3559,1.4136,1.4455,1.4763,1.5336,0.0,0.0,1.6401,1.6473,1.6507,1.6475,1.6334,1.6341,1.6327,1.6205,1.6117,1.6117,1.6232,1.6327,1.6327,1.6442,1.6571,1.67,1.689,1.6951,1.6958,1.6965,1.6978,1.6971,1.6978,1.6978,1.6978,1.6951,1.6978,1.6951,1.6958,1.6965,1.6958,1.6951,1.6951,1.6259,1.6232,1.5947,1.5588,1.5215,1.5357,1.5445,1.5486,1.5513,1.5493,1.5411,1.5228,1.5038,1.4862,1.4828,1.4835,1.4869,1.4936,1.4991,1.5025,1.5092,1.5133,1.5133,1.5167,1.5167,1.5133,1.5133,1.5092,1.5011,1.476,1.4618,1.4543,1.3878,1.339,1.3098,1.3186,1.3275,1.3349,1.3566,1.3715,1.3783,1.3756,1.3702,1.3634,1.3032,1.2798,1.2765,1.2311,1.1911,1.1742,1.1503,1.1082,1.036,0.9817,0.0,0.0,0.0,0.0,0.0,0.0,0.0,0.0,0.0,1.0344,1.1382,0.0,1.1843,0.0,1.2244,1.2589,1.3146,1.3437,0.0,0.0,1.4543,1.4848,1.5221,1.5142,1.5159,1.5616,1.5411,1.5384,1.5584,1.5635,1.5641,1.561,1.6112,1.6598,1.649,1.6442,1.6415,1.6415,1.6449,1.6517,1.6625,1.6775,1.6876,1.6917,1.6958,1.6978,1.6978,1.6978,1.6978,1.6978,1.6978,1.6978,1.6978,1.6978,1.6978,1.6978,1.6978,1.6978,1.6978,1.6978,1.6978,1.6517,1.651,1.6435,1.6171,1.5811,1.5832,1.5839,1.5839,1.5839,1.5839,1.5825,1.5676,1.5527,1.5391,1.5384,1.5343,1.5282,1.5282,1.5248,1.5181,1.5181,1.5181,1.5181,1.4993,1.4805,1.4805,1.4623,1.4529,1.4516,1.4367,1.4289,1.4283,1.3926,1.35,1.2952,1.3186,1.3146,1.292,1.3056,1.3193,1.3322,1.3126,1.2997,1.2939,1.2307,1.1944,1.1764,1.1293,1.0955,1.0748,1.0614,1.0387,0.996,0.9515,0.8972,0.0,0.0,0.0,0.0,0.0,0.0,0.0,0.0,0.0,0.0,0.0,1.2298,1.2625,1.2785,1.3047,1.3483,1.381,1.4113,1.4532,1.4719,1.4853,1.4994,1.4861,1.4729,1.4728,1.4609,1.4464,1.4534,1.4546,1.4546,1.454,1.5006,1.5455,1.5912,1.5996,1.5996,1.6306,1.6306,1.6437,1.6738,1.6924,1.6978,1.6978,1.6978,1.6978,1.6978,1.6978,1.6978,1.6978,1.6978,1.6978,1.6978,1.6978,1.6978,1.6978,1.6978,1.6978,1.6978,1.6978,1.6978,1.6578,1.6578,1.6558,1.6476,1.6354,1.6185,1.6103,1.6083,1.6083,1.6083,1.6076,1.594,1.5811,1.5696,1.5696,1.5601,1.5445,1.5438,1.5343,1.5087,1.5087,1.4993,1.4899,1.4429,1.4146,1.414,1.3682,1.3499,1.3499,1.3499,1.3493,1.3481,1.324,1.2774,1.2176,1.2535,1.2539,1.2155,1.2282,1.2385,1.2463,1.216,1.1975,1.1908,1.1341,1.0947,1.0554,1.0191,0.9898,0.9791,0.9623,0.9569,0.9392,0.905,0.8652,0.0,0.8143,0.0,0.0,0.0,0.0,0.0,0.0,0.0,0.0,1.1885,1.2336,1.2823,1.2972,1.3144,1.34,1.3548,1.3768,1.4219,1.4279,1.4225,1.4129,1.407,1.3901,1.358,1.338,1.338,1.338,1.338,1.338,1.338,1.3375,1.3791,1.4645,1.4955,1.5159,1.571,1.5815,1.5994,1.6538,1.6656,1.6768,1.6768,1.6768,1.6873,1.6873,1.6978,1.6978,1.6978,1.6978,1.6978,1.6978,1.6978,1.6978,1.6978,1.6978,1.6978,1.6978,1.6978,1.6978,1.689,1.6883,1.6754,1.6693,1.6646,1.6381,1.6191,1.6083,1.6083,1.6083,1.6076,1.6049,1.6022,1.6001,1.5995,1.5852,1.5601,1.5594,1.5158,1.4516,1.4523,1.4146,1.3399,1.3205,1.3022,1.2639,1.255,1.2456,1.2456,1.2456,1.2456,1.245,1.2305,1.1889,1.1308,0.0,0.0,0.0,1.1582,1.156,1.1387,1.1337,1.1209,1.0992,1.0362,0.0,0.9987,0.9415,0.908,0.8988,0.9047,0.0,0.0,0.0,0.0,0.0,0.0,0.0,0.0,0.0,0.0,0.0,0.9819,1.0639,1.1193,1.1754,1.2194,1.2568,1.2617,1.2727,1.2962,1.3099,1.3338,1.3504,1.3713,1.3697,1.3658,1.3353,1.3053,1.2963,1.254,1.2228,1.2223,1.2223,1.2223,1.2118,1.2223,1.2334,1.2545,1.328,1.3907,1.4118,1.454,1.4967,1.55,1.5599,1.5605,1.571,1.6026,1.6236,1.6236,1.6663,1.6978,1.6978,1.6978,1.6978,1.6978,1.6978,1.6978,1.6978,1.6978,1.6978,1.6978,1.6978,1.6978,1.6978,0.0,1.6897,1.6822,0.0,1.6277,1.6029,1.589,1.6044,1.5983,1.5678,1.5678,1.5578,1.528,1.528,1.5125,1.4861,1.4861,1.4418,1.3682,1.3676,1.3299,1.255,1.2267,1.2072,1.1794,1.16,1.151,1.1416,1.151,1.1321,1.1033,1.0924,1.0468,0.9671,0.8795,0.8819,0.9781,0.9921,0.9892,0.9788,0.9735,0.9611,0.9318,0.8834,0.0,0.0,0.0,0.0,0.0,0.0,0.0,0.0,0.0,0.0,0.6224,0.6321,0.6314,0.644,0.6929,0.7405,0.7841,0.8718,0.981,1.1042,1.1523,1.1808,1.2115,1.214,1.2211,1.2373,1.2444,1.24,1.235,1.2295,1.2118,1.1589,1.1271,1.0958,1.0746,1.0428,1.0216,1.0216,1.0216,1.0216,1.0216,1.0216,1.0216,1.0428,1.1694,1.2857,1.3174,1.3697,1.4118,1.4329,1.4434,1.444,1.454,1.4651,1.4967,1.5178,1.5493,1.5815,1.6026,1.6131,1.6236,1.6453,1.6558,1.6663,1.6873,1.6978,1.6978,1.6978,1.6978,1.6978,1.6985,1.6873,1.6873,1.6694,1.6366,1.5827,1.5421,1.5283,0.0,0.0,0.0,1.4887,1.4576,1.4277,1.4177,1.4045,1.383,1.3824,1.3403,1.2517,1.2494,1.2199,1.1536,1.1042,1.0843,1.0749,1.037,1.0185,1.0185,1.009,0.9802,0.9418,0.9159,0.8551,0.7687,0.6796,0.6769,0.7659,0.7821,0.7898,0.7868,0.7891,0.769,0.7608,0.719,0.6841,0.6647,0.6311,0.6094,0.6079,0.5684,0.5516,0.5507,0.5102,0.4877,0.4844,0.4912,0.497,0.5015,0.5251,0.5769,0.6563,0.727,0.8498,1.0564,1.0834,1.0956,1.1136,1.1149,1.1181,1.1267,1.1165,1.0954,1.0534,1.0428,0.9894,0.9155,0.8943,0.8837,0.8309,0.8306,0.8203,0.8199,0.8306,0.8203,0.8199,0.8306,0.8203,0.8412,1.0004,1.1377,1.1911,1.2329,1.2852,1.3063,1.3169,1.3169,1.328,1.338,1.3591,1.4013,1.4224,1.4434,1.4862,1.4967,1.5178,1.5605,1.571,1.592,1.6453,1.6663,1.6768,1.6768,1.6873,1.6873,1.6663,1.6236,1.6236,1.5908,1.5456,1.4719,1.4077,1.3535,1.4005,1.4143,1.4042,1.3524,1.3173,1.3073,1.3073,1.3002,1.288,1.2875,1.2308,1.1207,1.1114,1.0399,0.9056,0.8889,0.8569,0.8189,0.8094,0.7999,0.7999,0.7616,0.7426,0.7331,0.6847,0.6246,0.5638,0.5438,0.5215,0.4967,0.5789,0.6101,0.5999,0.5987,0.5922,0.5882,0.5645,0.5546,0.5579,0.5444,0.5189,0.4815,0.4773,0.4479,0.365,0.3715,0.3585,0.3162,0.324,0.3388,0.3394,0.3881,0.4687,0.5804,0.6053,0.6904,0.857,0.8786,0.8832,0.8918,0.9031,0.8932,0.8946,0.8624,0.8409,0.8196,0.7768,0.7343,0.7237,0.7237,0.7131,0.7025,0.7025,0.7025,0.7027,0.7027,0.7027,0.7025,0.7027,0.7025,0.724,0.809,0.9155,0.9686,0.9898,1.0428,1.1059,1.1487,1.1589,1.2017,1.2435,1.2646,1.2752,1.3069,1.338,1.3802,1.3697,1.3802,1.3907,1.4329,1.454,1.4756,1.5178,1.5605,1.6026,1.6236,1.6341,1.6026,1.5178,1.5178,1.4862,1.4329,1.3321,1.254,1.1963,1.1545,1.1945,1.2946,1.2632,1.2179,1.1578,1.1578,1.132,1.0928,1.0626,1.008,0.9204,0.8873,0.8178,0.7304,0.7178,0.7063,0.6873,0.6873,0.6855,0.6725,0.6528,0.6322,0.6006,0.5527,0.504,0.4454,0.4452,0.4159,0.3764,0.456,0.4974,0.493,0.4901,0.4864,0.4818,0.4503,0.4309,0.433,0.4046,0.3714,0.3595,0.3432,0.311,0.2709,0.2454,0.229,0.2132,0.2171,0.2198,0.2209,0.2769,0.3447,0.4018,0.434,0.4869,0.5609,0.6877,0.7526,0.7556,0.7559,0.7559,0.7559,0.7346,0.7131,0.6815,0.6496,0.6281,0.5962,0.5858,0.5858,0.5855,0.5858,0.5858,0.5858,0.5858,0.5858,0.5858,0.5858,0.5858,0.5858,0.6283,0.703,0.7771,0.7984,0.8193,0.8724,0.9045,0.9364,0.9576,1.0106,1.0424,1.0424,1.0737,1.0945,1.1262,1.1368,1.1579,1.2007,1.243,1.2852,1.3486,1.3697,1.4118,1.4862,1.5388,1.592,1.5072,1.4019,1.3907,1.338,1.2535,1.1579,1.0843,1.0204,0.915,0.945,1.0852,1.0959,1.0603,0.9777,0.9677,0.9336,0.8783,0.8375,0.7946,0.7301,0.6794,0.6395,0.5904,0.5894,0.5889,0.5886,0.5889,0.5863,0.5825,0.571,0.5293,0.4867,0.4387,0.4004,0.3624,0.3529,0.3243,0.2954,0.3475,0.3818,0.39,0.3871,0.3758,0.3658,0.3274,0.2994,0.3001,0.2644,0.2394,0.2341,0.1969,0.1803,0.1749,0.1367,0.1182,0.1201,0.1216,0.1229,0.124,0.1675,0.201,0.2237,0.2557,0.2876,0.3089,0.4579,0.5747,0.5962,0.5962,0.5962,0.5962,0.5962,0.5855,0.5432,0.5432,0.5219,0.4796,0.4689,0.4689,0.4689,0.4689,0.4689,0.4689,0.4689,0.4689,0.4689,0.4689,0.4689,0.4689,0.4689,0.5113,0.5751,0.6174,0.6493,0.66,0.7027,0.7453,0.7453,0.7771,0.7984,0.7984,0.7874,0.7874,0.8402,0.8617,0.8936,0.978,1.0204,1.0627,1.1262,1.1579,1.2324,1.3486,1.4224,1.5178,1.3913,1.2968,1.2324,1.1267,0.9792,0.9148,0.8515,0.7968,0.7217,0.6951,0.7341,0.7588,0.7826,0.7572,0.716,0.6953,0.6846,0.6746,0.6442,0.5929,0.5784,0.5467,0.4968,0.4831,0.4808,0.4812,0.4815,0.4812,0.4802,0.437,0.3849,0.3341,0.3243,0.3242,0.3148,0.2671,0.2384,0.2384,0.1999,0.1988,0.2346,0.2343,0.2146,0.1665,0.1677,0.1597,0.1704,0.1626,0.1448,0.1073,0.0976,0.0687,0.0,0.0,0.0,0.0,0.0,0.0105,0.0,0.0213,0.0532,0.0959,0.1172,0.1385,0.1812,0.2025,0.2664,0.3515,0.3728,0.3834,0.3728,0.3729,0.3837,0.373,0.373,0.3624,0.3624,0.3517,0.3517,0.3517,0.3624,0.3624,0.373,0.373,0.3624,0.373,0.373,0.373,0.3624,0.3624,0.3624,0.3944,0.4583,0.5326,0.5751,0.6071,0.6177,0.66,0.6493,0.6281,0.6068,0.5749,0.543,0.5853,0.6068,0.6387,0.6706,0.7234,0.7977,0.8398,0.9144,1.0208,1.1685,1.253,1.3591,1.2113,1.0746,1.0102,0.9148,0.7874,0.724,0.6921,0.6594,0.599,0.5734,0.5595,0.5549,0.5804,0.6357,0.6156,0.5853,0.545,0.5146,0.4944,0.4641,0.4323,0.4115,0.3812,0.3801,0.3793,0.3793,0.3793,0.3781,0.3755,0.3608,0.3187,0.2692,0.2582,0.2479,0.2193,0.1907,0.1812,0.1812,0.1621,0.1431,0.1433,0.1616,0.1708,0.1427,0.1145,0.1056,0.1066,0.0779,0.049,0.0297,0.0297,0.0199,0.0,0.0,0.0,0.0,0.0,0.0,0.0,0.0,0.0107,0.032,0.0426,0.0533,0.0639,0.0746,0.0959,0.1385,0.2025,0.2344,0.2451,0.2452,0.2345,0.2345,0.2345,0.2452,0.2452,0.2772,0.2985,0.2985,0.3198,0.3411,0.3411,0.3411,0.3411,0.3411,0.3411,0.3198,0.2985,0.2878,0.2772,0.2558,0.2878,0.3303,0.3942,0.3942,0.4155,0.426,0.4473,0.4366,0.4048,0.3835,0.3623,0.3621,0.3942,0.4153,0.4473,0.4685,0.5215,0.5747,0.6916,0.8299,0.9678,1.0627,1.1897,1.0102,0.8727,0.8087,0.7237,0.6281,0.5751,0.5539,0.5426,0.4855,0.4603,0.4458,0.4111,0.4278,0.495,0.5047,0.4744,0.4343,0.3937,0.3836,0.3735,0.3332,0.323,0.323,0.3029,0.3029,0.2928,0.2826,0.2814,0.2787,0.2745,0.2426,0.2127,0.2108,0.1907,0.1526,0.143,0.1337,0.1245,0.1149,0.0962,0.0678,0.0868,0.1061,0.1068,0.0779,0.0587,0.0591,0.0198,0.0,0.0,0.0,0.0,0.0,0.0,0.0,0.0,0.0,0.0,0.0,0.0,0.0,0.0,0.0,0.0,0.0,0.0,0.0,0.0,0.0746,0.1279,0.1279,0.1385,0.1492,0.1492,0.1598,0.1705,0.1812,0.2131,0.2345,0.2345,0.2665,0.2878,0.2878,0.2878,0.2878,0.2878,0.2878,0.2878,0.2452,0.2345,0.2131,0.1705,0.1598,0.1812,0.2239,0.2452,0.2345,0.2345,0.2664,0.2557,0.2131,0.2025,0.1918,0.1917,0.2025,0.2238,0.2663,0.2876,0.3195,0.3835,0.4898,0.6174,0.734,0.8296,0.925,0.7981,0.6918,0.6281,0.5751,0.5115,0.4581,0.4368,0.4364,0.3802,0.3454,0.3423,0.329,0.3361,0.3332,0.333,0.333,0.3332,0.3231,0.323,0.323,0.3129,0.323,0.3129,0.2727,0.2424,0.2424,0.202,0.181,0.1693,0.1677,0.166,0.1549,0.1535,0.1526,0.1336,0.105,0.0862,0.0773,0.0387,0.0,0.0,0.0,0.0,0.0,0.0,0.0,0.0,0.0,0.0,0.0,0.0,0.0,0.0,0.0,0.0,0.0,0.0,0.0,0.0,0.0,0.0,0.0,0.0,0.0,0.0,0.0,0.0,0.0,0.0,0.0,0.0213,0.0639,0.0959,0.0959,0.1385,0.1598,0.1598,0.1598,0.1705,0.1705,0.1812,0.1918,0.1812,0.1812,0.1918,0.1918,0.1812,0.1812,0.1812,0.1705,0.1705,0.1492,0.1279,0.1172,0.1598,0.1598,0.1705,0.1598,0.1385,0.0,0.0,0.0533,0.0,0.0,0.0853,0.1066,0.1172,0.1492,0.2025,0.2451,0.2664,0.3728,0.5217,0.5217,0.6278,0.6281,0.5217,0.5007,0.4581,0.405,0.3837,0.373,0.3621,0.3062,0.2825,0.2697,0.2365,0.2241,0.2221,0.2221,0.2322,0.2626,0.2727,0.2525,0.2222,0.2221,0.2221,0.2121,0.1919,0.1919,0.1818,0.1717,0.1614,0.1608,0.1593,0.138,0.1074,0.1064,0.0866,0.0578,0.0385,0.029,0.0,0.0098,0.0,0.0,0.0,0.0,0.0,0.0,0.0,0.0,0.0,0.0,0.0,0.0,0.0,0.0,0.0,0.0,0.0,0.0,0.0,0.0,0.0,0.0,0.0,0.0,0.0,0.0,0.0,0.0,0.0,0.0,0.0,0.0,0.0213,0.0,0.0,0.0,0.0,0.0639,0.0959,0.1172,0.1279,0.1492,0.1705,0.1598,0.1705,0.1705,0.1705,0.1705,0.1492,0.1279,0.1172,0.1066,0.0746,0.0426,0.0426,0.0533,0.0639,0.0639,0.0533,0.0,0.0,0.0,0.0,0.0,0.0,0.0,0.0,0.0,0.0,0.0,0.1385,0.1598,0.2131,0.3196,0.3728,0.4685,0.4153,0.3516,0.3516,0.3198,0.2878,0.2878,0.2878,0.2769,0.2436,0.2204,0.218,0.1753,0.1635,0.1618,0.1616,0.1717,0.1919,0.202,0.1919,0.1616,0.1616,0.1616,0.1515,0.1414,0.1313,0.1313,0.1111,0.1111,0.111,0.1101,0.0894,0.0592,0.0489,0.0389,0.0,0.0,0.0,0.0,0.0,0.0,0.0,0.0,0.0,0.0,0.0,0.0,0.0,0.0,0.0,0.0,0.0,0.0,0.0,0.0,0.0,0.0,0.0,0.0,0.0,0.0,0.0,0.0,0.0,0.0,0.0,0.0,0.0,0.0,0.0,0.0,0.0,0.0,0.0,0.0,0.0,0.0,0.0,0.0,0.0533,0.0639,0.0853,0.1066,0.0,0.1172,0.1066,0.1172,0.1172,0.0959,0.0746,0.0639,0.0533,0.0,0.0,0.0,0.0,0.0,0.0,0.0,0.0,0.0,0.0,0.0,0.0,0.0,0.0,0.0,0.0,0.0,0.0,0.0,0.0746,0.1172,0.1918,0.2557,0.3408,0.1812,0.1812,0.1705,0.1812,0.1812,0.1918,0.1812,0.1812,0.1704,0.1687,0.1662,0.1659,0.1437,0.1519,0.1414,0.1313,0.101,0.1313,0.1515,0.1414,0.1414,0.1414,0.1414,0.101,0.0808,0.0808,0.0303,0.0,0.0,0.0,0.0,0.0,0.0,0.0,0.0,0.0,0.0,0.0,0.0,0.0,0.0,0.0,0.0,0.0,0.0,0.0,0.0,0.0,0.0,0.0,0.0,0.0,0.0,0.0,0.0,0.0,0.0,0.0,0.0,0.0,0.0,0.0,0.0,0.0,0.0,0.0,0.0,0.0,0.0,0.0,0.0,0.0,0.0,0.0,0.0,0.0,0.0,0.0,0.0,0.0,0.0,0.0,0.0,0.0,0.0,0.0,0.0,0.0,0.0,0.0,0.0,0.0,0.0,0.0,0.0,0.0,0.0,0.0,0.0,0.0,0.0,0.0,0.0,0.0,0.0,0.0,0.0,0.0,0.0,0.0,0.0,0.0,0.0959,0.1598,0.1918,0.1705,0.1705,0.1705,0.1705,0.1705,0.1705,0.1705,0.1705,0.1279,0.1161,0.1041,0.0727,0.0514,0.0,0.0505,0.0,0.0303,0.0404,0.0,0.0,0.0,0.0,0.0,0.0,0.0303,0.0202,0.0101,0.0,0.0,0.0,0.0,0.0,0.0,0.0,0.0,0.0,0.0,0.0,0.0,0.0,0.0,0.0,0.0,0.0,-0.0303,-0.0608,-0.0612,-0.0203,0.0,0.0,0.0,0.0,0.0,0.0,0.0,0.0,0.0,0.0,0.0,0.0,0.0,0.0,0.0,0.0,0.0,0.0,0.0,0.0,0.0,0.0,0.0,0.0,0.0,0.0,0.0,0.0,0.0,0.0,0.0,0.0,0.0,0.0,0.0,0.0,0.0,0.0,0.0,0.0,0.0,0.0,0.0,0.0,0.0,0.0,0.0,0.0,0.0,0.0,0.0,0.0,0.0,0.0,0.0,0.0,0.0,0.0,0.0,0.0,0.0,0.0,0.0,0.0,0.0,0.0639,0.1066,0.1066,0.1066,0.1066,0.1066,0.1066,0.1066,0.1066,0.1066,0.0746,0.0529,0.0523,0.0208,0.0,0.0,0.0,0.0,0.0,0.0,0.0,0.0,0.0,0.0,0.0,0.0,0.0,0.0,0.0,0.0,0.0,0.0,0.0,0.0,0.0,0.0,0.0,0.0,0.0,0.0,0.0,0.0,0.0,-0.0505,-0.0707,-0.0909,-0.1216,-0.1527,-0.174,-0.1429,-0.1023,-0.0823,-0.0826,-0.0938,-0.0951,0.0,-0.0959,-0.0959,0.0,0.0,-0.0639,0.0,-0.0639,-0.0639,-0.0639,0.0,0.0,0.0,-0.032,-0.032,0.0,0.0,0.0,0.0,0.0,0.0,0.0,0.0,0.0,0.0,0.0,0.0,0.0,0.0,0.0,0.0,0.0,0.0,0.0,0.0,0.0,0.0,0.0,0.0,0.0,0.0,0.0,0.0,0.0,0.0,0.0,0.0,0.0,0.0,0.0,0.0,0.0,0.0,0.0,0.0,0.0,0.0,0.0,0.0,0.0,0.0,0.0639,0.0,0.0,0.0,0.0,0.0,0.0,0.0,0.0,0.0,0.0,0.0,0.0,0.0,0.0,0.0,0.0,0.0,0.0,0.0,0.0,0.0,0.0,0.0,0.0,0.0,0.0,0.0,0.0,0.0,0.0,0.0,0.0,0.0,0.0,0.0,0.0,0.0,0.0,-0.0707,-0.0909,-0.101,-0.1414,-0.192,-0.2325,-0.2546,-0.2765,-0.3085,-0.3313,-0.2908,-0.2079,-0.2197,-0.2427,-0.2552,-0.2665,-0.2451,-0.2451,-0.2131,-0.1812,-0.1812,-0.1812,-0.1812,-0.1812,-0.1812,-0.1812,-0.1705,-0.1492,-0.1172,-0.1066,-0.0639,0.0,0.0,0.0,0.0,0.0,0.0,0.0,0.0,0.0,0.0,0.0,0.0,0.0,0.0,0.0,0.0,0.0,0.0,0.0,0.0,0.0,0.0,0.0,0.0,0.0,0.0,0.0,0.0,0.0,0.0,0.0,0.0,0.0,0.0,0.0,0.0,0.0,0.0,0.0,0.0,0.0,0.0,0.0,0.0,0.0,0.0,0.0,0.0,0.0,0.0,0.0,0.0,0.0,0.0,0.0,0.0,0.0,0.0,0.0,0.0,0.0,0.0,0.0,0.0,0.0,0.0,0.0,0.0,0.0,0.0,0.0,0.0,0.0,0.0,0.0,0.0,0.0,0.0,0.0,-0.0202,-0.0505,-0.0606,-0.0808,-0.1212,-0.1717,-0.2019,-0.212,-0.2524,-0.2837,-0.306,-0.3476,-0.3814,-0.4171,-0.4843,-0.4533,-0.3145,-0.3063,-0.3188,-0.3302,-0.3302,-0.341,-0.3303,-0.3196,-0.2982,-0.2982,-0.2982,-0.2982,-0.2982,-0.2983,-0.2982,-0.2982,-0.2876,-0.2557,-0.2238,-0.1918,-0.1705,-0.1279,-0.0959,-0.0533,0.0,0.0,0.0,0.0,0.0,0.0,0.0,0.0,0.0,0.0,0.0,0.0,0.0,0.0,0.0,0.0,0.0,0.0,0.0,0.0,0.0,0.0,0.0,0.0,0.0,0.0,0.0,0.0,0.0,0.0,0.0,0.0,0.0,0.0,0.0,0.0,0.0,0.0,0.0,0.0,0.0,0.0,0.0,0.0,0.0,0.0,0.0,0.0,0.0,0.0,0.0,0.0,0.0,0.0,0.0,0.0,0.0,0.0,0.0,0.0,0.0,0.0,0.0,0.0,0.0,0.0,0.0,0.0,0.0,0.0,0.0,0.0,0.0,0.0,-0.0303,-0.0707,-0.1414,-0.1515,-0.1717,-0.2322,-0.2827,-0.3129,-0.3431,-0.3936,-0.4564,-0.4906,-0.5339,-0.5708,-0.6434,-0.7114,-0.6478,-0.5082,-0.4884,-0.5217,-0.5217,-0.5217,-0.5217,-0.5217,-0.4792,-0.4473,-0.4473,-0.426,-0.4155,-0.4155,-0.4155,-0.4155,-0.4048,-0.3942,-0.3623,-0.341,-0.309,-0.277,-0.2451,-0.1918,-0.1492,0.0,-0.0853,-0.0533,-0.0107,0.0,0.0,0.0,0.0,0.0,0.0,0.0,0.0,0.0,0.0,0.0,0.0,0.0,0.0,0.0,0.0,0.0,0.0,0.0,0.0,0.0,0.0,0.0,0.0,0.0,0.0,0.0,0.0,0.0,0.0,0.0,0.0,0.0,0.0,0.0,0.0,0.0,0.0,0.0,0.0,0.0,0.0,0.0,0.0,0.0,0.0,0.0,0.0,0.0,0.0,0.0,0.0,0.0,0.0,0.0,0.0,0.0,0.0,0.0,0.0,0.0,0.0,0.0,0.0,0.0,0.0,0.0,0.0,0.0,-0.0909,-0.101,-0.1616,-0.2422,-0.2624,-0.2927,-0.3534,-0.424,-0.4742,-0.5246,-0.5853,-0.6485,-0.7362,-0.7548,-0.8153,-0.8893,-0.9367,-0.8617,-0.66,-0.7453,-0.7768,-0.7878,-0.7878,-0.7878,-0.7768,-0.7025,-0.66,-0.6283,-0.6071,-0.5647,-0.5647,-0.5541,-0.5434,-0.5541,-0.5326,-0.5007,-0.49,-0.4153,-0.4047,-0.3515,-0.309,-0.2664,-0.2451,-0.2131,-0.1385,-0.0639,-0.0213,-0.0213,0.0,0.0,0.0,-0.0213,-0.0213,0.0,0.0,0.0,0.0,0.0,0.0,0.0,0.0,0.0,0.0,0.0,0.0,0.0,0.0,0.0,0.0,0.0,0.0,0.0,0.0,0.0,0.0,0.0,0.0,0.0,0.0,0.0,0.0,0.0,0.0,0.0,0.0,0.0,0.0,0.0,0.0,0.0,0.0,0.0,0.0,0.0,0.0,0.0,0.0,0.0,0.0,0.0,0.0,0.0,0.0,-0.0707,-0.1111,-0.1212,-0.1111,-0.0606,0.0,-0.0202,-0.0505,-0.0606,-0.0707,-0.1111,-0.1515,-0.2019,-0.2221,-0.2625,-0.3633,-0.4238,-0.4641,-0.5248,-0.6055,-0.6757,-0.7361,-0.7864,-0.8507,-0.9204,-0.9342,-0.957,-0.9968,-1.053,-1.0428,-1.0106,-0.9784,-0.9678,-0.9572,-0.9572,-0.9572,-0.9572,-0.936,-0.9042,-0.873,-0.8409,-0.8199,-0.7668,-0.7668,-0.7774,-0.7774,-0.7562,-0.7349,-0.7134,-0.6812,-0.6174,-0.5111,-0.426,-0.3942,-0.3621,-0.3302,-0.2982,-0.2556,-0.1917,-0.1385,-0.1385,-0.1385,-0.1279,-0.1279,-0.1385,-0.1172,-0.0853,-0.0639,-0.0533,0.0,0.0,0.0,0.0,0.0,0.0,0.0,0.0,0.0,0.0,0.0,0.0,0.0,0.0,0.0,0.0,0.0,0.0,0.0,0.0,0.0,0.0,0.0,0.0,0.0,0.0,0.0,0.0,0.0,0.0,0.0,0.0,0.0,0.0,0.0,0.0,0.0,0.0,0.0,0.0,0.0,-0.0203,0.0,-0.0505,-0.0909,-0.1414,-0.1919,-0.2221,-0.2322,-0.2322,-0.1818,-0.1413,-0.1211,-0.1413,-0.1616,-0.1919,-0.2221,-0.2725,-0.3431,-0.3532,-0.4339,-0.5448,-0.6052,-0.6657,-0.7261,-0.7965,-0.8668,-0.9175,-0.9476,-0.9949,-1.0475,-1.073,-1.0958,-1.1469,-1.1694,-1.2017,-1.2122,-1.1906,-1.1478,-1.1055,-1.1055,-1.0954,-1.0954,-1.0737,-1.053,-1.0216,-0.9894,-0.9576,-0.9364,-0.9258,-0.9258,-0.9258,-0.9258,-0.9151,-0.8936,-0.8724,-0.8299,-0.7237,-0.66,-0.6068,-0.543,-0.4898,-0.4685,-0.4366,-0.3408,-0.2451,-0.2451,-0.245,-0.245,-0.2451,-0.2451,-0.2451,-0.2237,-0.1812,-0.1598,-0.1492,0.0,0.0,0.0,0.0,0.0,0.0,0.0,0.0,0.0,0.0,0.0,0.0,0.0,0.0,0.0,0.0,0.0,0.0,0.0,0.0,0.0,0.0,0.0,0.0,0.0,0.0,0.0,0.0,0.0,0.0,0.0,0.0,0.0,0.0,0.0,0.0,0.0,-0.0104,0.0,-0.041,-0.0913,-0.1111,-0.1414,-0.2121,-0.2826,-0.313,-0.3332,-0.3534,-0.3534,-0.3532,-0.3532,-0.3127,-0.2725,-0.2927,-0.333,-0.3635,-0.4339,-0.5146,-0.5347,-0.6153,-0.7462,-0.8169,-0.8568,-0.897,-0.9573,-1.0175,-1.058,-1.0685,-1.1079,-1.1661,-1.1861,-1.2201,-1.2616,-1.2863,-1.3074,-1.3607,-1.3607,-1.3074,-1.244,-1.2122,-1.2122,-1.2122,-1.1805,-1.1589,-1.1382,-1.0954,-1.0632,-1.0526,-1.042,-1.042,-1.042,-1.042,-1.042,-1.042,-1.0208,-1.0,-0.9686,-0.8939,-0.8405,-0.7981,-0.7131,-0.6706,-0.6281,-0.5111,-0.4579,-0.3623,-0.3623,-0.3623,-0.3623,-0.3623,-0.3621,-0.3515,-0.3196,-0.2878,-0.2664,-0.2451,-0.2131,-0.1918,-0.1917,-0.1705,-0.1385,0.0,0.0,0.0,0.0,0.0,0.0,0.0,0.0,0.0,0.0,0.0,0.0,0.0,0.0,0.0,0.0,0.0,0.0,0.0,0.0,0.0,0.0,0.0,0.0,0.0,0.0,0.0,0.0,0.0,0.0,-0.063,-0.073,-0.093,-0.133,-0.1926,-0.2423,-0.3029,-0.3633,-0.3937,-0.424,-0.4543,-0.4946,-0.5347,-0.5448,-0.575,-0.575,-0.5045,-0.4339,-0.4742,-0.5045,-0.6153,-0.7261,-0.7462,-0.8166,-0.907,-0.9773,-1.0079,-1.0279,-1.0781,-1.1282,-1.1583,-1.1798,-1.208,-1.2687,-1.275,-1.2974,-1.3343,-1.3391,-1.3496,-1.3602,-1.3607,-1.3496,-1.3285,-1.318,-1.318,-1.318,-1.2968,-1.2757,-1.244,-1.2334,-1.2012,-1.18,-1.1589,-1.1589,-1.1589,-1.1589,-1.1589,-1.1483,-1.1271,-1.0958,-1.0852,-1.0318,-0.9996,-0.9674,-0.9466,-0.9148,-0.8727,-0.809,-0.7131,-0.5643,-0.5219,-0.49,-0.5113,-0.5113,-0.5113,-0.5007,-0.4687,-0.4261,-0.4048,-0.3728,-0.3408,-0.3195,-0.3089,-0.277,-0.2452,-0.1492,0.0,0.0,0.0,0.0,0.0,0.0,0.0,0.0,0.0,0.0,0.0,0.0,0.0,0.0,0.0,0.0,0.0,0.0,0.0,0.0,0.0,0.0,0.0,0.0,0.0,-0.0213,-0.0426,-0.0426,-0.0952,-0.1465,-0.1663,-0.1957,-0.2547,-0.3339,-0.4238,-0.5146,-0.5551,-0.5853,-0.6156,-0.6657,-0.7059,-0.7361,-0.7562,-0.8065,-0.8166,-0.7459,-0.6754,-0.6956,-0.7559,-0.8266,-0.9074,-0.9376,-0.9777,-1.0476,-1.0982,-1.1287,-1.1488,-1.1783,-1.2184,-1.2484,-1.2489,-1.2791,-1.3011,-1.3216,-1.3336,-1.3471,-1.3586,-1.3602,-1.3607,-1.3607,-1.3607,-1.3607,-1.3607,-1.3607,-1.3607,-1.3607,-1.3496,-1.3285,-1.318,-1.3074,-1.2863,-1.2757,-1.2757,-1.2757,-1.2757,-1.2757,-1.2651,-1.2651,-1.2228,-1.2017,-1.1694,-1.1483,-1.1059,-1.0848,-1.0636,-1.0322,-1.0,-0.8936,-0.7662,-0.7346,-0.7134,-0.6924,-0.6924,-0.6818,-0.6498,-0.6177,-0.5855,-0.5536,-0.5324,-0.5109,-0.4898,-0.4792,-0.426,-0.3729,-0.2664,-0.1918,-0.1705,-0.1279,-0.0959,0.0,0.0,0.0,0.0,0.0,0.0,0.0,0.0,0.0,0.0,0.0,0.0,0.0,0.0,0.0,0.0,0.0,0.0,0.0,0.0,0.0,-0.0533,-0.0959,-0.117,-0.1896,-0.2701,-0.3,-0.328,-0.3951,-0.5045,-0.6254,-0.7767,-0.7767,-0.7965,-0.8266,-0.8668,-0.897,-0.9271,-0.9573,-0.9773,-0.9874,-0.9974,-0.9874,-0.9171,-0.9372,-1.0074,-1.058,-1.0786,-1.1087,-1.1583,-1.1984,-1.2184,-1.2384,-1.269,-1.289,-1.289,-1.2895,-1.296,-1.3091,-1.3194,-1.3308,-1.3477,-1.3558,-1.3602,-1.3607,-1.3607,-1.3607,-1.3607,-1.3607,-1.3607,-1.3607,-1.3607,-1.3607,-1.3607,-1.3602,-1.3502,-1.3391,-1.3607,-1.3602,-1.3496,-1.3391,-1.3502,-1.3607,-1.3496,-1.3285,-1.2968,-1.2968,-1.2651,-1.2334,-1.1911,-1.1593,-1.1382,-1.1165,-1.0843,-0.9996,-0.958,-0.9155,-0.8727,-0.8515,-0.8409,-0.8302,-0.8087,-0.7981,-0.7765,-0.7659,-0.734,-0.7025,-0.66,-0.5855,-0.5111,-0.4047,-0.3515,-0.3302,-0.2557,-0.1918,-0.1598,0.0,-0.0959,-0.0746,0.0,0.0,0.0,0.0,0.0,0.0,0.0,0.0,0.0,0.0,0.0,0.0,0.0,0.0,0.0,0.0,-0.0639,-0.1065,-0.1702,-0.2113,-0.2933,-0.4039,-0.4421,-0.4894,-0.5762,-0.7059,-0.8266,-0.907,-0.9372,-0.9372,-0.9573,-0.9673,-0.9974,-1.0279,-1.0384,-1.0781,-1.1082,-1.1483,-1.1182,-1.0681,-1.048,-1.0982,-1.1683,-1.1884,-1.2084,-1.2489,-1.2584,-1.279,-1.2784,-1.289,-1.289,-1.289,-1.289,-1.3004,-1.3134,-1.3238,-1.3325,-1.3499,-1.3564,-1.3602,-1.3607,-1.3607,-1.3607,-1.3607,-1.3607,-1.3607,-1.3607,-1.3607,-1.3607,-1.3607,-1.3607,-1.3607,-1.3607,-1.3607,-1.3607,-1.3607,-1.3607,-1.3607,-1.3607,-1.3607,-1.3607,-1.3391,-1.3496,-1.3396,-1.3285,-1.3074,-1.2757,-1.2651,-1.2228,-1.1906,-1.18,-1.117,-1.0742,-1.0314,-1.0102,-0.9992,-0.9996,-0.989,-0.989,-0.9784,-0.9572,-0.9254,-0.8724,-0.8405,-0.7768,-0.6918,-0.5855,-0.5324,-0.5005,-0.4153,-0.3302,-0.2983,-0.277,-0.2131,-0.1812,-0.1385,-0.0853,0.0,0.0,0.0,0.0,0.0,0.0,0.0,0.0,0.0,-0.0316,0.0,-0.0316,-0.042,-0.0525,-0.1365,-0.21,-0.2727,-0.3554,-0.4464,-0.5455,-0.6354,-0.7325,-0.828,-0.9275,-0.9878,-1.048,-1.0576,-1.0576,-1.0676,-1.0877,-1.1177,-1.1483,-1.1688,-1.1989,-1.2089,-1.2384,-1.2384,-1.1884,-1.1884,-1.2184,-1.2389,-1.2584,-1.259,-1.289,-1.289,-1.289,-1.289,-1.289,-1.289,-1.289,-1.2895,-1.2939,-1.3047,-1.3172,-1.3298,-1.3401,-1.3548,-1.3597,-1.3607,-1.3607,-1.3607,-1.3607,-1.3607,-1.3607,-1.3607,-1.3607,-1.3607,-1.3607,-1.3607,-1.3607,-1.3607,-1.3607,-1.3607,-1.3607,-1.3607,-1.3607,-1.3607,-1.3607,-1.3607,-1.3607,-1.3607,-1.3607,-1.3607,-1.3607,-1.3502,-1.3285,-1.329,-1.3074,-1.2968,-1.2757,-1.2223,-1.18,-1.1584,-1.1372,-1.1165,-1.1165,-1.1059,-1.1059,-1.1059,-1.0742,-1.0318,-1.0,-0.9678,-0.8936,-0.7977,-0.745,-0.6918,-0.6172,-0.5428,-0.4792,-0.426,-0.394,-0.3302,-0.2876,-0.2237,-0.1598,0.0,0.0,0.0,0.0,0.0,0.0,0.0,0.0,-0.0935,-0.0627,-0.104,-0.1246,-0.135,-0.249,-0.3425,-0.4045,-0.5172,-0.628,-0.7164,-0.8259,-0.9532,-1.0598,-1.0881,-1.1182,-1.1683,-1.1683,-1.1683,-1.1884,-1.2084,-1.2184,-1.2289,-1.269,-1.279,-1.289,-1.279,-1.279,-1.279,-1.279,-1.279,-1.289,-1.279,-1.289,-1.289,-1.289,-1.289,-1.289,-1.289,-1.289,-1.289,-1.289,-1.2912,-1.2999,-1.3113,-1.3249,-1.3314,-1.3482,-1.3602,-1.3607,-1.3607,-1.3607,-1.3607,-1.3607,-1.3607,-1.3607,-1.3607,-1.3607,-1.3607,-1.3607,-1.3607,-1.3607,-1.3607,-1.3607,-1.3607,-1.3607,-1.3607,-1.3607,-1.3607,-1.3607,-1.3607,-1.3607,-1.3607,-1.3607,-1.3607,-1.3607,-1.3607,-1.3602,-1.3602,-1.3391,-1.3391,-1.3708,-1.3285,-1.3074,-1.2757,-1.244,-1.2334,-1.2334,-1.2334,-1.2334,-1.2017,-1.1593,-1.1487,-1.1165,-1.0526,-0.989,-0.9364,-0.8936,-0.819,-0.7553,-0.7022,-0.6491,-0.6172,-0.5428,-0.4685,-0.4153,-0.3728,-0.213,0.0,0.0,0.0,0.0,0.0,0.0,0.0,-0.2254,-0.2257,-0.2275,-0.2384,-0.2487,-0.4045,-0.5077,-0.5682,-0.7184,-0.8181,-0.8974,-0.9831,-1.09,-1.1688,-1.1884,-1.2189,-1.269,-1.2784,-1.269,-1.269,-1.279,-1.279,-1.279,-1.279,-1.289,-1.289,-1.289,-1.289,-1.289,-1.289,-1.289,-1.289,-1.289,-1.289,-1.289,-1.289,-1.289,-1.289,-1.289,-1.289,-1.289,-1.2901,-1.2933,-1.3042,-1.3162,-1.3287,-1.3401,-1.3515,-1.3602,-1.3602,-1.3607,-1.3607,-1.3607,-1.3607,-1.3607,-1.3607,-1.3607,-1.3607,-1.3607,-1.3607,-1.3607,-1.3607,-1.3607,-1.3607,-1.3607,-1.3607,-1.3607,-1.3607,-1.3713,-1.3713,-1.3713,-1.3607,-1.3919,-1.3919,-1.4024,-1.4024,-1.4024,-1.3919,-1.3919,-1.3813,-1.3919,-1.4235,-1.4446,-1.413,-1.3913,-1.3602,-1.3496,-1.3491,-1.3496,-1.3496,-1.318,-1.2968,-1.2757,-1.244,-1.2012,-1.1483,-1.1267,-1.0949,-1.0416,-0.9886,-0.9356,-0.8932,-0.8614,-0.7977,-0.7337,-0.6597,-0.5855,-0.4683,-0.33,-0.1598,-0.0853,-0.0746,-0.0426,0.0,0.0,-0.3856,-0.3957,-0.5293,-0.5098,-0.4079,-0.6014,-0.7032,-0.7436,-0.8832,-1.0134,-1.0836,-1.1301,-1.1884,-1.2389,-1.259,-1.269,-1.289,-1.289,-1.289,-1.289,-1.289,-1.289,-1.289,-1.289,-1.289,-1.289,-1.289,-1.289,-1.289,-1.289,-1.289,-1.289,-1.289,-1.289,-1.289,-1.289,-1.289,-1.289,-1.289,-1.289,-1.289,-1.289,-1.2912,-1.296,-1.3075,-1.3189,-1.3303,-1.3428,-1.352,-1.3586,-1.3597,-1.3607,-1.3713,-1.3713,-1.3708,-1.3708,-1.3708,-1.3708,-1.3713,-1.3607,-1.3607,-1.3607,-1.3607,-1.3713,-1.3708,-1.3602,-1.3607,-1.3713,-1.3924,-1.413,-1.4135,-1.4446,-1.4762,-1.4657,-1.4551,-1.4551,-1.4446,-1.4446,-1.4446,-1.4446,-1.4657,-1.4973,-1.5078,-1.5078,-1.4862,-1.4756,-1.4651,-1.4657,-1.4446,-1.4446,-1.413,-1.4024,-1.3919,-1.4024,-1.3491,-1.328,-1.3063,-1.2747,-1.2535,-1.2002,-1.1579,-1.1474,-1.1051,-1.0521,-0.9992,-0.925,-0.8508,-0.7553,-0.5853,-0.362,-0.2237,-0.1598,-0.1172,-0.0639,-0.0533,-0.5649,-0.6052,-0.7965,-0.7663,-0.6153,-0.7965,-0.8869,-0.9074,-1.0284,-1.1483,-1.2289,-1.2389,-1.2484,-1.279,-1.289,-1.289,-1.289,-1.289,-1.289,-1.289,-1.289,-1.289,-1.289,-1.289,-1.289,-1.289,-1.289,-1.289,-1.289,-1.289,-1.289,-1.289,-1.289,-1.289,-1.289,-1.289,-1.289,-1.289,-1.289,-1.289,-1.289,-1.289,-1.289,-1.2917,-1.302,-1.3102,-1.3221,-1.3341,-1.3461,-1.3636,-1.368,-1.3813,-1.3919,-1.4024,-1.413,-1.413,-1.413,-1.413,-1.4024,-1.3924,-1.3924,-1.3919,-1.413,-1.413,-1.413,-1.413,-1.4235,-1.4235,-1.4551,-1.4657,-1.4657,-1.4973,-1.5072,-1.4967,-1.5072,-1.4967,-1.4967,-1.4967,-1.5072,-1.5072,-1.5283,-1.55,-1.571,-1.571,-1.55,-1.5283,-1.5072,-1.4967,-1.4967,-1.4967,-1.4967,-1.4967,-1.4967,-1.5072,-1.5178,-1.4651,-1.4124,-1.4118,-1.3907,-1.3907,-1.3697,-1.3591,-1.3275,-1.2636,-1.2108,-1.1791,-1.1156,-1.02,-0.7868,-0.5109,-0.4047,-0.2877,-0.2025,-0.1492,-0.1172,-0.7559,-0.8266,-0.9777,-0.9476,-0.8266,-0.9777,-1.038,-1.048,-1.1483,-1.2284,-1.279,-1.279,-1.279,-1.289,-1.289,-1.289,-1.289,-1.289,-1.289,-1.289,-1.289,-1.289,-1.289,-1.289,-1.289,-1.289,-1.289,-1.289,-1.289,-1.289,-1.289,-1.289,-1.289,-1.289,-1.289,-1.289,-1.289,-1.289,-1.289,-1.289,-1.289,-1.289,-1.289,-1.3117,-1.3184,-1.3255,-1.344,-1.3568,-1.3685,-1.3878,-1.4167,-1.4312,-1.4446,-1.4862,-1.4967,-1.5072,-1.5072,-1.5178,-1.5178,-1.4657,-1.4551,-1.4446,-1.4657,-1.4967,-1.5072,-1.5178,-1.5072,-1.4868,-1.5184,-1.5289,-1.5283,-1.5388,-1.5493,-1.55,-1.5605,-1.5605,-1.571,-1.571,-1.5815,-1.5815,-1.592,-1.6131,-1.6236,-1.6341,-1.6131,-1.5815,-1.5493,-1.5388,-1.5493,-1.5599,-1.571,-1.5815,-1.5815,-1.5815,-1.5815,-1.5493,-1.5283,-1.5283,-1.5283,-1.5283,-1.5283,-1.5072,-1.4756,-1.4434,-1.4118,-1.3591,-1.338,-1.2953,-1.0517,-0.8183,-0.564,-0.426,-0.3303,-0.2557,-0.2344,-0.9175,-0.9777,-1.1082,-1.1282,-1.0881,-1.1282,-1.1583,-1.1683,-1.2284,-1.279,-1.289,-1.289,-1.289,-1.289,-1.289,-1.289,-1.289,-1.289,-1.289,-1.289,-1.289,-1.289,-1.289,-1.289,-1.289,-1.289,-1.289,-1.289,-1.289,-1.299,-1.289,-1.289,-1.309,-1.289,-1.289,-1.289,-1.289,-1.289,-1.289,-1.289,-1.289,-1.299,-1.309,-1.339,-1.3441,-1.3693,-1.3958,-1.4092,-1.4191,-1.4313,-1.4725,-1.4889,-1.4943,-1.5382,-1.5388,-1.5388,-1.5283,-1.5283,-1.5388,-1.5289,-1.5394,-1.5289,-1.5184,-1.5388,-1.5283,-1.5283,-1.5283,-1.5388,-1.571,-1.5815,-1.5815,-1.6236,-1.6453,-1.6453,-1.6558,-1.6558,-1.6558,-1.6558,-1.6558,-1.6558,-1.6663,-1.6663,-1.6768,-1.6663,-1.6558,-1.6453,-1.6236,-1.6236,-1.6341,-1.6446,-1.6558,-1.6558,-1.6558,-1.6558,-1.6341,-1.6131,-1.6131,-1.6131,-1.6341,-1.6446,-1.6446,-1.6236,-1.6131,-1.5809,-1.5599,-1.5493,-1.4967,-1.4329,-1.3275,-1.1363,-0.8823,-0.6703,-0.564,-0.4792,-0.4047,-1.058,-1.1182,-1.1989,-1.2389,-1.2389,-1.2384,-1.2389,-1.2384,-1.279,-1.289,-1.289,-1.289,-1.289,-1.289,-1.289,-1.289,-1.289,-1.289,-1.289,-1.289,-1.289,-1.289,-1.289,-1.289,-1.289,-1.289,-1.289,-1.289,-1.289,-1.309,-1.339,-1.3484,-1.3484,-1.3584,-1.3484,-1.3384,-1.319,-1.329,-1.3384,-1.3584,-1.3584,-1.3584,-1.3684,-1.3884,-1.4001,-1.4125,-1.4498,-1.4678,-1.4763,-1.5031,-1.5246,-1.543,-1.5511,-1.5784,-1.5803,-1.592,-1.592,-1.592,-1.6026,-1.6131,-1.6131,-1.6026,-1.592,-1.592,-1.592,-1.6026,-1.6026,-1.6131,-1.6236,-1.6341,-1.6453,-1.6978,-1.6978,-1.6978,-1.6978,-1.6978,-1.6978,-1.6873,-1.6873,-1.6978,-1.6978,-1.6978,-1.6978,-1.6978,-1.6873,-1.6873,-1.6978,-1.6978,-1.6978,-1.6978,-1.6978,-1.6978,-1.6978,-1.6873,-1.6768,-1.6768,-1.6768,-1.6978,-1.6978,-1.6978,-1.6978,-1.6663,-1.6873,-1.6978,-1.6551,-1.6236,-1.6131,-1.5493,-1.4645,-1.3697,-1.2103,-1.0094,-0.8398,-0.7234,-0.6384,-1.1583,-1.2184,-1.2684,-1.289,-1.289,-1.289,-1.289,-1.289,-1.289,-1.289,-1.289,-1.289,-1.289,-1.289,-1.289,-1.289,-1.289,-1.289,-1.289,-1.289,-1.289,-1.289,-1.289,-1.289,-1.299,-1.299,-1.299,-1.319,-1.3084,-1.349,-1.3983,-1.4277,-1.4177,-1.4177,-1.4083,-1.4083,-1.3784,-1.3884,-1.3983,-1.4077,-1.4177,-1.4277,-1.4377,-1.4482,-1.4588,-1.4688,-1.4838,-1.49,-1.4969,-1.5189,-1.5532,-1.575,-1.6165,-1.6576,-1.6839,-1.6978,-1.6873,-1.6768,-1.6768,-1.6873,-1.6873,-1.6663,-1.6768,-1.6978,-1.6873,-1.6663,-1.6663,-1.6663,-1.6768,-1.6873,-1.6978,-1.6978,-1.6978,-1.6978,-1.6978,-1.6978,-1.6978,-1.6978,-1.6978,-1.6978,-1.6978,-1.6978,-1.6978,-1.6978,-1.6978,-1.6978,-1.6978,-1.6978,-1.6978,-1.6978,-1.6978,-1.6978,-1.6978,-1.6978,-1.6978,-1.6978,-1.6978,-1.6978,-1.6978,-1.6978,-1.6978,-1.6978,-1.6978,-1.6978,-1.6978,-1.6873,-1.6656,-1.6446,-1.6026,-1.5072,-1.4118,-1.2847,-1.094,-0.9886,-0.9038,-1.2189,-1.269,-1.279,-1.289,-1.289,-1.289,-1.289,-1.289,-1.289,-1.289,-1.289,-1.289,-1.289,-1.289,-1.289,-1.289,-1.289,-1.289,-1.289,-1.289,-1.299,-1.289,-1.299,-1.299,-1.319,-1.339,-1.349,-1.3584,-1.3983,-1.4283,-1.4283,-1.4476,-1.4676,-1.4576,-1.4682,-1.4782,-1.4582,-1.4482,-1.4582,-1.4576,-1.4576,-1.4676,-1.4775,-1.4981,-1.5081,-1.518,-1.5505,-1.5525,-1.559,-1.5822,-1.5976,-1.619,-1.6547,-1.6698,-1.6842,-1.6971,-1.6978,-1.6978,-1.6978,-1.6978,-1.6978,-1.6978,-1.6978,-1.6978,-1.6978,-1.6978,-1.6978,-1.6978,-1.6978,-1.6978,-1.6978,-1.6978,-1.6978,-1.6978,-1.6978,-1.6978,-1.6978,-1.6978,-1.6978,-1.6978,-1.6978,-1.6978,-1.6978,-1.6978,-1.6978,-1.6978,-1.6978,-1.6978,-1.6978,-1.6978,-1.6978,-1.6978,-1.6978,-1.6978,-1.6978,-1.6978,-1.6978,-1.6978,-1.6978,-1.6978,-1.6978,-1.6978,-1.6978,-1.6978,-1.6978,-1.6978,-1.6978,-1.6768,-1.6558,-1.6453,-1.571,-1.4645,-1.3591,-1.2425,-1.1579,-1.259,-1.289,-1.289,-1.289,-1.289,-1.289,-1.289,-1.289,-1.289,-1.289,-1.289,-1.289,-1.289,-1.289,-1.289,-1.289,-1.289,-1.289,-1.299,-1.329,-1.319,-1.3484,-1.3484,-1.3484,-1.3784,-1.3983,-1.4083,-1.4183,-1.4476,-1.4775,-1.4881,-1.518,-1.518,-1.5081,-1.528,-1.5379,-1.5379,-1.528,-1.518,-1.5174,-1.5081,-1.5081,-1.5379,-1.5479,-1.5578,-1.5884,-1.6083,-1.6182,-1.6137,-1.6232,-1.6252,-1.6374,-1.6605,-1.6666,-1.6822,-1.6944,-1.6978,-1.6978,-1.6978,-1.6978,-1.6978,-1.6978,-1.6978,-1.6978,-1.6978,-1.6978,-1.6978,-1.6978,-1.6978,-1.6978,-1.6978,-1.6978,-1.6978,-1.6978,-1.6978,-1.6978,-1.6978,-1.6978,-1.6978,-1.6978,-1.6978,-1.6978,-1.6978,-1.6978,-1.6978,-1.6978,-1.6978,-1.6978,-1.6978,-1.6978,-1.6978,-1.6978,-1.6978,-1.6978,-1.6978,-1.6978,-1.6978,-1.6978,-1.6978,-1.6978,-1.6978,-1.6978,-1.6978,-1.6978,-1.6978,-1.6978,-1.6978,-1.6978,-1.6873,-1.6768,-1.6768,-1.6026,-1.5178,-1.4434,-1.3697,-1.299,-1.299,-1.2984,-1.3084,-1.299,-1.3084,-1.3084,-1.299,-1.309,-1.2984,-1.299,-1.2984,-1.309,-1.329,-1.329,-1.3184,-1.3284,-1.329,-1.349,-1.379,-1.379,-1.3983,-1.4177,-1.4476,-1.4377,-1.4476,-1.4576,-1.4682,-1.4775,-1.5081,-1.5578,-1.6076,-1.5977,-1.5877,-1.5877,-1.5877,-1.5884,-1.5778,-1.5877,-1.5977,-1.5977,-1.6083,-1.6083,-1.6083,-1.6076,-1.6175,-1.6175,-1.6182,-1.6182,-1.633,-1.6392,-1.6488,-1.6517,-1.6708,-1.6906,-1.691,-1.6951,-1.6978,-1.6978,-1.6978,-1.6978,-1.6978,-1.6978,-1.6978,-1.6978,-1.6978,-1.6978,-1.6978,-1.6978,-1.6978,-1.6978,-1.6978,-1.6978,-1.6978,-1.6978,-1.6978,-1.6978,-1.6978,-1.6978,-1.6978,-1.6978,-1.6978,-1.6978,-1.6978,-1.6978,-1.6978,-1.6978,-1.6978,-1.6978,-1.6978,-1.6965,-1.6971,-1.6978,-1.6978,-1.6978,-1.6978,-1.6978,-1.6978,-1.6978,-1.6978,-1.6978,-1.6978,-1.6978,-1.6978,-1.6978,-1.6978,-1.6978,-1.6978,-1.6978,-1.6978,-1.6873,-1.6978,-1.6446,-1.5796,-1.5493,-1.349,-1.359,-1.3983,-1.4077,-1.4083,-1.4077,-1.4077,-1.4083,-1.4077,-1.3884,-1.359,-1.359,-1.3684,-1.3983,-1.3983,-1.3983,-1.3983,-1.3884,-1.4183,-1.4283,-1.4283,-1.4482,-1.4576,-1.4676,-1.4775,-1.4981,-1.518,-1.528,-1.5578,-1.5778,-1.5877,-1.6083,-1.6182,-1.6182,-1.6182,-1.6182,-1.6282,-1.6381,-1.6672,-1.6672,-1.6474,-1.6182,-1.6083,-1.6275,-1.6474,-1.6772,-1.6871,-1.7169,-1.7275,-1.7297,-1.7304,-1.7192,-1.6912,-1.72,-1.7148,-1.6913,-1.7106,-1.7154,-1.7168,-1.7174,-1.7188,-1.7083,-1.7083,-1.6978,-1.6978,-1.6978,-1.6978,-1.6978,-1.6978,-1.6978,-1.6978,-1.6978,-1.6978,-1.6978,-1.6978,-1.6978,-1.6978,-1.6978,-1.6978,-1.6978,-1.6978,-1.6978,-1.6978,-1.6978,-1.6978,-1.6978,-1.6978,-1.6978,-1.6971,-1.6965,-1.6937,-1.6944,-1.6971,-1.6978,-1.6978,-1.6978,-1.6978,-1.6978,-1.6978,-1.6978,-1.6978,-1.6978,-1.6978,-1.6978,-1.6978,-1.6978,-1.6978,-1.6978,-1.6978,-1.6951,-1.6904,-1.687,-1.6904,-1.638,-1.642,-1.3848,-1.4006,-1.4352,-1.4476,-1.4476,-1.4476,-1.4476,-1.4476,-1.4476,-1.4482,-1.4383,-1.4183,-1.4283,-1.4476,-1.4476,-1.4576,-1.4576,-1.4476,-1.4682,-1.4775,-1.4875,-1.5081,-1.5081,-1.5174,-1.5379,-1.5578,-1.5678,-1.5784,-1.6182,-1.6083,-1.6083,-1.6182,-1.6282,-1.6474,-1.6474,-1.6672,-1.697,-1.7169,-1.7466,-1.7466,-1.7268,-1.707,-1.707,-1.7169,-1.7466,-1.7657,-1.7954,-1.8251,-1.8251,-1.8358,-1.8366,-1.8359,-1.8189,-1.8161,-1.799,-1.7799,-1.7701,-1.7607,-1.7621,-1.7656,-1.7587,-1.7489,-1.7398,-1.7496,-1.6978,-1.6978,-1.6978,-1.6978,-1.6978,-1.6978,-1.6978,-1.6978,-1.6978,-1.6978,-1.6978,-1.6978,-1.6978,-1.6978,-1.6978,-1.6978,-1.6978,-1.6978,-1.6978,-1.6978,-1.6978,-1.6978,-1.6978,-1.6951,-1.6951,-1.6897,-1.6883,-1.689,-1.6897,-1.6951,-1.6978,-1.6978,-1.6978,-1.6978,-1.6944,-1.6965,-1.6965,-1.6971,-1.6978,-1.6978,-1.6978,-1.6978,-1.6978,-1.6937,-1.689,-1.6849,-1.6795,-1.6741,-1.6781,-1.6815,-1.6718,-1.4256,-1.4471,-1.4577,-1.4626,-1.4626,-1.462,-1.4713,-1.4713,-1.462,-1.4911,-1.5209,-1.4831,-1.4757,-1.4676,-1.4676,-1.4676,-1.4775,-1.4975,-1.518,-1.528,-1.5379,-1.5678,-1.5977,-1.6182,-1.6275,-1.6275,-1.6381,-1.6381,-1.6481,-1.6481,-1.658,-1.6481,-1.6772,-1.7162,-1.7261,-1.7665,-1.8061,-1.8358,-1.8647,-1.8944,-1.8746,-1.8449,-1.8251,-1.8358,-1.8655,-1.8952,-1.9141,-1.9339,-1.9339,-1.9437,-1.9437,-1.9321,-1.9319,-1.9031,-1.8916,-1.8744,-1.8583,-1.8564,-1.8609,-1.8707,-1.8455,-1.8291,-1.8103,-1.7804,-1.7489,-1.7279,-1.7279,-1.7174,-1.7174,-1.6971,-1.6971,-1.6978,-1.6978,-1.6978,-1.6978,-1.6978,-1.6978,-1.6978,-1.6978,-1.6978,-1.6978,-1.6978,-1.6971,-1.6971,-1.6944,-1.6951,-1.6937,-1.6924,-1.689,-1.6788,-1.672,-1.6741,-1.6761,-1.6829,-1.689,-1.689,-1.6856,-1.6829,-1.6795,-1.6883,-1.6937,-1.6904,-1.6917,-1.6978,-1.6978,-1.6951,-1.6904,-1.6849,-1.6802,-1.6734,-1.6686,-1.6639,-1.6625,-1.6653,-1.6653,-1.4874,-1.5391,-1.5418,-1.5334,-1.5341,-1.5341,-1.5425,-1.5431,-1.5341,-1.5431,-1.5478,-1.5669,-1.5658,-1.5778,-1.5778,-1.5778,-1.5678,-1.5678,-1.5778,-1.5877,-1.6175,-1.6374,-1.6672,-1.707,-1.707,-1.7275,-1.7375,-1.7375,-1.7367,-1.7367,-1.7566,-1.7962,-1.8061,-1.835,-1.8746,-1.9042,-1.9141,-1.9536,-1.9931,-2.0226,-2.0226,-1.9832,-1.9141,-1.924,-1.9544,-1.9643,-1.9939,-2.0333,-2.0432,-2.0522,-2.0522,-2.0458,-2.032,-2.0215,-2.01,-1.9874,-1.9727,-1.9605,-1.9685,-1.9695,-1.9458,-1.9386,-1.921,-1.8991,-1.8678,-1.8373,-1.8164,-1.7754,-1.7552,-1.7161,-1.7063,-1.6971,-1.6978,-1.6978,-1.6978,-1.6978,-1.6978,-1.6978,-1.6978,-1.6971,-1.6965,-1.6958,-1.6944,-1.6897,-1.6788,-1.6775,-1.6707,-1.67,-1.6693,-1.6625,-1.6564,-1.6585,-1.6605,-1.6598,-1.6605,-1.6659,-1.6646,-1.6632,-1.6646,-1.672,-1.6775,-1.6788,-1.6815,-1.6856,-1.6897,-1.6897,-1.6836,-1.672,-1.6659,-1.6598,-1.6571,-1.6537,-1.6503,-1.6483,-1.6483]},{"header":{"parameterUnit":"m.s-1","parameterCategory":1,"la1":31.0,"la2":29.5877,"lo1":-88.7671,"lo2":-86.6584,"dy":0.0162,"dx":0.0185,"nx":115,"ny":88,"refTime":"2024-09-02T06:00:00:Z","depth":0,"parameterNumber":3,"parameterNumberName":"V-component_of_WINDS"},"data":[0.0,0.0,0.0,0.0,0.0,0.0,0.0,0.0,0.0,0.0,0.0,0.0,0.0,0.0,0.0,0.0,0.0,0.0,0.0,0.0,0.0,0.0,0.0,0.0,0.0,0.0,0.0,0.0,0.0,0.0,0.0,0.0,0.0,0.0,0.0,0.0,0.0,0.0,0.0,0.0,0.0,0.0,0.0,0.0,0.0,0.0,0.0,0.0,0.0,0.0,0.0,0.0,0.0,0.0,0.0,0.0,0.0,0.0,0.0,0.0,0.0,0.0,0.0,0.0,0.0,0.0,0.0,0.0,0.0,0.0,0.0,0.0,0.0,0.0,0.0,0.0,0.0,0.0,0.0,0.0,0.0,0.0,0.0,0.0,0.0,0.0,0.0,0.0,0.0,0.0,0.0,0.0,0.0,0.0,0.0,0.0,0.0,0.0,0.0,0.0,0.0,0.0,0.0,0.0,0.0,0.0,0.0,0.0,0.0,0.0,0.0,0.0,0.0,0.0,0.0,0.0,0.0,0.0,0.0,0.0,0.0,0.0,0.0,0.0,0.0,0.0,0.0,0.0,0.0,0.0,0.0,0.0,0.0,0.0,0.0,0.0,0.0,0.0,0.0,0.0,0.0,0.0,0.0,0.0,0.0,0.0,0.0,0.0,0.0,0.0,0.0,0.0,0.0,0.0,0.0,0.0,0.0,0.0,0.0,0.0,0.0,0.0,0.0,0.0,0.0,0.0,0.0,0.0,0.0,0.0,0.0,0.0,0.0,0.0,0.0,0.0,0.0,0.0,0.0,0.0,0.0,0.0,0.0,0.0,0.0,0.0,0.0,0.0,0.0,0.0,0.0,0.0,0.0,0.0,0.0,0.0,0.0,0.0,0.0,0.0,0.0,0.0,0.0,0.0,0.0,0.0,0.0,0.0,0.0,0.0,0.0,0.0,0.0,0.0,0.0,0.0,0.0,0.0,0.0,0.0,0.0,0.0,0.0,0.0,0.0,0.0,0.0,0.0,0.0,0.0,0.0,0.0,0.0,0.0,0.0,0.0,0.0,0.0,0.0,0.0,0.0,0.0,0.0,0.0,0.0,0.0,0.0,0.0,0.0,0.0,0.0,0.0,0.0,0.0,0.0,0.0,0.0,0.0,0.0,0.0,0.0,0.0,0.0,0.0,0.0,0.0,0.0,0.0,0.0,0.0,0.0,0.0,0.0,0.0,0.0,0.0,0.0,0.0,0.0,0.0,0.0,0.0,0.0,0.0,0.0,0.0,0.0,0.0,0.0,0.0,0.0,0.0,0.0,0.0,0.0,0.0,0.0,0.0,0.0,0.0,0.0,0.0,0.0,0.0,0.0,0.0,0.0,0.0,0.0,0.0,0.0,0.0,0.0,0.0,0.0,0.0,0.0,0.0,0.0,0.0,0.0,0.0,0.0,0.0,0.0,0.0,0.0,0.0,0.0,0.0,0.0,0.0,0.0,0.0,0.0,0.0,0.0,0.0,0.0,0.0,0.0,0.0,0.0,0.0,0.0,0.0,0.0,0.0,0.0,0.0,0.0,0.0,0.0,0.0,0.0,0.0,0.0,0.0,0.0,0.0,0.0,0.0,0.0,0.0,0.0,0.0,0.0,0.0,0.0,0.0,0.0,0.0,0.0,0.0,0.0,0.0,0.0,0.0,0.0,0.0,0.0,0.0,0.0,0.0,0.0,0.0,0.0,0.0,0.0,0.0,0.0,0.0,0.0,0.0,0.0,0.0,0.0,0.0,0.0,0.0,0.0,0.0,0.0,0.0,0.0,0.0,0.0,0.0,0.0,0.0,0.0,0.0,0.0,0.0,0.0,0.0,0.0,0.0,0.0,0.0,0.0,0.0,0.0,0.0,0.0,0.0,0.0,0.0,0.0,0.0,0.0,0.0,0.0,0.0,0.0,0.0,0.0,0.0,0.0,0.0,0.0,0.0,0.0,0.0,0.0,0.0,0.0,0.0,0.0,0.0,0.0,0.0,0.0,0.0,0.0,0.0,0.0,0.0,0.0,0.0,0.0,0.0,0.0,0.0,0.0,0.0,0.0,0.0,0.0,0.0,0.0,0.0,0.0,0.0,0.0,0.0,0.0,0.0,0.0,0.0,0.0,0.0,0.0,0.0,0.0,0.0,0.0,0.0,0.0,0.0,0.0,0.0,0.0,0.0,0.0,0.0,0.0,0.0,0.0,0.0,0.0,0.0,0.0,0.0,0.0,0.0,0.0,0.0,0.0,0.0,0.0,0.0,0.0,0.0,0.0,0.0,0.0,0.0,0.0,0.0,0.0,0.0,0.0,0.0,0.0,0.0,0.0,0.0,0.0,0.0,0.0,0.0,0.0,0.0,0.0,0.0,0.0,0.0,0.0,0.0,0.0,0.0,0.0,0.0,0.0,0.0,0.0,0.0,0.0,0.0,0.0,0.0,0.0,0.0,0.0,0.0,0.0,0.0,0.0,0.0,0.0,0.0,0.0,0.0,0.0,0.0,0.0,0.0,0.0,0.0,0.0,0.0,0.0,0.0,0.0,0.0,0.0,0.0,0.0,0.0,0.0,0.0,0.0,0.0,0.0,0.0,0.0,0.0,0.0,0.0,0.0,0.0,0.0,0.0,0.0,0.0,0.0,0.0,0.0,0.0,0.0,0.0,0.0,0.0,0.0,0.0,0.0,0.0,0.0,0.0,0.0,0.0,0.0,0.0,0.0,0.0,0.0,0.0,0.0,0.0,0.0,0.0,0.0,0.0,0.0,0.0,0.0,0.0,0.0,0.0,0.0,0.0,0.0,0.0,0.0,0.0,0.0,0.0,0.0,0.0,0.0,0.0,0.0,0.0,0.0,0.0,0.0,0.0,0.0,0.0,0.0,0.0,0.0,0.0,0.0,0.0,0.0,0.0,0.0,0.0,0.0,0.0,0.0,0.0,0.0,0.0,0.0,0.0,0.0,0.0,0.0,0.0,0.0,0.0,0.0,0.0,0.0,0.0,0.0,0.0,0.0,0.0,0.0,0.0,0.0,0.0,0.0,0.0,0.0,0.0,0.0,0.0,0.0,0.0,0.0,0.0,0.0,0.0,0.0,0.0,0.0,0.0,0.0,0.0,0.0,0.0,0.0,0.0,0.0,0.0,0.0,0.0,0.0,0.0,0.0,0.0,0.0,0.0,0.0,0.0,0.0,0.0,0.0,0.0,0.0,0.0,0.0,0.0,0.0,0.0,0.0,0.0,0.0,0.0,0.0,0.0,0.0,0.0,0.0,0.0,0.0,0.0,0.0,0.0,0.0,0.0,0.0,0.0,0.0,0.0,0.0,0.0,0.0,0.0,0.0,0.0,0.0,0.0,0.0,0.0,0.0,0.0,0.0,0.0,0.0,0.0,0.0,0.0,0.0,0.0,0.0,0.0,0.0,0.0,0.0,0.0,0.0,0.0,0.0,0.0,0.0,0.0,0.0,0.0,0.0,0.0,0.0,0.0,0.0,0.0,0.0,0.0,0.0,0.0,0.0,0.0,0.0,0.0,0.0,0.0,0.0,0.0,0.0,0.0,0.0,0.0,0.0,0.0,0.0,0.0,0.0,0.0,0.0,0.0,0.0,0.0,0.0,0.0,0.0,0.0,0.0,0.0,0.0,0.0,0.0,0.0,0.0,0.0,0.0,0.0,0.0,0.0,0.0,0.0,0.0,0.0,0.0,0.0,0.0,0.0,0.0,0.0,0.0,0.0,0.0,0.0,0.0,0.0,0.0,0.0,0.0,0.0,0.0,0.0,0.0,0.0,0.0,0.0,0.0,0.0,0.0,0.0,0.0,0.0,0.0,0.0,0.0,0.0,0.0,0.0,0.0,0.0,0.0,0.0,0.0,0.0,0.0,0.0,0.0,0.0,0.0,0.0,0.0,0.0,0.0,0.0,0.0,0.0,0.0,0.0,0.0,0.0,0.0,0.0,0.0,0.0,0.0,0.0,0.0,0.0,0.0,0.0,0.0,0.0,0.0,0.0,0.0,0.0,0.0,0.0,0.0,0.0,0.0,0.0,0.0,0.0,0.0,0.0,0.0,0.0,0.0,0.0,0.0,0.0,0.0,0.0,0.0,0.0,0.0,0.0,0.0,0.0,0.0,0.0,0.0,0.0,0.0,0.0,0.0,0.0,0.0,0.0,0.0,0.0,0.0,0.0,0.0,0.0,0.0,0.0,0.0,0.0,0.0,0.0,0.0,0.0,0.0,0.0,0.0,0.0,0.0,0.0,0.0,0.0,0.0,0.0,4.0206,0.0,0.0,0.0,0.0,0.0,0.0,0.0,0.0,0.0,0.0,0.0,0.0,0.0,0.0,0.0,0.0,0.0,0.0,0.0,0.0,0.0,0.0,0.0,0.0,0.0,0.0,0.0,0.0,0.0,0.0,0.0,0.0,0.0,0.0,0.0,0.0,0.0,0.0,0.0,0.0,0.0,0.0,0.0,0.0,0.0,0.0,0.0,0.0,0.0,0.0,0.0,0.0,0.0,0.0,0.0,0.0,0.0,0.0,0.0,0.0,0.0,0.0,0.0,0.0,0.0,0.0,0.0,0.0,0.0,0.0,0.0,0.0,0.0,0.0,0.0,0.0,0.0,0.0,0.0,0.0,0.0,0.0,0.0,0.0,0.0,0.0,0.0,0.0,0.0,0.0,0.0,0.0,0.0,0.0,0.0,0.0,0.0,0.0,0.0,0.0,0.0,0.0,0.0,0.0,0.0,0.0,0.0,0.0,0.0,0.0,4.0787,4.1264,4.1874,4.2224,4.2207,0.0,0.0,0.0,0.0,0.0,0.0,0.0,0.0,0.0,0.0,0.0,0.0,0.0,0.0,0.0,0.0,0.0,0.0,0.0,0.0,0.0,0.0,0.0,0.0,0.0,0.0,0.0,0.0,0.0,0.0,0.0,0.0,0.0,0.0,0.0,0.0,0.0,0.0,0.0,0.0,0.0,0.0,0.0,0.0,0.0,0.0,0.0,0.0,0.0,0.0,0.0,0.0,0.0,0.0,0.0,0.0,0.0,0.0,0.0,0.0,0.0,0.0,0.0,0.0,0.0,0.0,0.0,0.0,0.0,0.0,0.0,0.0,0.0,0.0,0.0,0.0,0.0,0.0,0.0,0.0,0.0,0.0,0.0,0.0,0.0,0.0,0.0,0.0,0.0,0.0,0.0,0.0,0.0,0.0,0.0,0.0,0.0,0.0,0.0,0.0,0.0,0.0,0.0,0.0,0.0,0.0,0.0,0.0,0.0,0.0,0.0,0.0,4.3251,4.3504,4.3313,0.0,0.0,0.0,0.0,0.0,0.0,0.0,0.0,0.0,0.0,0.0,0.0,0.0,0.0,0.0,0.0,0.0,0.0,0.0,0.0,0.0,0.0,0.0,0.0,0.0,0.0,0.0,0.0,0.0,0.0,0.0,0.0,0.0,0.0,0.0,0.0,0.0,0.0,0.0,0.0,0.0,0.0,0.0,0.0,0.0,0.0,0.0,0.0,0.0,0.0,0.0,0.0,0.0,0.0,0.0,0.0,0.0,0.0,0.0,0.0,0.0,0.0,0.0,0.0,0.0,0.0,0.0,0.0,0.0,0.0,0.0,0.0,0.0,0.0,0.0,0.0,0.0,0.0,0.0,0.0,0.0,0.0,0.0,0.0,0.0,0.0,0.0,0.0,0.0,0.0,0.0,0.0,0.0,0.0,0.0,0.0,0.0,0.0,0.0,0.0,0.0,0.0,0.0,0.0,0.0,0.0,0.0,0.0,0.0,0.0,4.2435,4.3379,4.2896,0.0,4.1673,0.0,0.0,0.0,0.0,0.0,0.0,0.0,0.0,0.0,0.0,0.0,0.0,0.0,0.0,0.0,0.0,0.0,0.0,0.0,0.0,0.0,0.0,0.0,0.0,0.0,0.0,0.0,0.0,0.0,0.0,0.0,0.0,0.0,0.0,0.0,0.0,0.0,0.0,0.0,0.0,0.0,0.0,0.0,0.0,0.0,0.0,0.0,0.0,0.0,0.0,0.0,0.0,0.0,0.0,0.0,0.0,0.0,0.0,0.0,0.0,0.0,0.0,0.0,0.0,0.0,0.0,0.0,0.0,0.0,0.0,0.0,0.0,0.0,0.0,0.0,0.0,0.0,0.0,0.0,0.0,0.0,0.0,0.0,0.0,0.0,0.0,0.0,0.0,0.0,0.0,0.0,0.0,0.0,0.0,0.0,0.0,0.0,0.0,0.0,0.0,0.0,0.0,0.0,0.0,0.0,0.0,0.0,0.0,0.0,0.0,4.3753,4.5588,4.6001,4.5375,0.0,0.0,0.0,0.0,0.0,0.0,0.0,0.0,0.0,0.0,0.0,0.0,0.0,0.0,0.0,0.0,0.0,0.0,0.0,0.0,0.0,0.0,0.0,0.0,0.0,0.0,0.0,0.0,0.0,0.0,0.0,0.0,0.0,0.0,0.0,0.0,0.0,0.0,0.0,0.0,0.0,0.0,0.0,0.0,0.0,0.0,0.0,0.0,0.0,0.0,0.0,0.0,0.0,0.0,0.0,0.0,0.0,0.0,0.0,0.0,0.0,0.0,0.0,0.0,0.0,0.0,0.0,0.0,0.0,0.0,0.0,0.0,0.0,0.0,0.0,0.0,0.0,0.0,0.0,0.0,0.0,0.0,0.0,0.0,0.0,0.0,0.0,0.0,0.0,0.0,0.0,0.0,0.0,0.0,0.0,0.0,0.0,0.0,0.0,0.0,0.0,0.0,0.0,0.0,0.0,0.0,0.0,0.0,0.0,0.0,4.3461,0.0,4.6977,4.7729,4.7035,4.4859,0.0,0.0,0.0,0.0,0.0,0.0,0.0,0.0,0.0,0.0,0.0,0.0,0.0,0.0,0.0,0.0,0.0,0.0,0.0,0.0,0.0,0.0,0.0,0.0,0.0,0.0,0.0,0.0,0.0,0.0,0.0,0.0,0.0,0.0,0.0,0.0,0.0,0.0,0.0,0.0,0.0,0.0,0.0,0.0,0.0,0.0,0.0,0.0,0.0,0.0,0.0,0.0,0.0,0.0,0.0,0.0,0.0,0.0,0.0,0.0,0.0,0.0,0.0,0.0,0.0,0.0,0.0,0.0,0.0,0.0,0.0,0.0,0.0,0.0,0.0,0.0,0.0,0.0,0.0,0.0,0.0,0.0,0.0,0.0,0.0,0.0,0.0,0.0,0.0,0.0,0.0,0.0,0.0,0.0,0.0,0.0,0.0,0.0,0.0,0.0,0.0,0.0,0.0,0.0,0.0,0.0,0.0,0.0,0.0,4.367,4.5313,4.7038,4.6528,4.5457,0.0,0.0,0.0,0.0,0.0,0.0,0.0,0.0,0.0,0.0,0.0,0.0,0.0,0.0,0.0,0.0,0.0,0.0,0.0,0.0,0.0,0.0,0.0,0.0,0.0,0.0,0.0,0.0,0.0,0.0,0.0,0.0,0.0,0.0,0.0,0.0,0.0,0.0,0.0,0.0,0.0,0.0,0.0,0.0,0.0,0.0,0.0,0.0,0.0,0.0,0.0,0.0,0.0,0.0,0.0,0.0,0.0,0.0,0.0,0.0,0.0,0.0,0.0,0.0,0.0,0.0,0.0,0.0,0.0,0.0,0.0,0.0,0.0,0.0,0.0,0.0,0.0,0.0,0.0,0.0,0.0,0.0,0.0,0.0,0.0,0.0,0.0,0.0,0.0,0.0,0.0,0.0,0.0,0.0,0.0,0.0,0.0,0.0,0.0,0.0,0.0,0.0,0.0,0.0,0.0,0.0,0.0,0.0,0.0,4.3543,4.6284,4.7755,4.7843,4.7205,4.5862,0.0,0.0,0.0,0.0,0.0,0.0,0.0,0.0,0.0,0.0,0.0,0.0,0.0,0.0,0.0,0.0,0.0,0.0,0.0,0.0,0.0,0.0,0.0,0.0,0.0,0.0,0.0,0.0,0.0,0.0,0.0,0.0,0.0,0.0,0.0,0.0,0.0,0.0,0.0,0.0,0.0,0.0,0.0,0.0,0.0,0.0,0.0,0.0,0.0,0.0,0.0,0.0,0.0,0.0,0.0,0.0,0.0,0.0,0.0,0.0,0.0,0.0,0.0,0.0,0.0,0.0,0.0,0.0,0.0,0.0,0.0,0.0,0.0,0.0,0.0,0.0,0.0,0.0,0.0,0.0,0.0,0.0,0.0,0.0,0.0,0.0,0.0,0.0,0.0,0.0,0.0,0.0,0.0,0.0,0.0,0.0,0.0,0.0,0.0,0.0,0.0,0.0,0.0,0.0,0.0,0.0,0.0,0.0,0.0,4.4796,0.0,4.8957,0.0,4.7212,4.5722,0.0,0.0,0.0,0.0,0.0,0.0,0.0,0.0,0.0,0.0,0.0,0.0,0.0,0.0,0.0,0.0,0.0,0.0,0.0,0.0,0.0,0.0,0.0,0.0,0.0,0.0,0.0,0.0,0.0,0.0,0.0,0.0,0.0,0.0,0.0,0.0,0.0,0.0,0.0,0.0,0.0,0.0,0.0,0.0,0.0,0.0,0.0,0.0,0.0,0.0,0.0,0.0,0.0,0.0,0.0,0.0,0.0,0.0,0.0,0.0,0.0,0.0,0.0,0.0,0.0,0.0,0.0,0.0,0.0,0.0,0.0,0.0,0.0,0.0,0.0,0.0,0.0,0.0,0.0,0.0,0.0,0.0,0.0,0.0,0.0,0.0,0.0,0.0,0.0,0.0,0.0,0.0,0.0,0.0,0.0,0.0,0.0,0.0,0.0,0.0,0.0,0.0,0.0,0.0,0.0,0.0,0.0,0.0,4.173,4.5622,4.7477,4.8814,4.9415,4.6577,4.4876,0.0,0.0,0.0,0.0,0.0,0.0,0.0,0.0,0.0,0.0,0.0,0.0,0.0,0.0,0.0,0.0,0.0,0.0,0.0,0.0,0.0,0.0,0.0,0.0,0.0,0.0,0.0,0.0,0.0,0.0,0.0,0.0,0.0,0.0,0.0,0.0,0.0,0.0,0.0,0.0,0.0,0.0,0.0,0.0,0.0,0.0,0.0,0.0,0.0,0.0,0.0,0.0,0.0,0.0,0.0,0.0,0.0,0.0,0.0,0.0,0.0,0.0,0.0,0.0,0.0,0.0,0.0,0.0,0.0,0.0,0.0,0.0,0.0,0.0,0.0,0.0,0.0,0.0,0.0,0.0,0.0,0.0,0.0,0.0,0.0,0.0,0.0,0.0,0.0,0.0,0.0,0.0,0.0,0.0,0.0,0.0,0.0,0.0,0.0,0.0,0.0,0.0,0.0,0.0,0.0,0.0,0.0,0.0,0.0,4.8288,5.0519,5.148,5.1104,4.9213,4.7116,0.0,0.0,0.0,0.0,0.0,0.0,0.0,0.0,0.0,0.0,0.0,0.0,0.0,0.0,0.0,0.0,0.0,0.0,0.0,0.0,0.0,0.0,0.0,0.0,0.0,0.0,0.0,0.0,0.0,0.0,0.0,0.0,0.0,0.0,0.0,0.0,0.0,0.0,0.0,0.0,0.0,0.0,0.0,0.0,0.0,0.0,0.0,0.0,0.0,0.0,0.0,0.0,0.0,0.0,0.0,0.0,0.0,0.0,0.0,0.0,0.0,0.0,0.0,0.0,0.0,0.0,0.0,0.0,0.0,0.0,0.0,0.0,0.0,0.0,0.0,0.0,0.0,0.0,0.0,0.0,0.0,0.0,0.0,0.0,0.0,0.0,0.0,0.0,0.0,0.0,0.0,0.0,0.0,0.0,0.0,0.0,0.0,0.0,0.0,0.0,0.0,0.0,0.0,0.0,0.0,0.0,0.0,0.0,0.0,5.3688,5.4338,5.4531,5.4338,5.2227,4.9741,4.6846,0.0,0.0,0.0,0.0,0.0,0.0,0.0,0.0,0.0,0.0,0.0,0.0,0.0,0.0,0.0,0.0,0.0,0.0,0.0,0.0,0.0,0.0,0.0,0.0,0.0,0.0,0.0,0.0,0.0,0.0,0.0,0.0,0.0,0.0,0.0,0.0,0.0,0.0,0.0,0.0,0.0,0.0,0.0,0.0,0.0,0.0,0.0,0.0,0.0,0.0,0.0,0.0,0.0,0.0,0.0,0.0,0.0,0.0,0.0,0.0,0.0,0.0,0.0,0.0,0.0,0.0,0.0,0.0,0.0,0.0,0.0,0.0,0.0,0.0,0.0,0.0,0.0,0.0,0.0,0.0,0.0,0.0,0.0,0.0,0.0,0.0,0.0,0.0,0.0,0.0,0.0,0.0,0.0,0.0,0.0,0.0,0.0,0.0,0.0,0.0,0.0,0.0,0.0,0.0,0.0,0.0,0.0,0.0,6.1275,5.9008,5.8148,5.8799,5.569,5.274,0.0,0.0,0.0,0.0,0.0,0.0,0.0,0.0,0.0,0.0,0.0,0.0,0.0,0.0,0.0,0.0,0.0,0.0,0.0,0.0,0.0,0.0,0.0,0.0,0.0,0.0,0.0,0.0,0.0,0.0,0.0,0.0,0.0,0.0,0.0,0.0,0.0,0.0,0.0,0.0,0.0,0.0,0.0,0.0,0.0,0.0,0.0,0.0,0.0,0.0,0.0,0.0,0.0,0.0,0.0,0.0,0.0,0.0,0.0,0.0,0.0,0.0,0.0,0.0,0.0,0.0,0.0,0.0,0.0,0.0,0.0,0.0,0.0,0.0,0.0,0.0,0.0,0.0,0.0,0.0,0.0,0.0,0.0,0.0,0.0,0.0,0.0,0.0,0.0,0.0,0.0,0.0,0.0,0.0,0.0,0.0,0.0,0.0,0.0,0.0,0.0,0.0,0.0,0.0,0.0,0.0,0.0,0.0,0.0,6.4544,6.6003,6.5834,6.4168,6.0958,5.6922,0.0,0.0,0.0,0.0,0.0,0.0,0.0,0.0,0.0,0.0,0.0,0.0,0.0,0.0,0.0,0.0,0.0,0.0,0.0,0.0,0.0,0.0,0.0,0.0,0.0,0.0,0.0,0.0,0.0,0.0,0.0,0.0,0.0,0.0,0.0,0.0,0.0,0.0,0.0,0.0,0.0,0.0,0.0,0.0,0.0,0.0,0.0,0.0,0.0,0.0,0.0,0.0,0.0,0.0,0.0,0.0,0.0,0.0,0.0,0.0,0.0,0.0,0.0,0.0,0.0,0.0,0.0,0.0,0.0,0.0,0.0,0.0,0.0,0.0,0.0,0.0,0.0,0.0,0.0,0.0,0.0,0.0,0.0,0.0,0.0,0.0,0.0,0.0,0.0,0.0,0.0,0.0,0.0,0.0,0.0,0.0,0.0,0.0,0.0,0.0,0.0,0.0,0.0,0.0,0.0,0.0,0.0,0.0,6.105,6.7774,7.0413,7.1383,7.0621,6.5965,6.0715,0.0,0.0,0.0,0.0,0.0,0.0,0.0,0.0,0.0,0.0,0.0,0.0,0.0,0.0,0.0,0.0,0.0,0.0,0.0,0.0,0.0,0.0,0.0,0.0,0.0,0.0,0.0,0.0,0.0,0.0,0.0,0.0,0.0,0.0,0.0,0.0,0.0,0.0,0.0,0.0,0.0,0.0,0.0,0.0,0.0,0.0,0.0,0.0,0.0,0.0,0.0,0.0,0.0,0.0,0.0,0.0,0.0,0.0,0.0,0.0,0.0,0.0,0.0,0.0,0.0,0.0,0.0,0.0,0.0,0.0,0.0,0.0,0.0,0.0,0.0,0.0,0.0,0.0,0.0,0.0,0.0,0.0,0.0,0.0,0.0,0.0,0.0,0.0,0.0,0.0,0.0,0.0,0.0,0.0,0.0,0.0,0.0,0.0,0.0,0.0,0.0,0.0,0.0,0.0,0.0,0.0,0.0,0.0,6.3628,7.0569,7.3028,7.5048,7.6456,7.0268,6.4045,0.0,0.0,0.0,0.0,0.0,0.0,0.0,0.0,0.0,0.0,0.0,0.0,0.0,0.0,0.0,0.0,0.0,0.0,0.0,0.0,0.0,0.0,0.0,0.0,0.0,0.0,0.0,0.0,0.0,0.0,0.0,0.0,0.0,0.0,0.0,0.0,0.0,0.0,0.0,0.0,0.0,0.0,0.0,0.0,0.0,0.0,0.0,0.0,0.0,0.0,0.0,0.0,0.0,0.0,0.0,0.0,0.0,0.0,0.0,0.0,0.0,0.0,0.0,0.0,0.0,0.0,0.0,0.0,0.0,0.0,0.0,0.0,0.0,0.0,0.0,0.0,0.0,0.0,0.0,0.0,0.0,0.0,0.0,0.0,0.0,0.0,0.0,0.0,0.0,0.0,0.0,0.0,0.0,0.0,0.0,0.0,0.0,0.0,0.0,0.0,0.0,0.0,0.0,0.0,0.0,0.0,0.0,0.0,6.5808,7.3066,7.4531,7.5674,7.6647,7.2066,6.6475,0.0,0.0,0.0,0.0,0.0,0.0,0.0,0.0,0.0,0.0,0.0,0.0,0.0,0.0,0.0,0.0,0.0,0.0,0.0,0.0,0.0,0.0,0.0,0.0,0.0,0.0,0.0,0.0,0.0,0.0,0.0,0.0,0.0,0.0,0.0,0.0,0.0,0.0,0.0,0.0,0.0,0.0,0.0,0.0,0.0,0.0,0.0,0.0,4.8898,0.0,0.0,0.0,0.0,0.0,0.0,0.0,0.0,0.0,0.0,0.0,0.0,0.0,0.0,0.0,0.0,0.0,0.0,0.0,0.0,0.0,0.0,0.0,0.0,0.0,0.0,0.0,0.0,0.0,0.0,0.0,0.0,0.0,0.0,0.0,0.0,0.0,0.0,0.0,0.0,0.0,0.0,0.0,0.0,0.0,0.0,0.0,0.0,0.0,0.0,0.0,0.0,0.0,0.0,0.0,0.0,0.0,0.0,0.0,6.7496,7.3386,7.5216,7.6265,7.6532,7.3017,6.805,0.0,0.0,0.0,0.0,0.0,0.0,0.0,0.0,0.0,0.0,0.0,0.0,0.0,0.0,0.0,0.0,0.0,0.0,0.0,0.0,0.0,0.0,0.0,0.0,0.0,0.0,0.0,0.0,0.0,0.0,0.0,0.0,0.0,0.0,0.0,0.0,0.0,0.0,0.0,0.0,0.0,0.0,0.0,0.0,0.0,0.0,0.0,0.0,0.0,0.0,0.0,0.0,0.0,0.0,0.0,0.0,0.0,0.0,0.0,0.0,0.0,0.0,0.0,0.0,0.0,0.0,0.0,0.0,0.0,0.0,0.0,0.0,0.0,0.0,0.0,0.0,0.0,0.0,0.0,0.0,0.0,0.0,0.0,0.0,0.0,0.0,0.0,0.0,0.0,0.0,0.0,0.0,0.0,0.0,0.0,0.0,0.0,0.0,0.0,0.0,0.0,0.0,0.0,0.0,0.0,0.0,0.0,6.3795,6.8864,7.3055,7.5348,7.6494,7.6456,7.3132,6.8623,6.2853,0.0,0.0,0.0,0.0,0.0,0.0,0.0,0.0,0.0,0.0,0.0,0.0,0.0,0.0,0.0,0.0,0.0,0.0,0.0,0.0,0.0,0.0,0.0,0.0,0.0,0.0,0.0,0.0,0.0,0.0,0.0,0.0,0.0,0.0,0.0,0.0,0.0,0.0,4.9542,5.2813,0.0,0.0,0.0,0.0,0.0,0.0,0.0,0.0,5.546,0.0,0.0,0.0,0.0,0.0,0.0,0.0,0.0,0.0,0.0,0.0,0.0,0.0,0.0,0.0,0.0,0.0,0.0,0.0,0.0,0.0,0.0,0.0,0.0,0.0,0.0,0.0,0.0,0.0,0.0,0.0,0.0,0.0,0.0,0.0,0.0,0.0,0.0,0.0,0.0,0.0,0.0,0.0,0.0,0.0,0.0,0.0,0.0,0.0,0.0,0.0,0.0,0.0,0.0,0.0,0.0,5.8744,6.4657,6.9715,7.3896,7.508,7.5709,7.5594,7.1718,6.7171,6.1936,0.0,0.0,0.0,0.0,0.0,0.0,0.0,0.0,0.0,0.0,0.0,0.0,0.0,0.0,0.0,0.0,0.0,0.0,0.0,0.0,0.0,0.0,0.0,0.0,0.0,0.0,0.0,0.0,0.0,0.0,0.0,0.0,0.0,0.0,0.0,0.0,0.0,0.0,0.0,5.5891,5.7609,0.0,0.0,0.0,0.0,0.0,0.0,0.0,0.0,5.7246,0.0,0.0,0.0,0.0,0.0,0.0,0.0,0.0,0.0,0.0,0.0,0.0,0.0,0.0,0.0,0.0,0.0,0.0,0.0,0.0,0.0,0.0,0.0,0.0,0.0,0.0,0.0,0.0,0.0,0.0,0.0,0.0,0.0,0.0,0.0,0.0,0.0,0.0,0.0,0.0,0.0,0.0,0.0,0.0,0.0,0.0,0.0,0.0,0.0,0.0,0.0,0.0,0.0,0.0,0.0,5.9748,6.5671,7.0508,7.4221,7.5616,7.5867,7.4898,7.1685,6.7523,0.0,0.0,0.0,0.0,0.0,0.0,0.0,0.0,0.0,0.0,0.0,0.0,0.0,0.0,0.0,0.0,0.0,0.0,0.0,0.0,0.0,0.0,0.0,0.0,0.0,0.0,0.0,0.0,0.0,0.0,0.0,0.0,0.0,0.0,0.0,0.0,0.0,0.0,0.0,0.0,5.7705,5.9807,6.0237,0.0,0.0,0.0,0.0,0.0,0.0,6.0581,6.0375,0.0,0.0,0.0,0.0,0.0,0.0,0.0,0.0,0.0,0.0,0.0,0.0,0.0,0.0,0.0,0.0,0.0,0.0,0.0,0.0,0.0,0.0,0.0,0.0,0.0,0.0,0.0,0.0,0.0,0.0,0.0,0.0,0.0,0.0,0.0,0.0,0.0,0.0,0.0,0.0,0.0,0.0,0.0,0.0,0.0,0.0,0.0,0.0,0.0,0.0,0.0,0.0,0.0,0.0,0.0,6.0749,6.6667,7.1244,7.4389,7.6114,7.6021,7.3948,7.142,6.737,0.0,0.0,0.0,0.0,0.0,0.0,0.0,0.0,0.0,0.0,0.0,0.0,0.0,0.0,0.0,0.0,0.0,0.0,0.0,0.0,0.0,0.0,0.0,0.0,0.0,0.0,0.0,0.0,0.0,0.0,0.0,0.0,0.0,0.0,0.0,0.0,0.0,0.0,0.0,0.0,0.0,6.1931,6.3272,6.3399,0.0,0.0,0.0,0.0,6.3702,6.3989,0.0,0.0,0.0,0.0,0.0,0.0,0.0,0.0,0.0,0.0,0.0,0.0,0.0,0.0,0.0,0.0,0.0,0.0,0.0,0.0,0.0,0.0,0.0,0.0,0.0,0.0,0.0,0.0,0.0,0.0,0.0,0.0,0.0,0.0,0.0,0.0,0.0,0.0,0.0,0.0,0.0,0.0,0.0,0.0,0.0,0.0,0.0,0.0,0.0,0.0,0.0,0.0,0.0,0.0,0.0,0.0,6.1697,6.7563,7.182,7.4427,7.6153,7.5462,7.2264,6.9773,6.4674,0.0,0.0,0.0,0.0,0.0,0.0,0.0,0.0,0.0,0.0,0.0,0.0,0.0,0.0,0.0,0.0,0.0,0.0,0.0,0.0,0.0,0.0,0.0,0.0,0.0,0.0,0.0,0.0,0.0,0.0,0.0,0.0,0.0,0.0,0.0,0.0,0.0,0.0,0.0,0.0,0.0,6.4506,6.7594,6.7473,6.7275,0.0,0.0,6.733,6.8054,6.7009,0.0,0.0,0.0,0.0,0.0,0.0,0.0,0.0,0.0,0.0,0.0,0.0,0.0,0.0,0.0,0.0,0.0,0.0,0.0,0.0,0.0,0.0,0.0,0.0,0.0,0.0,0.0,0.0,0.0,0.0,0.0,0.0,0.0,0.0,0.0,0.0,0.0,0.0,0.0,0.0,0.0,0.0,0.0,0.0,0.0,0.0,0.0,0.0,0.0,0.0,0.0,0.0,0.0,0.0,0.0,5.6683,6.3962,6.8559,7.2261,7.5257,7.6986,7.6202,7.2778,7.0283,6.5663,0.0,0.0,0.0,0.0,0.0,0.0,0.0,0.0,0.0,0.0,0.0,0.0,0.0,0.0,0.0,0.0,0.0,0.0,0.0,0.0,0.0,0.0,0.0,0.0,0.0,0.0,0.0,0.0,0.0,0.0,0.0,0.0,0.0,0.0,0.0,0.0,0.0,0.0,0.0,0.0,0.0,0.0,6.9789,7.0867,0.0,0.0,0.0,7.1433,7.1814,0.0,0.0,0.0,0.0,0.0,0.0,0.0,0.0,0.0,0.0,0.0,0.0,0.0,0.0,0.0,0.0,0.0,0.0,0.0,0.0,0.0,0.0,0.0,0.0,0.0,0.0,0.0,0.0,0.0,0.0,0.0,0.0,0.0,0.0,0.0,0.0,0.0,0.0,0.0,0.0,0.0,0.0,0.0,0.0,0.0,0.0,0.0,0.0,0.0,0.0,0.0,0.0,0.0,0.0,0.0,0.0,0.0,6.5641,6.9179,7.2552,7.5899,7.7438,7.6538,7.312,7.0829,0.0,0.0,0.0,0.0,0.0,0.0,0.0,0.0,0.0,0.0,0.0,0.0,0.0,0.0,0.0,0.0,0.0,0.0,0.0,0.0,0.0,0.0,0.0,0.0,0.0,0.0,0.0,3.9757,0.0,0.0,0.0,0.0,0.0,0.0,0.0,0.0,0.0,0.0,0.0,0.0,0.0,0.0,6.8624,7.2218,7.4252,7.5432,0.0,0.0,7.5412,7.5412,7.4114,7.2303,0.0,0.0,0.0,0.0,0.0,0.0,0.0,0.0,0.0,0.0,0.0,0.0,0.0,0.0,0.0,0.0,0.0,0.0,0.0,0.0,0.0,0.0,0.0,0.0,0.0,0.0,0.0,0.0,0.0,0.0,0.0,0.0,0.0,0.0,0.0,0.0,0.0,0.0,0.0,0.0,0.0,0.0,0.0,0.0,0.0,0.0,0.0,0.0,0.0,0.0,0.0,0.0,0.0,0.0,0.0,6.5667,6.9206,7.2552,7.5899,7.6899,7.5745,7.2399,7.0629,6.5808,0.0,0.0,0.0,0.0,0.0,0.0,0.0,0.0,0.0,0.0,0.0,0.0,0.0,0.0,0.0,0.0,0.0,0.0,0.0,0.0,0.0,0.0,0.0,0.0,0.0,0.0,0.0,0.0,0.0,0.0,0.0,0.0,0.0,0.0,0.0,0.0,0.0,0.0,0.0,0.0,0.0,7.1544,7.5663,7.7815,7.9207,0.0,0.0,7.8939,7.8939,7.6227,7.3229,7.0708,0.0,0.0,0.0,0.0,0.0,0.0,0.0,0.0,0.0,0.0,0.0,0.0,0.0,0.0,0.0,0.0,0.0,0.0,0.0,0.0,0.0,0.0,0.0,0.0,0.0,0.0,0.0,0.0,0.0,0.0,0.0,0.0,0.0,0.0,0.0,0.0,0.0,0.0,0.0,0.0,0.0,0.0,0.0,0.0,0.0,0.0,0.0,0.0,0.0,0.0,0.0,0.0,0.0,5.8154,6.6513,6.9975,7.3091,7.5899,7.7323,7.6438,7.3091,7.186,6.7975,0.0,0.0,0.0,0.0,0.0,0.0,0.0,0.0,0.0,0.0,0.0,0.0,0.0,0.0,0.0,0.0,0.0,0.0,0.0,0.0,0.0,0.0,0.0,0.0,0.0,0.0,0.0,0.0,4.8067,4.8831,4.948,0.0,0.0,0.0,0.0,0.0,0.0,0.0,0.0,0.0,0.0,7.4631,7.7815,8.0182,0.0,0.0,8.1347,8.0659,8.0124,7.8061,7.5692,7.317,6.9473,0.0,0.0,0.0,0.0,0.0,0.0,0.0,0.0,0.0,0.0,0.0,0.0,0.0,0.0,0.0,0.0,0.0,0.0,0.0,0.0,0.0,0.0,0.0,0.0,0.0,0.0,0.0,0.0,0.0,0.0,0.0,0.0,0.0,0.0,0.0,0.0,0.0,0.0,0.0,0.0,0.0,0.0,0.0,0.0,0.0,0.0,0.0,0.0,0.0,0.0,0.0,0.0,5.9165,6.7026,7.0475,7.3437,7.5976,7.74,7.6746,7.3976,7.3014,6.9898,0.0,0.0,0.0,0.0,0.0,0.0,0.0,0.0,0.0,0.0,0.0,0.0,0.0,0.0,0.0,0.0,0.0,0.0,0.0,0.0,0.0,0.0,0.0,0.0,0.0,0.0,0.0,0.0,4.9339,4.9862,4.9862,0.0,0.0,0.0,0.0,0.0,0.0,0.0,0.0,0.0,0.0,7.751,8.0084,8.2397,8.3812,8.385,8.3161,8.2319,8.1478,7.9527,7.7385,7.5357,0.0,0.0,0.0,0.0,0.0,0.0,0.0,0.0,0.0,0.0,0.0,0.0,0.0,0.0,0.0,0.0,0.0,0.0,0.0,0.0,0.0,0.0,0.0,0.0,0.0,0.0,0.0,3.9479,0.0,0.0,3.4851,0.0,0.0,0.0,0.0,0.0,0.0,0.0,0.0,0.0,0.0,0.0,0.0,0.0,0.0,0.0,0.0,0.0,0.0,0.0,0.0,0.0,0.0,6.0319,6.7013,7.0475,7.3437,7.5938,7.6861,7.6515,7.4707,7.3899,7.1091,6.5974,0.0,0.0,0.0,0.0,0.0,0.0,0.0,0.0,0.0,0.0,0.0,0.0,0.0,0.0,0.0,0.0,0.0,0.0,0.0,0.0,0.0,0.0,0.0,0.0,0.0,0.0,5.0144,5.1082,5.1544,0.0,0.0,0.0,0.0,0.0,0.0,0.0,0.0,0.0,0.0,7.6532,8.0161,8.2701,8.4557,8.559,8.5664,8.4992,8.4187,8.3267,8.043,7.7993,0.0,0.0,0.0,0.0,0.0,0.0,0.0,0.0,0.0,0.0,0.0,0.0,0.0,0.0,0.0,0.0,0.0,0.0,0.0,0.0,0.0,0.0,0.0,0.0,0.0,0.0,0.0,4.688,4.5845,0.0,0.0,0.0,0.0,0.0,0.0,0.0,0.0,0.0,0.0,0.0,6.3155,6.2103,0.0,0.0,0.0,0.0,0.0,0.0,0.0,0.0,0.0,0.0,0.0,0.0,6.1743,6.7782,7.1321,7.4014,7.5938,7.7361,7.7015,7.4784,7.5553,7.3091,6.6859,0.0,0.0,0.0,0.0,0.0,0.0,0.0,0.0,0.0,0.0,0.0,0.0,0.0,0.0,0.0,0.0,0.0,0.0,0.0,0.0,0.0,0.0,0.0,0.0,0.0,5.0117,0.0,0.0,0.0,0.0,0.0,0.0,0.0,0.0,0.0,0.0,0.0,7.2843,7.6815,8.0493,8.3137,8.4016,8.5071,8.5779,0.0,0.0,0.0,0.0,0.0,0.0,0.0,0.0,0.0,0.0,0.0,0.0,0.0,0.0,7.6655,7.234,7.1543,7.1543,7.1558,0.0,0.0,0.0,0.0,0.0,0.0,0.0,0.0,0.0,0.0,0.0,0.0,0.0,0.0,5.5467,0.0,5.184,0.0,0.0,0.0,0.0,0.0,0.0,0.0,0.0,6.541,6.7858,7.0514,6.9783,6.8513,0.0,6.6551,6.2512,0.0,0.0,0.0,0.0,0.0,0.0,0.0,0.0,6.332,6.8308,7.2052,7.4591,7.5976,7.7361,7.713,7.5245,7.5668,7.3591,6.859,6.4089,6.005,0.0,0.0,0.0,0.0,0.0,0.0,0.0,0.0,0.0,0.0,0.0,0.0,0.0,0.0,0.0,0.0,0.0,0.0,0.0,0.0,0.0,0.0,0.0,5.2308,0.0,0.0,0.0,0.0,0.0,0.0,0.0,0.0,0.0,6.9489,7.3651,7.7883,8.127,8.3648,8.5143,8.5448,0.0,0.0,0.0,0.0,0.0,0.0,0.0,8.2237,8.2237,8.2479,8.2897,8.3511,8.433,8.5132,8.5709,0.0,0.0,7.9544,7.8529,7.8545,7.8545,7.9006,7.9544,8.0081,8.0849,8.1618,0.0,0.0,0.0,0.0,0.0,0.0,0.0,0.0,6.7452,6.6294,0.0,6.0802,0.0,0.0,0.0,0.0,0.0,6.0875,0.0,0.0,7.1283,7.3322,7.5014,7.5745,7.5284,7.3745,7.2822,7.1052,6.8167,5.9511,0.0,0.0,0.0,0.0,0.0,0.0,6.5115,6.859,7.2629,7.513,7.6015,7.6899,7.6938,7.6092,7.4476,7.2822,7.1014,6.7782,6.4859,6.2332,5.6703,0.0,0.0,0.0,0.0,0.0,0.0,0.0,0.0,0.0,0.0,0.0,0.0,0.0,0.0,0.0,0.0,0.0,0.0,0.0,0.0,5.2661,0.0,0.0,0.0,0.0,0.0,0.0,0.0,0.0,0.0,0.0,7.5165,7.8601,8.2267,8.5545,0.0,0.0,0.0,0.0,8.6108,8.6231,8.617,8.6132,8.617,8.5517,8.5538,8.7132,0.0,0.0,8.8556,8.9517,9.0017,9.0038,9.071,9.0325,8.7017,8.6115,8.6038,8.6132,8.6077,8.6247,8.6363,8.6846,8.7462,7.4036,0.0,0.0,0.0,0.0,6.9596,7.1006,7.2072,7.3161,7.2807,7.1252,6.9344,0.0,0.0,0.0,0.0,0.0,0.0,7.2462,7.6515,7.7284,7.8823,8.0977,8.0092,7.9361,7.89,7.8054,7.663,7.4591,7.0244,6.5243,5.9781,0.0,0.0,0.0,0.0,6.8321,7.1052,7.3476,7.5399,7.6899,7.7746,7.803,7.7784,7.5553,7.413,7.363,7.0937,6.859,6.6628,6.2666,0.0,0.0,0.0,0.0,0.0,0.0,0.0,0.0,0.0,0.0,0.0,0.0,0.0,0.0,0.0,0.0,0.0,0.0,0.0,5.628,5.8577,6.0308,0.0,0.0,0.0,0.0,0.0,0.0,0.0,0.0,0.0,8.5181,8.5937,8.688,0.0,0.0,8.9294,8.8406,8.806,8.7923,8.794,8.744,0.0,8.7863,8.7748,8.7979,8.9017,8.9979,9.1018,9.2056,9.2979,9.3518,9.3518,9.4249,9.448,9.3518,9.1364,9.0094,9.0479,9.0671,9.0864,9.1402,9.1748,9.1864,8.2045,7.7139,7.5011,7.4566,7.5411,7.6794,7.7885,7.8762,7.9569,7.9315,7.813,7.6476,7.4784,7.3091,7.1745,0.0,0.0,0.0,7.8054,8.0823,8.1516,8.2631,8.4016,8.3401,8.2901,8.2593,8.2093,8.0939,7.9246,7.74,7.4284,6.9783,0.0,0.0,6.6167,6.8629,7.0975,7.3168,7.5168,7.6553,7.7284,7.7438,7.7669,7.7977,7.6207,7.5053,7.4707,7.2937,7.1168,6.9436,6.6167,6.1858,0.0,0.0,0.0,0.0,0.0,0.0,0.0,0.0,0.0,0.0,0.0,4.8202,5.2549,0.0,0.0,0.0,5.65,5.8665,6.2166,6.3782,0.0,0.0,0.0,0.0,0.0,0.0,0.0,8.2362,8.5209,8.8017,9.0979,9.1213,9.1157,9.1402,9.1595,9.1364,9.0325,0.0,8.9671,8.9671,8.9556,8.9594,9.0094,9.0479,9.0941,9.1787,9.3056,9.4134,9.4634,9.5172,9.548,9.5557,9.5942,9.6288,9.6288,9.4595,9.3364,9.3903,9.4018,9.4172,9.4634,9.4749,9.4711,8.7902,8.7555,8.3632,8.2247,8.2785,8.3632,8.4439,8.5247,8.5978,8.544,8.3901,8.2285,8.0669,7.9054,7.8323,0.0,7.9169,8.0746,8.19,8.267,8.4286,8.4978,8.5016,8.5747,8.5709,8.4978,8.5016,8.417,8.2593,8.1708,8.09,7.99,7.2091,6.8398,6.909,7.1321,7.3245,7.4822,7.7169,7.8054,7.74,7.6592,7.6553,7.7284,7.6399,7.5529,7.4745,7.3952,7.2759,7.1027,6.7988,6.4717,6.1228,0.0,0.0,0.0,0.0,0.0,0.0,0.0,0.0,0.0,0.0,0.0,0.0,0.0,0.0,0.0,6.3089,0.0,6.7667,6.8744,0.0,0.0,0.0,7.6899,8.0169,8.1977,8.4263,8.7534,0.0,0.0,9.3613,9.4631,9.4824,9.4036,9.3228,9.2672,9.2595,9.1902,9.1402,9.1402,9.2056,9.2595,9.2595,9.3249,9.398,9.4711,9.5788,9.6134,9.6172,9.6211,9.6288,9.6249,9.6288,9.6288,9.6288,9.6134,9.6288,9.6134,9.6172,9.6211,9.6172,9.6134,9.6134,9.221,9.2056,9.0441,8.8402,8.6286,8.7094,8.7594,8.7825,8.7979,8.7863,8.7401,8.6363,8.5286,8.4286,8.4093,8.4132,8.4324,8.4709,8.5016,8.5209,8.5593,8.5824,8.5824,8.6017,8.6017,8.5824,8.5824,8.5593,8.5132,8.3708,8.2901,8.2477,7.8707,7.5938,7.4284,7.4784,7.5284,7.5707,7.6938,7.7784,7.8169,7.8015,7.7707,7.7323,7.5841,7.497,7.4777,7.4062,7.3138,7.2097,7.0632,6.8049,6.405,6.0695,0.0,0.0,0.0,0.0,0.0,0.0,0.0,0.0,0.0,5.8665,6.4551,0.0,6.7167,0.0,6.9436,7.1398,7.4553,7.6207,0.0,0.0,8.2477,8.4209,8.6324,8.8122,8.9982,9.2083,9.3345,9.4458,9.5692,9.6001,9.6039,9.5846,9.501,9.4134,9.3518,9.3249,9.3095,9.3095,9.3287,9.3672,9.4287,9.5134,9.5711,9.5942,9.6172,9.6288,9.6288,9.6288,9.6288,9.6288,9.6288,9.6288,9.6288,9.6288,9.6288,9.6288,9.6288,9.6288,9.6288,9.6288,9.6288,9.3672,9.3633,9.321,9.171,8.9671,8.9787,8.9825,8.9825,8.9825,8.9825,8.9748,8.8902,8.8055,8.7286,8.7248,8.7017,8.6671,8.6671,8.6478,8.6094,8.6094,8.6094,8.6094,8.6126,8.6159,8.6159,8.623,8.6245,8.6168,8.5282,8.482,8.4782,8.2663,8.0675,7.8984,7.7757,7.7011,7.6693,7.7502,7.831,7.9081,7.844,7.767,7.6808,7.5567,7.4359,7.3241,7.2841,7.2221,7.1383,7.0494,6.8988,6.6643,6.4142,6.0945,0.0,0.0,0.0,0.0,0.0,0.0,0.0,0.0,0.0,0.0,0.0,7.3985,7.595,7.6913,7.8493,8.1113,8.2524,8.4335,8.6839,8.7956,8.936,9.1435,9.2525,9.3653,9.4998,9.5609,9.6065,9.6529,9.6606,9.6606,9.6568,9.6101,9.5555,9.5084,9.4951,9.4951,9.4898,9.4898,9.5034,9.5537,9.598,9.6288,9.6288,9.6288,9.6288,9.6288,9.6288,9.6288,9.6288,9.6288,9.6288,9.6288,9.6288,9.6288,9.6288,9.6288,9.6288,9.6288,9.6288,9.6288,9.4018,9.4018,9.3903,9.3441,9.2749,9.1787,9.1325,9.121,9.121,9.121,9.1171,9.0402,8.9671,8.9017,8.9017,8.8479,8.7594,8.7555,8.7017,8.611,8.611,8.6126,8.6143,8.6223,8.6269,8.6231,8.6384,8.6452,8.6452,8.6452,8.6414,8.6336,8.4793,8.36,8.2702,8.0277,7.8615,7.7846,7.8656,7.9312,7.9814,7.8438,7.7241,7.6263,7.5323,7.3802,7.1688,7.1385,7.0993,7.0219,6.9572,6.9185,6.9012,6.7048,6.517,0.0,6.2913,0.0,0.0,0.0,0.0,0.0,0.0,0.0,0.0,7.7216,8.015,8.3316,8.4281,8.54,8.7061,8.8026,8.9454,9.1717,9.2103,9.3099,9.5247,9.5571,9.5872,9.6628,9.6735,9.6735,9.6735,9.6735,9.6735,9.6735,9.6696,9.6598,9.6552,9.6465,9.6393,9.6463,9.6446,9.6219,9.6245,9.6304,9.6325,9.6325,9.6325,9.6306,9.6306,9.6288,9.6288,9.6288,9.6288,9.6288,9.6288,9.6288,9.6288,9.6288,9.6288,9.6288,9.6288,9.6288,9.6288,9.5788,9.5749,9.5018,9.4672,9.4403,9.2903,9.1825,9.121,9.121,9.121,9.1171,9.1018,9.0864,9.0748,9.071,8.9902,8.8479,8.844,8.7644,8.6168,8.6207,8.6269,8.6428,8.6419,8.6486,8.6503,8.6556,8.6569,8.6569,8.6569,8.6569,8.6531,8.5525,8.4598,8.3771,0.0,0.0,0.0,8.0499,8.0344,7.9146,7.8798,7.7908,7.6401,7.4912,0.0,7.3386,7.2122,7.1378,7.1271,7.1736,0.0,0.0,0.0,0.0,0.0,0.0,0.0,0.0,0.0,0.0,0.0,8.0694,8.1496,8.0278,8.3631,8.6764,8.8723,8.9072,8.9845,9.1508,9.2475,9.3427,9.4588,9.5307,9.5941,9.642,9.6542,9.6701,9.6831,9.6887,9.6966,9.6927,9.6927,9.6927,9.6941,9.6927,9.6953,9.6926,9.6788,9.6661,9.663,9.6568,9.6542,9.6497,9.6442,9.648,9.6463,9.6411,9.6376,9.6376,9.6343,9.6288,9.6288,9.6288,9.6288,9.6288,9.6288,9.6288,9.6288,9.6288,9.6288,9.6288,9.6288,9.6288,9.6288,0.0,9.5826,9.5403,0.0,9.411,9.3281,9.2473,9.1574,9.1227,9.1241,9.1241,9.1258,9.1308,9.1308,9.0384,8.8804,8.8804,8.7927,8.6384,8.6345,8.6404,8.6556,8.6596,8.6584,8.6662,8.6649,8.67,8.6713,8.67,8.6725,8.6723,8.587,8.5258,8.488,8.3679,8.2184,8.0384,8.0799,8.0567,7.9714,7.9287,7.8279,7.6583,7.5343,0.0,0.0,0.0,0.0,0.0,0.0,0.0,0.0,0.0,0.0,7.4898,7.6066,7.7007,7.7506,8.0209,8.2559,8.4324,8.7535,8.8678,8.68,8.9023,9.1231,9.2806,9.3,9.3542,9.4782,9.5324,9.5802,9.6242,9.6643,9.6941,9.7005,9.7043,9.7118,9.7142,9.7176,9.7199,9.7199,9.7199,9.7199,9.7199,9.7199,9.7199,9.7176,9.6993,9.6845,9.6803,9.6691,9.663,9.6599,9.6583,9.6622,9.6568,9.659,9.6542,9.6509,9.6459,9.6446,9.6411,9.6394,9.6376,9.6379,9.6361,9.6343,9.6306,9.6288,9.6288,9.6288,9.6288,9.6288,9.6326,9.6306,9.6306,9.5901,9.5245,9.5217,9.469,9.3842,0.0,0.0,0.0,9.1413,9.1384,9.1431,9.1446,9.0597,8.9208,8.9169,8.8364,8.6995,8.684,8.6803,8.6894,8.68,8.6747,8.6758,8.6804,8.6866,8.6866,8.6877,8.687,8.6874,8.6234,8.5864,8.571,8.5159,8.3672,8.1398,8.1226,8.11,8.0789,8.012,7.8962,7.7243,7.642,7.5354,7.4116,7.3989,7.4321,7.5145,7.5372,7.6481,7.8753,7.9172,7.9734,8.0636,8.1766,8.2741,8.3482,8.5855,8.8014,8.9643,9.237,9.3599,9.272,9.3279,9.4327,9.5879,9.5995,9.6267,9.7004,9.7055,9.7079,9.7165,9.7176,9.7193,9.7304,9.7324,9.7334,9.742,9.7381,9.7429,9.739,9.7381,9.7429,9.739,9.7381,9.7429,9.7371,9.7221,9.703,9.7006,9.6914,9.6807,9.6778,9.6764,9.6764,9.6788,9.6735,9.6706,9.6645,9.6615,9.6583,9.6558,9.6542,9.6509,9.648,9.6463,9.6429,9.6379,9.6343,9.6325,9.6325,9.6306,9.6306,9.6343,9.6376,9.6376,9.6352,9.6227,9.5631,9.4899,9.407,9.3014,9.2558,9.2574,9.1861,9.1557,9.1571,9.1571,9.1069,9.0218,9.0179,8.9706,8.8866,8.813,8.7863,8.8012,8.7322,8.7001,8.7037,8.7046,8.7055,8.7055,8.705,8.7066,8.7075,8.6996,8.6611,8.6026,8.5843,8.527,8.4228,8.4098,8.3331,8.1929,8.1773,8.0877,7.9157,7.8273,7.8084,7.8552,7.7857,7.7874,7.872,7.9466,8.0422,8.1559,8.3003,8.422,8.5215,8.7323,8.8685,8.8841,9.1167,9.332,9.4901,9.555,9.5728,9.5554,9.5613,9.6118,9.7052,9.712,9.7207,9.7363,9.7353,9.7333,9.7351,9.7347,9.738,9.7387,9.7387,9.7395,9.7403,9.7403,9.7403,9.7442,9.7442,9.7442,9.7403,9.7442,9.7403,9.7426,9.736,9.7304,9.7253,9.7232,9.7176,9.7067,9.7057,9.7005,9.6993,9.6901,9.6873,9.6859,9.6817,9.6735,9.6676,9.6691,9.6676,9.6661,9.6599,9.6568,9.6574,9.6509,9.648,9.6411,9.6376,9.6358,9.6411,9.6509,9.6509,9.6558,9.6599,9.6309,9.606,9.57,9.4886,9.3891,9.2852,9.2067,9.1734,9.1812,9.1812,9.1372,9.0632,9.0629,9.022,8.9449,8.909,8.9,8.9076,8.8733,8.8507,8.8562,8.8562,8.8328,8.7907,8.7844,8.7663,8.7254,8.7247,8.7081,8.68,8.6761,8.658,8.6207,8.5229,8.4345,8.3605,8.3098,8.2474,8.1694,8.0851,8.0549,8.0939,8.0562,8.1008,8.2343,8.2741,8.3809,8.5621,8.6488,8.747,8.8841,9.0442,9.1575,9.2044,9.3982,9.5719,9.687,9.6973,9.6948,9.6908,9.6826,9.6974,9.7363,9.7402,9.7402,9.7402,9.7418,9.7395,9.7457,9.7479,9.7454,9.7474,9.7519,9.7519,9.748,9.7519,9.7519,9.7519,9.7519,9.7519,9.7519,9.7519,9.7519,9.7519,9.7493,9.7481,9.7386,9.7368,9.7312,9.7266,9.7275,9.7245,9.7225,9.7171,9.7137,9.7137,9.7064,9.7001,9.6965,9.6953,9.6928,9.6915,9.6862,9.6807,9.672,9.6691,9.663,9.6558,9.6476,9.6429,9.6525,9.6684,9.6661,9.6735,9.6848,9.6928,9.7052,9.7082,9.6128,9.4882,9.3434,9.2596,9.2165,9.206,9.2071,9.1713,9.1219,9.1139,9.0825,9.0252,9.0096,9.0046,9.008,8.9924,8.9846,8.9807,8.9846,8.9456,8.8872,8.8605,8.8122,8.7403,8.7351,8.733,8.7386,8.739,8.7401,8.7333,8.6062,8.5305,8.5067,8.4442,8.3978,8.3787,8.3334,8.3149,8.3344,8.3552,8.438,8.5827,8.5954,8.6973,8.9084,8.9482,9.0265,9.175,9.2882,9.3859,9.4718,9.5962,9.6971,9.763,9.7662,9.7614,9.7607,9.7549,9.7448,9.7474,9.7474,9.7474,9.7474,9.7474,9.748,9.7544,9.7544,9.7556,9.7616,9.7622,9.7622,9.7622,9.7622,9.7622,9.7622,9.7622,9.7622,9.7622,9.7622,9.7622,9.7622,9.7622,9.7561,9.7526,9.7461,9.744,9.7433,9.7442,9.741,9.741,9.7386,9.7368,9.7368,9.7338,9.7338,9.7255,9.7275,9.7246,9.7126,9.7082,9.7037,9.6965,9.6928,9.6875,9.672,9.6615,9.6509,9.6699,9.687,9.6875,9.7004,9.7242,9.7227,9.7323,9.7174,9.5705,9.4941,9.4598,9.3795,9.2952,9.2346,9.2261,9.2199,9.2129,9.2136,9.2119,9.1996,9.1301,9.1008,9.0997,9.03,8.9871,8.9949,8.9988,8.9949,8.9754,8.8955,8.8158,8.7475,8.7401,8.7362,8.7404,8.742,8.7389,8.7389,8.7243,8.6774,8.6022,8.5905,8.552,8.4788,8.5413,8.6118,8.678,8.768,8.8504,8.9407,8.9448,8.9958,9.0976,9.1758,9.2656,9.3594,9.5195,9.6484,9.7226,9.75,9.7576,9.769,9.7688,9.7685,9.7678,9.7674,9.7659,9.7593,9.7585,9.7581,9.7585,9.7624,9.7659,9.7663,9.7663,9.7667,9.7667,9.7671,9.7671,9.7671,9.7667,9.7667,9.7663,9.7663,9.7667,9.7663,9.7663,9.7663,9.7667,9.7667,9.7667,9.7655,9.7627,9.755,9.7526,9.7506,9.75,9.7433,9.744,9.7454,9.7467,9.7487,9.7505,9.7441,9.7467,9.7447,9.7426,9.7349,9.729,9.7216,9.7188,9.7121,9.6915,9.6809,9.6706,9.6902,9.7142,9.7132,9.7227,9.7338,9.7426,9.745,9.7355,9.622,9.5453,9.4874,9.4094,9.3218,9.2359,9.2373,9.2393,9.2417,9.2396,9.2407,9.2422,9.2086,9.1939,9.1913,9.164,9.1445,9.1445,9.1445,9.1171,9.0547,8.9341,8.8497,8.8123,8.7657,8.7387,8.7394,8.7401,8.7403,8.7403,8.7407,8.7449,8.7566,8.7133,8.6975,8.7176,8.7492,8.804,8.8861,8.9293,8.9881,9.0702,9.0781,9.1171,9.2031,9.289,9.375,9.4648,9.6289,9.7344,9.7656,9.7695,9.7695,9.7695,9.7694,9.7694,9.7693,9.7692,9.769,9.7646,9.7674,9.7667,9.7664,9.7703,9.7706,9.7706,9.7706,9.7703,9.7703,9.7695,9.7689,9.7689,9.7682,9.7675,9.7675,9.7675,9.7675,9.7675,9.7675,9.7682,9.7689,9.7692,9.7695,9.7701,9.7692,9.7639,9.7616,9.7616,9.7607,9.7563,9.7554,9.7558,9.7611,9.762,9.7628,9.7589,9.7616,9.7568,9.7554,9.7544,9.7478,9.7448,9.7372,9.7303,9.7175,9.7037,9.6889,9.7132,9.7305,9.7321,9.7387,9.7454,9.7526,9.7538,9.7427,9.6675,9.5827,9.4973,9.4168,9.33,9.2524,9.244,9.2456,9.2515,9.2494,9.2498,9.2503,9.2518,9.2482,9.2482,9.2528,9.2528,9.2532,9.2496,9.2105,9.1207,8.9841,8.8951,8.8607,8.7826,8.7401,8.7408,8.741,8.7529,8.7764,8.7766,8.8198,8.8825,8.8433,8.8431,8.9017,8.9293,8.9724,9.031,9.0586,9.0976,9.1601,9.164,9.1953,9.2578,9.3633,9.4726,9.582,9.7031,9.7695,9.7695,9.7695,9.7695,9.7695,9.7695,9.7695,9.7695,9.7695,9.7695,9.7695,9.7692,9.7687,9.7687,9.7685,9.7684,9.7684,9.7682,9.768,9.7678,9.7672,9.7706,9.7706,9.7698,9.7692,9.7692,9.7692,9.7692,9.7692,9.7692,9.7692,9.7703,9.7706,9.7672,9.768,9.7682,9.7678,9.7709,9.7703,9.7706,9.7706,9.7659,9.7662,9.7672,9.7674,9.7676,9.7637,9.7674,9.7669,9.762,9.7614,9.7604,9.762,9.7533,9.7461,9.7341,9.7264,9.7178,9.7329,9.7411,9.7454,9.7526,9.76,9.7588,9.7597,9.7519,9.6761,9.5914,9.5055,9.42,9.3338,9.2518,9.2479,9.2479,9.2518,9.2522,9.2482,9.2482,9.2486,9.2482,9.2486,9.2577,9.2585,9.2585,9.2556,9.217,9.1312,9.0414,8.9516,8.8736,8.7916,8.7447,8.749,8.7493,8.7847,8.8551,8.8671,8.9062,8.9804,8.9883,8.9883,9.0078,9.0703,9.1094,9.1328,9.2031,9.2461,9.2539,9.2461,9.2578,9.2734,9.4219,9.5859,9.7304,9.7617,9.7695,9.7695,9.7695,9.7695,9.7695,9.7695,9.7695,9.7695,9.7695,9.7695,9.7695,9.7695,9.7695,9.7695,9.7693,9.769,9.769,9.7685,9.7682,9.7682,9.7682,9.768,9.768,9.7678,9.7676,9.7678,9.7678,9.7676,9.7676,9.7678,9.7678,9.7678,9.768,9.768,9.7684,9.7687,9.7688,9.7682,9.7682,9.768,9.7682,9.7685,9.7695,9.7695,9.7694,9.7695,9.7695,9.7691,9.7689,9.7688,9.7684,9.7674,9.7664,9.7659,9.7585,9.7517,9.7517,9.7415,9.7454,9.7517,9.7567,9.7588,9.765,9.7659,9.7663,9.7589,9.6748,9.5896,9.5079,9.4228,9.3371,9.2551,9.2551,9.2549,9.258,9.2577,9.2583,9.259,9.2551,9.2551,9.2554,9.2597,9.2597,9.2599,9.2601,9.2447,9.2095,9.1275,9.038,8.9525,8.8665,8.8238,8.824,8.8241,8.8671,8.9453,8.9531,8.9961,9.0742,9.082,9.1094,9.1601,9.1406,9.1562,9.2148,9.2422,9.2578,9.2578,9.2578,9.2851,9.3515,9.5078,9.6523,9.7539,9.7695,9.7695,9.7695,9.7695,9.7695,9.7695,9.7695,9.7695,9.7695,9.7695,9.7695,9.7695,9.7695,9.7695,9.7695,9.7695,9.7695,9.7695,9.7695,9.7695,9.7693,9.769,9.7688,9.7687,9.7684,9.768,9.7682,9.768,9.768,9.768,9.768,9.7684,9.7687,9.7688,9.7689,9.7692,9.7694,9.7694,9.7694,9.7693,9.7693,9.7694,9.7695,9.7695,9.7695,9.7695,9.7695,9.7695,9.7695,9.7695,9.7695,9.7695,9.7695,9.7685,9.7682,9.7672,9.7643,9.7585,9.7544,9.7568,9.7632,9.7632,9.7682,9.7692,9.7692,9.7692,9.7617,9.7079,9.6185,9.5131,9.4515,9.3696,9.272,9.2603,9.2601,9.2597,9.2595,9.2597,9.2603,9.2603,9.2603,9.2605,9.2606,9.2608,9.2608,9.261,9.261,9.2493,9.1712,9.1011,9.0388,8.9569,8.914,8.914,8.9101,8.957,9.0234,9.0429,9.0859,9.1601,9.1719,9.1992,9.2422,9.2031,9.1992,9.2578,9.2578,9.2578,9.2617,9.2851,9.3554,9.4726,9.582,9.6875,9.7578,9.7695,9.7695,9.7695,9.7695,9.7695,9.7695,9.7695,9.7695,9.7695,9.7695,9.7695,9.7695,9.7695,9.7695,9.7695,9.7695,9.7695,9.7695,9.7695,9.7695,9.7695,9.7695,9.7694,9.7693,9.7691,9.7689,9.7695,9.7688,9.7689,9.7688,9.7688,9.769,9.7692,9.7693,9.7694,9.7695,9.7695,9.7695,9.7695,9.7695,9.7695,9.7695,9.7695,9.7695,9.7695,9.7695,9.7695,9.7695,9.7695,9.7695,9.7695,9.7695,9.7695,9.7695,9.7692,9.7688,9.7676,9.7662,9.7597,9.7678,9.7678,9.768,9.7678,9.7678,9.7676,9.7678,9.7678,9.7641,9.6626,9.522,9.5063,9.409,9.2839,9.2606,9.2608,9.2611,9.2608,9.2605,9.2606,9.2606,9.2606,9.2606,9.2611,9.2574,9.2574,9.2577,9.2578,9.2539,9.1836,9.1367,9.1133,9.039,9.0,9.0,9.0039,9.0429,9.1133,9.1289,9.1719,9.2461,9.25,9.25,9.2578,9.2539,9.2578,9.2656,9.2617,9.2617,9.2773,9.3398,9.4687,9.6015,9.6523,9.6875,9.7539,9.7695,9.7695,9.7695,9.7695,9.7695,9.7695,9.7695,9.7695,9.7695,9.7695,9.7695,9.7695,9.7695,9.7695,9.7695,9.7695,9.7695,9.7695,9.7695,9.7695,9.7695,9.7695,9.7695,9.7695,9.7695,9.7695,9.7695,9.7695,9.7695,9.7695,9.7695,9.7695,9.7695,9.7695,9.7695,9.7695,9.7695,9.7695,9.7695,9.7695,9.7695,9.7695,9.7695,9.7695,9.7695,9.7695,9.7695,9.7695,9.7695,9.7695,9.7695,9.7695,9.7695,9.7695,9.7695,9.7695,9.769,9.7682,9.7676,9.768,9.768,9.768,9.768,9.768,9.768,9.768,9.768,9.7687,9.6712,9.5385,9.5153,9.4217,9.289,9.2577,9.2578,9.2577,9.2577,9.2578,9.2578,9.2578,9.2578,9.2578,9.2578,9.2577,9.2578,9.2578,9.2578,9.2539,9.2304,9.1914,9.1328,9.1054,9.0898,9.0898,9.0898,9.1328,9.207,9.2187,9.2344,9.2578,9.2578,9.2578,9.2578,9.2577,9.2849,9.3435,9.2929,9.289,9.3437,9.375,9.4687,9.6211,9.7031,9.7422,9.7656,9.7695,9.7695,9.7695,9.7695,9.7695,9.7695,9.7695,9.7695,9.7695,9.7695,9.7695,9.7695,9.7695,9.7695,9.7695,9.7695,9.7695,9.7695,9.7695,9.7695,9.7695,9.7695,9.7695,9.7695,9.7695,9.7695,9.7695,9.7695,9.7695,9.7695,9.7695,9.7695,9.7695,9.7695,9.7695,9.7695,9.7695,9.7695,9.7695,9.7695,9.7695,9.7695,9.7695,9.7695,9.7695,9.7695,9.7695,9.7695,9.7695,9.7695,9.7695,9.7695,9.7695,9.7695,9.7695,9.7695,9.7695,9.7693,9.7689,9.7689,9.7689,9.7689,9.7689,9.7689,9.7689,9.7689,9.7689,9.7692,9.6951,9.5819,9.5351,9.4414,9.3242,9.2773,9.2617,9.2578,9.2578,9.2578,9.2578,9.2578,9.2578,9.2578,9.2578,9.2578,9.2578,9.2578,9.2578,9.2578,9.2578,9.2304,9.1875,9.1797,9.1797,9.1797,9.1797,9.2109,9.2539,9.2578,9.2578,9.2578,9.2577,9.2575,9.2613,9.2882,9.3308,9.3812,9.3583,9.3783,9.4293,9.4645,9.5542,9.6831,9.7422,9.769,9.769,9.7695,9.7695,9.7693,9.7695,9.7693,9.7693,9.7693,9.7695,9.7695,9.7695,9.7695,9.7695,9.7695,9.7695,9.7695,9.7695,9.7695,9.7695,9.7695,9.7695,9.7695,9.7695,9.7695,9.7695,9.7695,9.7695,9.7695,9.7695,9.7695,9.7695,9.7695,9.7695,9.7695,9.7695,9.7695,9.7695,9.7695,9.7695,9.7695,9.7695,9.7695,9.7695,9.7695,9.7695,9.7695,9.7695,9.7695,9.7695,9.7695,9.7695,9.7695,9.7695,9.7695,9.7695,9.7695,9.7695,9.7695,9.7695,9.7693,9.7695,9.7695,9.7695,9.7695,9.7695,9.7695,9.7695,9.7695,9.7695,9.7226,9.6367,9.5547,9.4687,9.3828,9.2969,9.2578,9.2578,9.2578,9.2578,9.2578,9.2578,9.2578,9.2578,9.2578,9.2578,9.2578,9.2578,9.2578,9.2578,9.2578,9.2578,9.25,9.2461,9.2539,9.2461,9.2578,9.2539,9.2578,9.2575,9.2573,9.2572,9.2567,9.2636,9.2666,9.3324,9.3865,9.4246,9.4864,9.519,9.529,9.5912,9.6727,9.7466,9.7698,9.7664,9.7664,9.7672,9.7678,9.7678,9.7678,9.7678,9.7678,9.7678,9.7678,9.768,9.7684,9.7688,9.7689,9.7693,9.7695,9.7695,9.7695,9.7695,9.7695,9.7695,9.7695,9.7695,9.7695,9.7695,9.7695,9.7695,9.7695,9.7695,9.7695,9.7695,9.7695,9.7695,9.7695,9.7695,9.7695,9.7695,9.7695,9.7695,9.7695,9.7695,9.7695,9.7695,9.7695,9.7695,9.7695,9.7695,9.7695,9.7695,9.7695,9.7695,9.7695,9.7695,9.7695,9.7695,9.7695,9.7695,9.7695,9.7695,9.7695,9.7695,9.7695,9.7695,9.7695,9.7695,9.7695,9.7695,9.7695,9.7695,9.7695,9.7265,9.6445,9.5586,9.4765,9.3867,9.3008,9.2578,9.2578,9.2578,9.2578,9.2578,9.2578,9.2578,9.2578,9.2578,9.2578,9.2578,9.2578,9.2578,9.2578,9.2578,9.2578,9.2578,9.2578,9.2578,9.2577,9.2576,9.2574,9.2609,9.2562,9.2517,9.2515,9.2543,9.2847,9.3465,9.3685,9.4454,9.5534,9.6441,9.6573,9.6081,9.6787,9.7369,9.76,9.76,9.7636,9.7639,9.7643,9.761,9.761,9.761,9.761,9.761,9.765,9.761,9.761,9.7614,9.7662,9.7669,9.7676,9.768,9.7687,9.769,9.7694,9.7695,9.7695,9.7695,9.7695,9.7695,9.7695,9.7695,9.7695,9.7695,9.7695,9.7695,9.7695,9.7695,9.7695,9.7695,9.7695,9.7695,9.7695,9.7695,9.7695,9.7695,9.7695,9.7695,9.7695,9.7695,9.7695,9.7695,9.7695,9.7695,9.7695,9.7695,9.7695,9.7695,9.7695,9.7695,9.7695,9.7695,9.7695,9.7695,9.7695,9.7695,9.7695,9.7695,9.7695,9.7695,9.7695,9.7695,9.7695,9.7695,9.7695,9.7695,9.7461,9.6797,9.5703,9.4922,9.4336,9.3164,9.2617,9.2578,9.2578,9.2578,9.2578,9.2578,9.2578,9.2578,9.2578,9.2578,9.2578,9.2578,9.2578,9.2578,9.2578,9.2578,9.2578,9.2577,9.2575,9.2567,9.2566,9.2562,9.2549,9.2535,9.2486,9.2475,9.2455,9.2896,9.3621,9.4028,9.5024,9.6543,9.7162,9.7206,9.6976,9.726,9.7517,9.7517,9.7517,9.7517,9.7517,9.7538,9.7554,9.7554,9.7563,9.7607,9.7607,9.7607,9.7607,9.7611,9.7616,9.7628,9.7636,9.7646,9.7656,9.7664,9.7676,9.7684,9.7695,9.7691,9.7694,9.7695,9.7695,9.7695,9.7695,9.7695,9.7695,9.7695,9.7695,9.7695,9.7695,9.7695,9.7695,9.7695,9.7695,9.7695,9.7695,9.7695,9.7695,9.7695,9.7695,9.7695,9.7695,9.7695,9.7695,9.7695,9.7695,9.7695,9.7695,9.7695,9.7695,9.7695,9.7695,9.7695,9.7695,9.7695,9.7695,9.7695,9.7695,9.7695,9.7695,9.7695,9.7695,9.7695,9.7695,9.7695,9.7695,9.7695,9.7695,9.7656,9.7265,9.5898,9.5195,9.5078,9.3359,9.2578,9.2578,9.2578,9.2578,9.2578,9.2578,9.2578,9.2578,9.2578,9.2578,9.2578,9.2578,9.2578,9.2578,9.2578,9.2578,9.2573,9.2572,9.2564,9.2507,9.2502,9.2493,9.251,9.2481,9.2417,9.239,9.2393,9.2742,9.3539,9.4582,9.559,9.678,9.7284,9.7275,9.7433,9.741,9.7347,9.7377,9.7377,9.7377,9.7347,9.7403,9.7433,9.7493,9.7506,9.7571,9.7571,9.7577,9.7583,9.7577,9.755,9.7567,9.7572,9.7568,9.7572,9.7593,9.7646,9.7659,9.7664,9.7672,9.7685,9.7693,9.7695,9.7695,9.7695,9.7695,9.7695,9.7695,9.7695,9.7695,9.7695,9.7695,9.7695,9.7695,9.7695,9.7695,9.7695,9.7695,9.7695,9.7695,9.7695,9.7695,9.7695,9.7695,9.7695,9.7695,9.7695,9.7695,9.7695,9.7695,9.7695,9.7695,9.7695,9.7695,9.7695,9.7695,9.7695,9.7695,9.7695,9.7695,9.7695,9.7695,9.7695,9.7695,9.7695,9.7695,9.7695,9.7695,9.7695,9.7695,9.7304,9.5937,9.5195,9.5078,9.3398,9.2578,9.2578,9.2578,9.2578,9.2575,9.261,9.2609,9.261,9.2576,9.2578,9.2578,9.2577,9.2576,9.2575,9.2571,9.2566,9.2517,9.2512,9.2541,9.2468,9.2442,9.2422,9.2429,9.238,9.2292,9.2246,9.2204,9.2579,9.3454,9.4853,9.6087,9.6871,9.7126,9.7176,9.7171,9.7165,9.7175,9.7186,9.7186,9.7186,9.7186,9.7206,9.7237,9.7343,9.7333,9.739,9.7433,9.7433,9.7424,9.7424,9.7441,9.7457,9.7434,9.7418,9.7461,9.7522,9.7563,9.7616,9.7589,9.76,9.761,9.7623,9.7637,9.7685,9.7685,9.7685,9.7687,9.7687,9.7685,9.7688,9.7691,9.7693,9.7694,9.7695,9.7695,9.7695,9.7695,9.7695,9.7695,9.7695,9.7695,9.7695,9.7695,9.7695,9.7695,9.7695,9.7695,9.7695,9.7695,9.7695,9.7695,9.7695,9.7695,9.7695,9.7695,9.7695,9.7695,9.7695,9.7695,9.7695,9.7695,9.7695,9.7695,9.7695,9.7695,9.7695,9.7695,9.7695,9.7695,9.75,9.6914,9.5742,9.5,9.4492,9.3242,9.2578,9.2577,9.2573,9.2567,9.2558,9.2551,9.2549,9.2549,9.256,9.2528,9.2531,9.2528,9.2564,9.2558,9.2551,9.2499,9.2475,9.2471,9.2437,9.2378,9.2341,9.2299,9.2254,9.2195,9.2132,9.2122,9.2092,9.271,9.3752,9.5099,9.6174,9.6902,9.6993,9.6993,9.6979,9.6967,9.6979,9.7028,9.7028,9.7079,9.7079,9.7064,9.7126,9.7199,9.7193,9.7225,9.7245,9.7255,9.7255,9.7255,9.7255,9.7266,9.7246,9.7266,9.7303,9.7387,9.7433,9.7467,9.7505,9.7533,9.7544,9.7558,9.7597,9.7664,9.7664,9.7625,9.7625,9.7664,9.7664,9.7664,9.763,9.7678,9.7682,9.7684,9.7695,9.7695,9.7695,9.7695,9.7695,9.7695,9.7695,9.7695,9.7695,9.7695,9.7695,9.7695,9.7695,9.7695,9.7695,9.7695,9.7695,9.7695,9.7695,9.7695,9.7695,9.7695,9.7695,9.7695,9.7695,9.7695,9.7695,9.7695,9.7695,9.7695,9.7695,9.7695,9.7695,9.7695,9.7695,9.7265,9.6445,9.5586,9.4765,9.3866,9.3003,9.261,9.2567,9.2554,9.2496,9.2525,9.2518,9.251,9.251,9.2471,9.2471,9.2447,9.2499,9.2493,9.2479,9.2507,9.2437,9.2396,9.2384,9.2334,9.2238,9.2217,9.2141,9.2103,9.2042,9.1978,9.1971,9.1999,9.2739,9.4124,9.4886,9.5907,9.6641,9.6884,9.6856,9.6822,9.6822,9.6856,9.6939,9.6979,9.6979,9.6979,9.7019,9.7005,9.7069,9.7079,9.7076,9.7087,9.7099,9.7099,9.7099,9.7099,9.7099,9.7099,9.7121,9.7182,9.7253,9.7285,9.7294,9.7329,9.7395,9.7426,9.7454,9.7522,9.7549,9.7628,9.7628,9.7628,9.7628,9.7628,9.7589,9.7593,9.7643,9.7692,9.7659,9.7664,9.7672,9.7676,9.7637,9.768,9.7685,9.7695,9.7695,9.7695,9.7695,9.7695,9.7695,9.7695,9.7695,9.7695,9.7695,9.7695,9.7695,9.7695,9.7695,9.7695,9.7695,9.7695,9.7695,9.7695,9.7695,9.7695,9.7695,9.7695,9.7695,9.7695,9.7695,9.7695,9.7695,9.7695,9.7187,9.6326,9.5544,9.4722,9.3779,9.291,9.2546,9.2528,9.2468,9.2494,9.2481,9.2466,9.2446,9.2384,9.2378,9.236,9.236,9.2401,9.2437,9.2417,9.2401,9.2334,9.2254,9.2238,9.2178,9.2093,9.2021,9.2028,9.2005,9.1948,9.1888,9.185,9.1941,9.2535,9.3991,9.4456,9.5332,9.6464,9.6812,9.6798,9.6783,9.6822,9.6798,9.6827,9.6841,9.6841,9.6841,9.687,9.6898,9.6939,9.6953,9.6954,9.698,9.7005,9.7005,9.7005,9.7005,9.7005,9.7018,9.7043,9.7118,9.713,9.7149,9.7143,9.7136,9.7196,9.7227,9.7305,9.736,9.7395,9.7493,9.7556,9.7572,9.7561,9.7561,9.7561,9.7567,9.7583,9.7602,9.7611,9.7585,9.7597,9.7604,9.7607,9.7656,9.7703,9.7684,9.7695,9.7695,9.7695,9.7695,9.7695,9.7695,9.7695,9.7695,9.7695,9.7695,9.7695,9.7695,9.7695,9.7695,9.7695,9.7695,9.7695,9.7695,9.7695,9.7695,9.7695,9.7695,9.7695,9.7695,9.7695,9.7695,9.7694,9.7655,9.6948,9.5926,9.5259,9.4394,9.3364,9.2713,9.2442,9.2396,9.2411,9.2393,9.2373,9.2299,9.2269,9.2246,9.2229,9.2187,9.2178,9.2199,9.2253,9.2238,9.219,9.2169,9.2132,9.2102,9.206,9.1944,9.1924,9.1927,9.1902,9.1825,9.1773,9.1732,9.1771,9.2479,9.3316,9.4037,9.4888,9.5855,9.6667,9.6783,9.6822,9.6822,9.6822,9.6822,9.6822,9.6822,9.6822,9.6822,9.6798,9.6827,9.6841,9.6856,9.6884,9.6898,9.6898,9.6898,9.6898,9.6898,9.6912,9.6912,9.6966,9.6993,9.6993,9.7018,9.7067,9.7091,9.7114,9.7188,9.7182,9.7246,9.7355,9.7418,9.7434,9.7489,9.7489,9.7496,9.7518,9.75,9.748,9.7499,9.7511,9.7483,9.7533,9.7538,9.7563,9.7624,9.7659,9.7676,9.768,9.7687,9.769,9.7695,9.7695,9.7695,9.7695,9.7695,9.7695,9.7695,9.7695,9.7695,9.7695,9.7695,9.7695,9.7695,9.7695,9.7695,9.7695,9.7695,9.7695,9.7695,9.7695,9.7695,9.7694,9.769,9.7493,9.6544,9.5196,9.4796,9.3927,9.2806,9.2401,9.2327,9.2252,9.2252,9.2195,9.2169,9.2132,9.2103,9.2073,9.2042,9.2021,9.2011,9.2,9.2011,9.2083,9.2063,9.1989,9.1971,9.1987,9.1951,9.185,9.1799,9.1773,9.1746,9.1744,9.1716,9.1716,9.1754,9.2218,9.3147,9.3882,9.4694,9.5893,9.6474,9.6783,9.6822,9.6822,9.6822,9.6822,9.6822,9.6822,9.6822,9.6822,9.6822,9.6822,9.6783,9.6836,9.6812,9.6822,9.6783,9.6798,9.6812,9.6836,9.6822,9.6798,9.6827,9.687,9.687,9.6912,9.6953,9.7006,9.7044,9.7069,9.7055,9.7052,9.7143,9.7264,9.7304,9.7305,9.7323,9.7333,9.7342,9.7321,9.7329,9.7308,9.7316,9.7341,9.7403,9.7433,9.748,9.7522,9.7572,9.7593,9.76,9.7662,9.7676,9.7682,9.7695,9.769,9.7692,9.7695,9.7695,9.7695,9.7695,9.7695,9.7695,9.7695,9.7695,9.7695,9.7695,9.7695,9.7695,9.7695,9.7656,9.7695,9.7617,9.7576,9.765,9.7524,9.6852,9.601,9.4875,9.4193,9.3387,9.2555,9.2269,9.2169,9.2093,9.2063,9.2063,9.2042,9.2032,9.2,9.2005,9.2033,9.1948,9.1912,9.1863,9.19,9.196,9.1983,9.1924,9.1838,9.1812,9.1786,9.1771,9.1719,9.173,9.1691,9.1716,9.1716,9.1716,9.1716,9.2528,9.3456,9.4191,9.481,9.6048,9.6512,9.6783,9.6822,9.6822,9.6822,9.6822,9.6822,9.6822,9.6822,9.6822,9.6822,9.6822,9.6822,9.6822,9.6822,9.6822,9.6822,9.6822,9.6822,9.6822,9.6822,9.6822,9.6822,9.6812,9.6798,9.6851,9.6827,9.6856,9.6898,9.6912,9.6966,9.6967,9.698,9.7094,9.7103,9.711,9.7132,9.7104,9.7143,9.7154,9.7154,9.7165,9.7186,9.7217,9.7266,9.7294,9.7347,9.7411,9.748,9.7511,9.7528,9.7568,9.76,9.765,9.7656,9.7672,9.7678,9.7685,9.7691,9.7695,9.7695,9.7695,9.7695,9.7695,9.7695,9.7695,9.7695,9.7695,9.6562,9.6953,9.6484,9.6288,9.6287,9.624,9.6227,9.6133,9.5793,9.509,9.4256,9.3808,9.3071,9.2325,9.2112,9.2049,9.1983,9.1933,9.1933,9.1921,9.1897,9.1861,9.1863,9.1876,9.1838,9.1825,9.1746,9.1746,9.1812,9.1812,9.1773,9.1785,9.1719,9.1757,9.1716,9.1716,9.1716,9.1716,9.1716,9.1716,9.1716,9.1754,9.2064,9.2837,9.3727,9.4617,9.5352,9.6396,9.6744,9.6822,9.6822,9.6822,9.6822,9.6822,9.6822,9.6822,9.6822,9.6822,9.6822,9.6822,9.6822,9.6822,9.6822,9.6822,9.6822,9.6822,9.6822,9.6822,9.6822,9.6822,9.6822,9.6822,9.6822,9.6822,9.6822,9.6836,9.6827,9.6866,9.6856,9.687,9.6898,9.6927,9.698,9.6967,9.6992,9.7055,9.7055,9.7067,9.7067,9.7067,9.7103,9.7149,9.7182,9.7175,9.7246,9.729,9.7371,9.7411,9.7422,9.7466,9.7538,9.7563,9.7576,9.76,9.7614,9.763,9.7682,9.7695,9.7695,9.7695,9.7695,9.7695,9.7695,9.7695,9.7695,9.523,9.5779,9.5346,9.5187,9.5186,9.5084,9.5094,9.5031,9.4742,9.4244,9.3632,9.3228,9.2636,9.2127,9.1936,9.19,9.1838,9.1838,9.1838,9.1812,9.1786,9.1773,9.1798,9.1744,9.173,9.1716,9.173,9.173,9.173,9.173,9.173,9.1716,9.173,9.1716,9.1716,9.1716,9.1716,9.1716,9.1716,9.1716,9.1716,9.1716,9.187,9.2489,9.3302,9.4269,9.4733,9.5932,9.6783,9.6822,9.6822,9.6822,9.6822,9.6822,9.6822,9.6822,9.6822,9.6822,9.6822,9.6822,9.6822,9.6822,9.6822,9.6822,9.6822,9.6822,9.6822,9.6822,9.6822,9.6822,9.6822,9.6822,9.6822,9.6822,9.6822,9.6822,9.6822,9.6783,9.6783,9.6812,9.6812,9.6768,9.6827,9.6856,9.6898,9.6939,9.6953,9.6953,9.6953,9.6953,9.6993,9.7044,9.7057,9.7055,9.7087,9.7154,9.7245,9.7246,9.7273,9.7324,9.7364,9.7401,9.7422,9.7466,9.7544,9.7568,9.7585,9.7633,9.7695,9.7695,9.7695,9.7695,9.7695,9.7695,9.7695,9.3918,9.4035,9.4777,9.5009,9.4967,9.5031,9.4903,9.4595,9.3905,9.351,9.3202,9.2565,9.2091,9.1876,9.1812,9.1811,9.1744,9.1691,9.1744,9.1744,9.173,9.173,9.173,9.173,9.1716,9.1716,9.1716,9.1716,9.1716,9.1716,9.1716,9.1716,9.1716,9.1716,9.1716,9.1716,9.1716,9.1716,9.1716,9.1716,9.1716,9.1793,9.2025,9.2799,9.365,9.4539,9.5352,9.6164,9.6783,9.6783,9.6822,9.6822,9.6822,9.6822,9.6822,9.6822,9.6822,9.6822,9.6822,9.6822,9.6822,9.6822,9.6822,9.6822,9.6822,9.6822,9.6822,9.6822,9.6807,9.6807,9.6807,9.6822,9.6738,9.6738,9.6723,9.6723,9.6723,9.6738,9.6738,9.6753,9.6738,9.6692,9.6661,9.6707,9.6699,9.6783,9.6798,9.6759,9.6798,9.6798,9.6841,9.687,9.6898,9.6939,9.6954,9.7018,9.7004,9.704,9.706,9.7115,9.7168,9.7207,9.7236,9.729,9.7302,9.7394,9.748,9.7505,9.7561,9.7643,9.7691,9.7692,9.7694,9.7695,9.7695,9.2967,9.2962,9.3209,9.3376,9.3426,9.3322,9.3251,9.318,9.2784,9.2532,9.2414,9.2043,9.1812,9.1785,9.1757,9.1744,9.1716,9.1716,9.1716,9.1716,9.1716,9.1716,9.1716,9.1716,9.1716,9.1716,9.1716,9.1716,9.1716,9.1716,9.1716,9.1716,9.1716,9.1716,9.1716,9.1716,9.1716,9.1716,9.1716,9.1716,9.1716,9.1716,9.187,9.2218,9.3031,9.3843,9.4655,9.5545,9.6203,9.6667,9.6744,9.6822,9.6807,9.6807,9.6768,9.6768,9.6768,9.6768,9.6807,9.6822,9.6822,9.6822,9.6822,9.6807,9.6768,9.6783,9.6822,9.6807,9.6777,9.6707,9.6746,9.6661,9.6613,9.6629,9.6645,9.6645,9.6661,9.6661,9.6661,9.6661,9.6629,9.658,9.6564,9.6564,9.6558,9.6574,9.659,9.6629,9.6661,9.6661,9.6707,9.6723,9.6738,9.6723,9.6759,9.6788,9.6778,9.6821,9.6848,9.6876,9.6928,9.694,9.6989,9.7048,9.7104,9.7178,9.7246,9.7324,9.7441,9.755,9.763,9.7682,9.7688,9.7693,9.7694,9.2366,9.2341,9.2195,9.2221,9.2334,9.2195,9.2113,9.2132,9.2044,9.1863,9.1798,9.1785,9.1732,9.173,9.1716,9.1716,9.1716,9.1716,9.1716,9.1716,9.1716,9.1716,9.1716,9.1716,9.1716,9.1716,9.1716,9.1716,9.1716,9.1716,9.1716,9.1716,9.1716,9.1716,9.1716,9.1716,9.1716,9.1716,9.1716,9.1716,9.1716,9.1716,9.1716,9.1909,9.2644,9.3224,9.4075,9.4926,9.5777,9.6265,9.6575,9.6753,9.6738,9.6723,9.6707,9.6707,9.6707,9.6707,9.6723,9.6777,9.6777,9.6738,9.6707,9.6707,9.6707,9.6707,9.6692,9.6692,9.6645,9.6629,9.6629,9.658,9.6525,9.6542,9.6525,9.6542,9.6542,9.6542,9.6525,9.6525,9.6492,9.6497,9.6463,9.6463,9.6497,9.6492,9.6525,9.6542,9.6542,9.6542,9.6542,9.6542,9.6542,9.6525,9.6509,9.659,9.6669,9.663,9.6661,9.6661,9.6691,9.6706,9.675,9.6796,9.6863,9.6902,9.6977,9.7043,9.726,9.7483,9.7572,9.7653,9.7674,9.7684,9.7688,9.219,9.2169,9.206,9.2092,9.2169,9.206,9.1994,9.1983,9.1863,9.1759,9.173,9.173,9.173,9.1716,9.1716,9.1716,9.1716,9.1716,9.1716,9.1716,9.1716,9.1716,9.1716,9.1716,9.1716,9.1716,9.1716,9.1716,9.1716,9.1716,9.1716,9.1716,9.1716,9.1716,9.1716,9.1716,9.1716,9.1716,9.1716,9.1716,9.1716,9.1716,9.1716,9.1881,9.2345,9.2847,9.3413,9.4302,9.5114,9.5718,9.6228,9.6483,9.6661,9.6558,9.6542,9.6525,9.6525,9.6509,9.6509,9.6629,9.6645,9.6661,9.6629,9.6542,9.6525,9.6509,9.6525,9.6597,9.6548,9.6531,9.6492,9.6476,9.6459,9.6497,9.648,9.648,9.6463,9.6463,9.6446,9.6446,9.6429,9.6394,9.6376,9.6358,9.6394,9.6446,9.6459,9.6476,9.6459,9.6442,9.6463,9.6446,9.6446,9.6446,9.6446,9.6459,9.6492,9.6492,9.6492,9.6492,9.6492,9.6525,9.6574,9.6583,9.663,9.6706,9.6735,9.6754,9.7009,9.7195,9.7454,9.7563,9.7639,9.7662,9.7667,9.2122,9.206,9.1912,9.1888,9.1936,9.1888,9.185,9.1838,9.1759,9.173,9.1716,9.1716,9.1716,9.1716,9.1716,9.1716,9.1716,9.1716,9.1716,9.1716,9.1716,9.1716,9.1716,9.1716,9.1716,9.1716,9.1716,9.1716,9.1716,9.1702,9.1716,9.1716,9.1687,9.1716,9.1716,9.1716,9.1716,9.1716,9.1716,9.1716,9.1716,9.1702,9.1687,9.1644,9.1992,9.231,9.2705,9.3593,9.425,9.5061,9.567,9.604,9.6387,9.6437,9.6476,9.6476,9.6492,9.6492,9.6476,9.6531,9.6514,9.6531,9.6548,9.6476,9.6492,9.6492,9.6492,9.6476,9.6463,9.6446,9.6446,9.6376,9.6379,9.6379,9.6361,9.6361,9.6361,9.6361,9.6361,9.6361,9.6343,9.6343,9.6325,9.6343,9.6361,9.6379,9.6376,9.6376,9.6358,9.634,9.6361,9.6361,9.6361,9.6361,9.6358,9.6394,9.6394,9.6394,9.6358,9.634,9.634,9.6376,9.6394,9.6408,9.6442,9.6459,9.6542,9.6599,9.675,9.6914,9.7178,9.7387,9.7454,9.7538,9.7572,9.1971,9.19,9.1838,9.1785,9.1785,9.1746,9.1785,9.1746,9.173,9.1716,9.1716,9.1716,9.1716,9.1716,9.1716,9.1716,9.1716,9.1716,9.1716,9.1716,9.1716,9.1716,9.1716,9.1716,9.1716,9.1716,9.1716,9.1716,9.1716,9.1687,9.1644,9.1591,9.1591,9.1576,9.1591,9.1605,9.1673,9.1659,9.1605,9.1576,9.1576,9.1576,9.1561,9.1531,9.1632,9.1771,9.2187,9.2673,9.3213,9.4238,9.4916,9.5401,9.5902,9.6253,9.6369,9.6429,9.6429,9.6429,9.6411,9.6394,9.6394,9.6411,9.6429,9.6429,9.6429,9.6411,9.6411,9.6394,9.6376,9.6358,9.6379,9.6288,9.6288,9.6288,9.6288,9.6288,9.6288,9.6306,9.6306,9.6288,9.6288,9.6288,9.6288,9.6288,9.6306,9.6306,9.6288,9.6288,9.6288,9.6288,9.6288,9.6288,9.6288,9.6306,9.6325,9.6325,9.6325,9.6288,9.6288,9.6288,9.6288,9.6343,9.6306,9.6288,9.6322,9.6376,9.6394,9.6459,9.6552,9.6691,9.6824,9.7054,9.7216,9.7349,9.7408,9.185,9.1773,9.1705,9.1716,9.1716,9.1716,9.1716,9.1716,9.1716,9.1716,9.1716,9.1716,9.1716,9.1716,9.1716,9.1716,9.1716,9.1716,9.1716,9.1716,9.1716,9.1716,9.1716,9.1716,9.1702,9.1702,9.1702,9.1673,9.1649,9.1629,9.1516,9.1431,9.1446,9.1446,9.15,9.15,9.1546,9.1531,9.1516,9.1462,9.1446,9.1431,9.1415,9.1438,9.1461,9.1445,9.1737,9.2123,9.2547,9.3263,9.4078,9.4754,9.5319,9.5842,9.6114,9.6288,9.6306,9.6325,9.6325,9.6306,9.6306,9.6343,9.6325,9.6288,9.6306,9.6343,9.6343,9.6343,9.6325,9.6306,9.6288,9.6288,9.6288,9.6288,9.6288,9.6288,9.6288,9.6288,9.6288,9.6288,9.6288,9.6288,9.6288,9.6288,9.6288,9.6288,9.6288,9.6288,9.6288,9.6288,9.6288,9.6288,9.6288,9.6288,9.6288,9.6288,9.6288,9.6288,9.6288,9.6288,9.6288,9.6288,9.6288,9.6288,9.6288,9.6306,9.6304,9.634,9.6411,9.6525,9.663,9.6768,9.6963,9.7115,9.7198,9.1811,9.1744,9.173,9.1716,9.1716,9.1716,9.1716,9.1716,9.1716,9.1716,9.1716,9.1716,9.1716,9.1716,9.1716,9.1716,9.1716,9.1716,9.1716,9.1716,9.1702,9.1716,9.1702,9.1702,9.1673,9.1644,9.1629,9.1576,9.1516,9.147,9.147,9.14,9.1368,9.1384,9.1406,9.139,9.1422,9.1438,9.1422,9.1384,9.1384,9.1368,9.1352,9.1358,9.1341,9.1325,9.1429,9.1544,9.1929,9.2682,9.2973,9.361,9.5055,9.5306,9.5518,9.6249,9.6288,9.6288,9.6288,9.6288,9.6288,9.6288,9.6288,9.6288,9.6288,9.6288,9.6288,9.6288,9.6288,9.6288,9.6288,9.6288,9.6288,9.6288,9.6288,9.6288,9.6288,9.6288,9.6288,9.6288,9.6288,9.6288,9.6288,9.6288,9.6288,9.6288,9.6288,9.6288,9.6288,9.6288,9.6288,9.6288,9.6288,9.6288,9.6288,9.6288,9.6288,9.6288,9.6288,9.6288,9.6288,9.6288,9.6288,9.6288,9.6288,9.6288,9.6288,9.6325,9.6361,9.6379,9.6463,9.6552,9.6706,9.6823,9.6928,9.1757,9.1716,9.1716,9.1716,9.1716,9.1716,9.1716,9.1716,9.1716,9.1716,9.1716,9.1716,9.1716,9.1716,9.1716,9.1716,9.1716,9.1716,9.1702,9.1659,9.1673,9.1591,9.1591,9.1591,9.1546,9.1516,9.15,9.1485,9.14,9.1352,9.1374,9.1325,9.1325,9.1341,9.1308,9.1292,9.1292,9.1308,9.1325,9.1286,9.1341,9.1341,9.1292,9.1275,9.1258,9.1245,9.121,9.1192,9.1518,9.2056,9.2172,9.2864,9.4172,9.4518,9.5403,9.6095,9.6288,9.6288,9.6288,9.6288,9.6288,9.6288,9.6288,9.6288,9.6288,9.6288,9.6288,9.6288,9.6288,9.6288,9.6288,9.6288,9.6288,9.6288,9.6288,9.6288,9.6288,9.6288,9.6288,9.6288,9.6288,9.6288,9.6288,9.6288,9.6288,9.6288,9.6288,9.6288,9.6288,9.6288,9.6288,9.6288,9.6288,9.6288,9.6288,9.6288,9.6288,9.6288,9.6288,9.6288,9.6288,9.6288,9.6288,9.6288,9.6288,9.6288,9.6288,9.6288,9.6306,9.6325,9.6325,9.6411,9.6509,9.6583,9.6691,9.1702,9.1702,9.1663,9.1649,9.1702,9.1649,9.1649,9.1702,9.1687,9.1663,9.1702,9.1663,9.1687,9.1659,9.1659,9.1634,9.162,9.1659,9.1629,9.1585,9.1585,9.1516,9.1446,9.14,9.1415,9.14,9.1384,9.1406,9.1352,9.1341,9.1258,9.1171,9.1189,9.1206,9.1206,9.1206,9.1245,9.1224,9.1206,9.1189,9.1189,9.121,9.121,9.121,9.1171,9.1154,9.1154,9.1192,9.1192,9.1444,9.179,9.2328,9.3077,9.4154,9.5269,9.5903,9.6134,9.6288,9.6288,9.6288,9.6288,9.6288,9.6288,9.6288,9.6288,9.6288,9.6288,9.6288,9.6288,9.6288,9.6288,9.6288,9.6288,9.6288,9.6288,9.6288,9.6288,9.6288,9.6288,9.6288,9.6288,9.6288,9.6288,9.6288,9.6288,9.6288,9.6288,9.6288,9.6288,9.6288,9.6211,9.6249,9.6288,9.6288,9.6288,9.6288,9.6288,9.6288,9.6288,9.6288,9.6288,9.6288,9.6288,9.6288,9.6288,9.6288,9.6288,9.6288,9.6288,9.6288,9.6306,9.6288,9.634,9.633,9.6459,9.1629,9.1615,9.1516,9.1462,9.15,9.1462,9.1462,9.15,9.1462,9.1531,9.1615,9.1615,9.1561,9.1516,9.1516,9.1516,9.1516,9.1531,9.1485,9.147,9.147,9.1438,9.1384,9.1368,9.1352,9.1358,9.1325,9.1308,9.1258,9.1224,9.1206,9.121,9.1192,9.1192,9.1192,9.1192,9.1175,9.1157,9.1064,9.1064,9.11,9.1192,9.121,9.1136,9.11,9.1046,9.1028,9.0972,9.0992,9.1107,9.1145,9.1643,9.2371,9.3946,9.4829,9.5308,9.5789,9.6058,9.6135,9.6174,9.6251,9.6269,9.6269,9.6288,9.6288,9.6288,9.6288,9.6288,9.6288,9.6288,9.6288,9.6288,9.6288,9.6288,9.6288,9.6288,9.6288,9.6288,9.6288,9.6288,9.6288,9.6288,9.6288,9.6288,9.6288,9.6288,9.6288,9.6288,9.6249,9.6211,9.6057,9.6095,9.6249,9.6288,9.6288,9.6288,9.6288,9.6288,9.6288,9.6288,9.6288,9.6288,9.6288,9.6288,9.6288,9.6288,9.6288,9.6288,9.6288,9.6134,9.5865,9.5672,9.5865,9.5955,9.6186,9.0628,9.0999,9.1261,9.14,9.14,9.14,9.14,9.14,9.14,9.1438,9.1454,9.1485,9.147,9.14,9.14,9.1384,9.1384,9.14,9.1406,9.1352,9.1336,9.1341,9.1341,9.1286,9.1292,9.1258,9.1241,9.1262,9.1192,9.121,9.121,9.1192,9.1175,9.11,9.11,9.1064,9.1009,9.0972,9.0915,9.0915,9.0953,9.0991,9.0991,9.0972,9.0915,9.0839,9.078,9.0721,9.0721,9.0739,9.0778,9.1257,9.1968,9.289,9.3639,9.4311,9.4926,9.5579,9.5656,9.5848,9.6059,9.6117,9.6213,9.6155,9.6288,9.6288,9.6288,9.6288,9.6288,9.6288,9.6288,9.6288,9.6288,9.6288,9.6288,9.6288,9.6288,9.6288,9.6288,9.6288,9.6288,9.6288,9.6288,9.6288,9.6288,9.6288,9.6288,9.6134,9.6134,9.5826,9.5749,9.5788,9.5826,9.6134,9.6288,9.6288,9.6288,9.6288,9.6095,9.6211,9.6211,9.6249,9.6288,9.6288,9.6288,9.6288,9.6288,9.6057,9.5788,9.5557,9.5249,9.4941,9.5172,9.5365,9.5421,8.9378,9.0095,9.0751,9.1059,9.1059,9.1021,9.0966,9.0966,9.1021,9.0934,9.0884,9.1066,9.1236,9.1368,9.1368,9.1368,9.1352,9.1319,9.1325,9.1308,9.1292,9.1241,9.1189,9.1192,9.1136,9.1136,9.1157,9.1157,9.1139,9.1139,9.1121,9.1139,9.1046,9.0934,9.0915,9.0877,9.0799,9.0739,9.0641,9.0579,9.062,9.0681,9.0721,9.0739,9.0679,9.0617,9.0538,9.0496,9.0496,9.0474,9.0474,9.0899,9.1378,9.1997,9.246,9.3172,9.3961,9.4403,9.4633,9.5131,9.5499,9.5769,9.5924,9.6059,9.6117,9.6155,9.6155,9.6174,9.6174,9.6249,9.6249,9.6288,9.6288,9.6288,9.6288,9.6288,9.6288,9.6288,9.6288,9.6288,9.6288,9.6288,9.6249,9.6249,9.6095,9.6134,9.6057,9.598,9.5788,9.5211,9.4826,9.4941,9.5057,9.5441,9.5788,9.5788,9.5595,9.5441,9.5249,9.5749,9.6057,9.5865,9.5942,9.6288,9.6288,9.6134,9.5865,9.5557,9.5288,9.4903,9.4634,9.4364,9.4287,9.4441,9.4441,8.8881,8.8991,8.9145,8.9239,8.9277,8.9277,8.9184,8.9222,8.9277,8.9222,8.9491,9.0013,9.0531,9.1224,9.1224,9.1224,9.1241,9.1241,9.1224,9.1206,9.1154,9.1118,9.1064,9.0991,9.0991,9.0992,9.0973,9.0973,9.0934,9.0934,9.0896,9.0819,9.0799,9.0701,9.062,9.0558,9.0538,9.0453,9.0367,9.0301,9.0301,9.0389,9.0538,9.0517,9.0491,9.047,9.0405,9.0317,9.0295,9.0235,9.0235,9.0409,9.0721,9.1184,9.161,9.2019,9.2809,9.3234,9.3617,9.4173,9.4582,9.4756,9.4951,9.5473,9.5535,9.5634,9.5674,9.579,9.5867,9.6097,9.6154,9.6249,9.6288,9.6288,9.6288,9.6288,9.6288,9.6288,9.6288,9.6249,9.6211,9.6172,9.6095,9.5826,9.5211,9.5134,9.4749,9.4711,9.4672,9.4287,9.3941,9.4057,9.4172,9.4134,9.4172,9.448,9.4403,9.4326,9.4403,9.4826,9.5134,9.5211,9.5365,9.5595,9.5826,9.5826,9.548,9.4826,9.448,9.4134,9.398,9.3787,9.3595,9.348,9.348]}]]